[[{"header":{"parameterUnit":"m.s-1","parameterCategory":1,"la1":30.6,"la2":28.766,"lo1":-90.7593,"lo2":-88.6598,"dy":0.0162,"dx":0.0183,"nx":116,"ny":114,"refTime":"2023-08-29T06:00:00:Z","depth":0,"parameterNumber":2,"parameterNumberName":"U-component_of_WINDS"},"data":[0.0,0.0,0.0,0.0,0.0,0.0,0.0,0.0,0.0,0.0,0.0,0.0,0.0,0.0,0.0,0.0,0.0,0.0,0.0,0.0,0.0,0.0,0.0,0.0,0.0,0.0,0.0,0.0,0.0,0.0,0.0,0.0,0.0,0.0,0.0,0.0,0.0,0.0,0.0,0.0,0.0,0.0,0.0,0.0,0.0,0.0,0.0,0.0,0.0,0.0,0.0,0.0,0.0,0.0,0.0,0.0,0.0,0.0,0.0,0.0,0.0,0.0,0.0,0.0,0.0,0.0,0.0,0.0,0.0,0.0,0.0,0.0,0.0,0.0,0.0,0.0,0.0,0.0,0.0,0.0,0.0,0.0,0.0,0.0,0.0,0.0,0.0,0.0,0.0,0.0,0.0,0.0,0.0,0.0,0.0,0.0,0.0,0.0,0.0,0.0,0.0,0.0,0.0,0.0,0.0,0.0,0.0,0.0,0.0,0.0,0.0,0.0,0.0,0.0,0.0,0.0,0.0,0.0,0.0,0.0,0.0,0.0,0.0,0.0,0.0,0.0,0.0,0.0,0.0,0.0,0.0,0.0,0.0,0.0,0.0,0.0,0.0,0.0,0.0,0.0,0.0,0.0,0.0,0.0,0.0,0.0,0.0,0.0,0.0,0.0,0.0,0.0,0.0,0.0,0.0,0.0,0.0,0.0,0.0,0.0,0.0,0.0,0.0,0.0,0.0,0.0,0.0,0.0,0.0,0.0,0.0,0.0,0.0,0.0,0.0,0.0,0.0,0.0,0.0,0.0,0.0,0.0,0.0,0.0,0.0,0.0,0.0,0.0,0.0,0.0,0.0,0.0,0.0,0.0,0.0,0.0,0.0,0.0,0.0,0.0,0.0,0.0,0.0,0.0,0.0,0.0,0.0,0.0,0.0,0.0,0.0,0.0,0.0,0.0,0.0,0.0,0.0,0.0,0.0,0.0,0.0,0.0,0.0,0.0,0.0,0.0,0.0,0.0,0.0,0.0,0.0,0.0,0.0,0.0,0.0,0.0,0.0,0.0,0.0,0.0,0.0,0.0,0.0,0.0,0.0,0.0,0.0,0.0,0.0,0.0,0.0,0.0,0.0,0.0,0.0,0.0,0.0,0.0,0.0,0.0,0.0,0.0,0.0,0.0,0.0,0.0,0.0,0.0,0.0,0.0,0.0,0.0,0.0,0.0,0.0,0.0,0.0,0.0,0.0,0.0,0.0,0.0,0.0,0.0,0.0,0.0,0.0,0.0,0.0,0.0,0.0,0.0,0.0,0.0,0.0,0.0,0.0,0.0,0.0,0.0,0.0,0.0,0.0,0.0,0.0,0.0,0.0,0.0,0.0,0.0,0.0,0.0,0.0,0.0,0.0,0.0,0.0,0.0,0.0,0.0,0.0,0.0,0.0,0.0,0.0,0.0,0.0,0.0,0.0,0.0,0.0,0.0,0.0,0.0,0.0,0.0,0.0,0.0,0.0,0.0,0.0,0.0,0.0,0.0,0.0,0.0,0.0,0.0,0.0,0.0,0.0,0.0,0.0,0.0,0.0,0.0,0.0,0.0,0.0,0.0,0.0,0.0,0.0,0.0,0.0,0.0,0.0,0.0,0.0,0.0,0.0,0.0,0.0,0.0,0.0,0.0,0.0,0.0,0.0,0.0,0.0,0.0,0.0,0.0,0.0,0.0,0.0,0.0,0.0,0.0,0.0,0.0,0.0,0.0,0.0,0.0,0.0,0.0,0.0,0.0,0.0,0.0,0.0,0.0,0.0,0.0,0.0,0.0,0.0,0.0,0.0,0.0,0.0,0.0,0.0,0.0,0.0,0.0,0.0,0.0,0.0,0.0,0.0,0.0,0.0,0.0,0.0,0.0,0.0,0.0,0.0,0.0,0.0,0.0,0.0,0.0,0.0,0.0,0.0,0.0,0.0,0.0,0.0,0.0,0.0,0.0,0.0,0.0,0.0,0.0,0.0,0.0,0.0,0.0,0.0,0.0,0.0,0.0,0.0,0.0,0.0,0.0,0.0,0.0,0.0,0.0,0.0,0.0,0.0,0.0,0.0,0.0,0.0,0.0,0.0,0.0,0.0,0.0,0.0,0.0,0.0,0.0,0.0,0.0,0.0,0.0,0.0,0.0,0.0,0.0,0.0,0.0,0.0,0.0,0.0,0.0,0.0,0.0,0.0,0.0,0.0,0.0,0.0,0.0,0.0,0.0,0.0,0.0,0.0,0.0,0.0,0.0,0.0,0.0,0.0,0.0,0.0,0.0,0.0,0.0,0.0,0.0,0.0,0.0,0.0,0.0,0.0,0.0,0.0,0.0,0.0,0.0,0.0,0.0,0.0,0.0,0.0,0.0,0.0,0.0,0.0,0.0,0.0,0.0,0.0,0.0,0.0,0.0,0.0,0.0,0.0,0.0,0.0,0.0,0.0,0.0,0.0,0.0,0.0,0.0,0.0,0.0,0.0,0.0,0.0,0.0,0.0,0.0,0.0,0.0,0.0,0.0,0.0,0.0,0.0,0.0,0.0,0.0,0.0,0.0,0.0,0.0,0.0,0.0,0.0,0.0,0.0,0.0,0.0,0.0,0.0,0.0,0.0,0.0,0.0,0.0,0.0,0.0,0.0,0.0,0.0,0.0,0.0,0.0,0.0,0.0,0.0,0.0,0.0,0.0,0.0,0.0,0.0,0.0,0.0,0.0,0.0,0.0,0.0,0.0,0.0,0.0,0.0,0.0,0.0,0.0,0.0,0.0,0.0,0.0,0.0,0.0,0.0,0.0,0.0,0.0,0.0,0.0,0.0,0.0,0.0,0.0,0.0,0.0,0.0,0.0,0.0,0.0,0.0,0.0,0.0,0.0,0.0,0.0,0.0,0.0,0.0,0.0,0.0,0.0,0.0,0.0,0.0,0.0,0.0,0.0,0.0,0.0,0.0,0.0,0.0,0.0,0.0,0.0,0.0,0.0,0.0,0.0,0.0,0.0,0.0,0.0,0.0,0.0,0.0,0.0,0.0,0.0,0.0,0.0,0.0,0.0,0.0,0.0,0.0,0.0,0.0,0.0,0.0,0.0,0.0,0.0,0.0,0.0,0.0,0.0,0.0,0.0,0.0,0.0,0.0,0.0,0.0,0.0,0.0,0.0,0.0,0.0,0.0,0.0,0.0,0.0,0.0,0.0,0.0,0.0,0.0,0.0,0.0,0.0,0.0,0.0,0.0,0.0,0.0,0.0,0.0,0.0,0.0,0.0,0.0,0.0,0.0,0.0,0.0,0.0,0.0,0.0,0.0,0.0,0.0,0.0,0.0,0.0,0.0,0.0,0.0,0.0,0.0,0.0,0.0,0.0,0.0,0.0,0.0,0.0,0.0,0.0,0.0,0.0,0.0,0.0,0.0,0.0,0.0,0.0,0.0,0.0,0.0,0.0,0.0,0.0,0.0,0.0,0.0,0.0,0.0,0.0,0.0,0.0,0.0,0.0,0.0,0.0,0.0,0.0,0.0,0.0,0.0,0.0,0.0,0.0,0.0,0.0,0.0,0.0,0.0,0.0,0.0,0.0,0.0,0.0,0.0,0.0,0.0,0.0,0.0,0.0,0.0,0.0,0.0,0.0,0.0,0.0,0.0,0.0,0.0,0.0,0.0,0.0,0.0,0.0,0.0,0.0,0.0,0.0,0.0,0.0,0.0,0.0,0.0,0.0,0.0,0.0,0.0,0.0,0.0,0.0,0.0,0.0,0.0,0.0,0.0,0.0,0.0,0.0,0.0,0.0,0.0,0.0,0.0,0.0,0.0,0.0,0.0,0.0,0.0,0.0,0.0,0.0,0.0,0.0,0.0,0.0,0.0,0.0,0.0,0.0,0.0,0.0,0.0,0.0,0.0,0.0,0.0,0.0,0.0,0.0,0.0,0.0,0.0,0.0,0.0,0.0,0.0,0.0,0.0,0.0,0.0,0.0,0.0,0.0,0.0,0.0,0.0,0.0,0.0,0.0,0.0,0.0,0.0,0.0,0.0,0.0,0.0,0.0,0.0,0.0,0.0,0.0,0.0,0.0,0.0,0.0,0.0,0.0,0.0,0.0,0.0,0.0,0.0,0.0,0.0,0.0,0.0,0.0,0.0,0.0,0.0,0.0,0.0,0.0,0.0,0.0,0.0,0.0,0.0,0.0,0.0,0.0,0.0,0.0,0.0,0.0,0.0,0.0,0.0,0.0,0.0,0.0,0.0,0.0,0.0,0.0,0.0,0.0,0.0,0.0,0.0,0.0,0.0,0.0,0.0,0.0,0.0,0.0,0.0,0.0,0.0,0.0,0.0,0.0,0.0,0.0,0.0,0.0,0.0,0.0,0.0,0.0,0.0,0.0,0.0,0.0,0.0,0.0,0.0,0.0,0.0,0.0,0.0,0.0,0.0,0.0,0.0,0.0,0.0,0.0,0.0,0.0,0.0,0.0,0.0,0.0,0.0,0.0,0.0,0.0,0.0,0.0,0.0,0.0,0.0,0.0,0.0,0.0,0.0,0.0,0.0,0.0,0.0,0.0,0.0,0.0,0.0,0.0,0.0,0.0,0.0,0.0,0.0,0.0,0.0,0.0,0.0,0.0,0.0,0.0,0.0,0.0,0.0,0.0,0.0,0.0,0.0,0.0,0.0,0.0,0.0,0.0,0.0,0.0,0.0,0.0,0.0,0.0,0.0,0.0,0.0,0.0,0.0,0.0,0.0,0.0,0.0,0.0,0.0,0.0,0.0,0.0,0.0,0.0,0.0,0.0,0.0,0.0,0.0,0.0,0.0,0.0,0.0,0.0,0.0,0.0,0.0,0.0,0.0,0.0,0.0,0.0,0.0,0.0,0.0,0.0,0.0,0.0,0.0,0.0,0.0,0.0,0.0,0.0,0.0,0.0,0.0,0.0,0.0,0.0,0.0,0.0,0.0,0.0,0.0,0.0,0.0,0.0,0.0,0.0,0.0,0.0,0.0,0.0,0.0,0.0,0.0,0.0,0.0,0.0,0.0,0.0,0.0,0.0,0.0,0.0,0.0,0.0,0.0,0.0,0.0,0.0,0.0,0.0,0.0,0.0,0.0,0.0,0.0,0.0,0.0,0.0,0.0,0.0,0.0,0.0,0.0,0.0,0.0,0.0,0.0,0.0,0.0,0.0,0.0,0.0,0.0,0.0,0.0,0.0,0.0,0.0,0.0,0.0,0.0,0.0,0.0,0.0,0.0,0.0,0.0,0.0,0.0,0.0,0.0,0.0,0.0,0.0,0.0,0.0,0.0,0.0,0.0,0.0,0.0,0.0,0.0,0.0,0.0,0.0,0.0,0.0,0.0,0.0,0.0,0.0,0.0,0.0,0.0,0.0,0.0,0.0,0.0,0.0,0.0,0.0,0.0,0.0,0.0,0.0,0.0,0.0,0.0,0.0,0.0,0.0,0.0,0.0,0.0,0.0,0.0,0.0,0.0,0.0,0.0,0.0,0.0,0.0,0.0,0.0,0.0,0.0,0.0,0.0,0.0,0.0,0.0,0.0,0.0,0.0,0.0,0.0,0.0,0.0,0.0,0.0,0.0,0.0,0.0,0.0,0.0,0.0,0.0,0.0,0.0,0.0,0.0,0.0,0.0,0.0,0.0,0.0,0.0,0.0,0.0,0.0,0.0,0.0,0.0,0.0,0.0,0.0,0.0,0.0,0.0,0.0,0.0,0.0,0.0,0.0,0.0,0.0,0.0,0.0,0.0,0.0,0.0,0.0,0.0,0.0,0.0,0.0,0.0,0.0,0.0,0.0,0.0,0.0,0.0,0.0,0.0,0.0,0.0,0.0,0.0,0.0,0.0,0.0,0.0,0.0,0.0,0.0,0.0,0.0,0.0,0.0,0.0,0.0,0.0,0.0,0.0,0.0,0.0,0.0,0.0,0.0,0.0,0.0,0.0,0.0,0.0,0.0,0.0,0.0,0.0,0.0,0.0,0.0,0.0,0.0,0.0,0.0,0.0,0.0,0.0,0.0,0.0,0.0,0.0,0.0,0.0,0.0,0.0,0.0,0.0,0.0,0.0,0.0,0.0,0.0,0.0,0.0,2.7486,2.5928,0.0,0.0,0.0,0.0,0.0,0.0,0.0,0.0,0.0,0.0,0.0,0.0,0.0,0.0,0.0,0.0,0.0,0.0,0.0,0.0,0.0,0.0,0.0,0.0,0.0,0.0,0.0,0.0,0.0,0.0,0.0,0.0,0.0,0.0,0.0,0.0,0.0,3.4672,3.4812,3.5354,3.6251,3.6671,3.6231,3.5122,0.0,0.0,0.0,0.0,0.0,0.0,0.0,0.0,0.0,0.0,0.0,0.0,0.0,0.0,0.0,0.0,0.0,0.0,0.0,0.0,0.0,0.0,0.0,0.0,0.0,0.0,0.0,0.0,0.0,0.0,0.0,0.0,0.0,0.0,0.0,0.0,0.0,0.0,0.0,0.0,0.0,0.0,0.0,0.0,0.0,0.0,0.0,0.0,0.0,0.0,0.0,0.0,0.0,0.0,0.0,0.0,0.0,0.0,0.0,0.0,0.0,0.0,0.0,0.0,0.0,0.0,0.0,0.0,0.0,0.0,3.0352,2.8563,0.0,0.0,0.0,0.0,0.0,0.0,0.0,0.0,0.0,0.0,0.0,0.0,0.0,0.0,0.0,0.0,0.0,0.0,0.0,0.0,0.0,0.0,0.0,3.5493,3.5565,3.5699,3.5584,3.5565,0.0,0.0,0.0,0.0,0.0,0.0,3.3987,3.3968,3.3925,3.3808,3.4515,3.5999,3.8207,3.8747,3.8008,3.6216,3.5988,0.0,0.0,0.0,0.0,0.0,0.0,0.0,0.0,0.0,0.0,0.0,0.0,0.0,0.0,0.0,0.0,0.0,0.0,0.0,0.0,0.0,0.0,0.0,0.0,0.0,0.0,0.0,0.0,0.0,0.0,0.0,0.0,0.0,0.0,0.0,0.0,0.0,0.0,0.0,0.0,0.0,0.0,0.0,0.0,0.0,0.0,0.0,0.0,0.0,0.0,0.0,0.0,0.0,0.0,0.0,0.0,0.0,0.0,0.0,0.0,0.0,0.0,0.0,3.7199,3.7257,3.6834,3.6834,3.6834,3.6699,3.4449,3.2545,3.0987,3.0121,0.0,0.0,0.0,0.0,0.0,0.0,0.0,0.0,0.0,0.0,0.0,0.0,0.0,0.0,0.0,0.0,0.0,0.0,0.0,0.0,0.0,3.5493,3.5795,3.6488,3.5911,3.5815,3.6507,0.0,0.0,0.0,0.0,0.0,3.3083,3.3064,3.3297,3.3808,3.623,3.8626,4.0971,4.1539,4.1977,4.223,3.9919,3.9679,4.0804,0.0,0.0,0.0,0.0,0.0,0.0,0.0,0.0,0.0,0.0,0.0,0.0,0.0,0.0,0.0,0.0,0.0,0.0,0.0,0.0,0.0,0.0,0.0,0.0,0.0,0.0,0.0,0.0,0.0,0.0,0.0,0.0,0.0,0.0,0.0,0.0,0.0,0.0,0.0,0.0,0.0,3.2141,3.2372,0.0,0.0,0.0,0.0,0.0,0.0,0.0,0.0,0.0,0.0,0.0,0.0,0.0,3.8219,3.845,4.145,4.2297,4.1008,4.3989,4.4239,4.2104,4.2104,4.2104,4.2047,4.095,0.0,3.3622,3.2756,0.0,0.0,0.0,0.0,0.0,0.0,0.0,0.0,0.0,0.0,0.0,0.0,0.0,0.0,0.0,0.0,0.0,0.0,0.0,0.0,0.0,3.6622,3.7238,3.8084,3.9565,3.9585,3.7565,3.7988,0.0,0.0,0.0,3.3083,3.2237,3.2516,3.3424,3.4907,3.7676,4.0108,4.2203,4.3649,4.4745,4.548,4.4761,4.3404,4.1521,3.9352,0.0,0.0,0.0,0.0,0.0,0.0,0.0,0.0,0.0,0.0,0.0,0.0,0.0,0.0,0.0,0.0,0.0,0.0,0.0,0.0,0.0,0.0,0.0,0.0,0.0,0.0,0.0,0.0,0.0,0.0,0.0,0.0,0.0,0.0,0.0,0.0,0.0,0.0,0.0,3.1256,3.3449,3.2968,3.4507,3.4891,0.0,0.0,0.0,0.0,0.0,0.0,0.0,0.0,0.0,4.0239,4.147,4.2797,4.422,4.6182,4.7048,4.6817,4.7817,4.7721,4.6624,4.6124,4.5913,4.5893,4.5509,4.3547,4.0354,3.7103,3.4776,3.3103,0.0,0.0,0.0,0.0,3.2391,3.291,0.0,0.0,0.0,0.0,0.0,0.0,0.0,0.0,0.0,0.0,0.0,0.0,3.7238,3.8334,3.9508,4.0796,4.2989,4.297,3.9815,3.9565,3.8027,3.468,3.3295,3.2173,3.129,3.2561,3.4563,3.7239,4.0048,4.2584,4.4809,4.6599,4.7994,4.8985,4.9389,4.7334,4.3447,4.1409,3.96,3.8013,0.0,0.0,0.0,0.0,0.0,0.0,0.0,0.0,0.0,0.0,0.0,0.0,0.0,0.0,0.0,0.0,0.0,0.0,0.0,0.0,0.0,0.0,0.0,0.0,0.0,0.0,0.0,0.0,0.0,0.0,0.0,0.0,0.0,0.0,0.0,0.0,0.0,3.3083,3.518,3.4314,3.6834,3.7565,0.0,0.0,0.0,0.0,0.0,0.0,4.0777,4.1316,4.2508,4.4643,4.5701,4.7144,4.9048,4.9933,5.0702,5.1318,5.0683,5.026,5.001,4.9144,4.8644,4.8413,4.8202,4.7394,4.5874,4.1219,3.8315,3.6622,3.4872,3.4199,3.4353,3.5661,3.6276,3.6738,0.0,0.0,0.0,0.0,0.0,0.0,0.0,0.0,0.0,0.0,0.0,3.6449,3.8892,4.0623,4.2604,4.5066,4.4682,4.4201,4.3989,3.9527,3.6469,3.5488,3.3064,3.1239,3.0123,3.3492,3.7195,4.1104,4.4113,4.7223,5.042,5.1279,5.2527,5.3995,5.328,5.1536,4.8932,4.5,4.2498,4.0855,3.6928,0.0,0.0,0.0,0.0,0.0,0.0,0.0,0.0,0.0,0.0,0.0,0.0,0.0,0.0,0.0,0.0,0.0,0.0,0.0,0.0,0.0,0.0,0.0,0.0,0.0,0.0,0.0,0.0,0.0,0.0,0.0,0.0,0.0,0.0,0.0,0.0,0.0,0.0,3.7853,4.1393,0.0,0.0,0.0,0.0,4.0181,4.1777,4.347,4.5182,4.6797,4.8105,4.9048,5.0683,5.1587,5.1722,5.2568,5.3029,5.3068,5.3029,5.2587,5.176,5.0933,5.0106,4.9298,4.8471,4.8048,4.7721,4.4259,4.1816,4.0065,3.8392,3.7738,3.7757,3.7834,3.8392,3.9123,0.0,0.0,0.0,0.0,0.0,0.0,0.0,0.0,3.4026,3.4584,3.5603,3.768,4.1354,4.3739,4.6317,4.9394,4.9875,4.876,4.5781,4.2078,3.9026,3.6889,3.4021,3.3379,3.5303,3.6889,3.9867,4.4312,4.6985,4.9407,5.1591,5.2931,5.3849,5.4418,5.4638,5.3977,5.2454,4.8875,4.5588,4.2488,3.9485,3.6085,0.0,0.0,0.0,0.0,0.0,0.0,0.0,0.0,0.0,0.0,0.0,0.0,0.0,0.0,0.0,0.0,0.0,0.0,0.0,0.0,0.0,0.0,0.0,0.0,0.0,0.0,0.0,0.0,0.0,0.0,0.0,0.0,0.0,0.0,0.0,0.0,0.0,4.2027,4.5817,0.0,4.447,4.4201,4.4528,4.5336,4.649,4.8125,5.0375,5.1587,5.2856,5.4241,5.4857,5.5184,5.5184,5.5491,5.5357,5.4799,5.428,5.3876,5.3549,5.2702,5.2145,5.1798,5.0933,5.026,4.9644,4.7875,4.5817,4.3605,4.1931,4.1277,4.1335,4.1854,4.2239,4.2604,0.0,0.0,0.0,0.0,0.0,0.0,0.0,0.0,3.3218,3.4083,3.5911,3.8873,4.3451,4.6721,4.9837,5.2914,5.3203,5.1545,4.7599,4.3057,3.9525,3.7328,3.4808,3.5039,3.8452,4.0383,4.3369,4.7553,5.0013,5.1885,5.3225,5.4308,5.495,5.5225,5.5776,5.5702,5.5078,5.2894,4.9315,4.4911,4.2488,3.957,3.6332,0.0,0.0,0.0,0.0,0.0,0.0,0.0,0.0,0.0,0.0,0.0,0.0,0.0,0.0,0.0,0.0,0.0,0.0,0.0,0.0,0.0,0.0,0.0,0.0,0.0,0.0,0.0,0.0,0.0,0.0,0.0,0.0,0.0,0.0,4.12,4.5086,4.5913,4.9779,5.1395,4.8836,4.9125,4.9683,5.0221,5.1318,5.2702,5.4395,5.5318,5.628,5.7396,5.7434,5.7434,5.7434,5.7146,5.6703,5.6126,5.5299,5.4761,5.4472,5.3895,5.3491,5.3164,5.2587,5.1875,5.1029,5.0183,4.8663,4.6721,4.5047,4.4374,4.4412,4.4643,4.4739,4.4816,0.0,0.0,0.0,0.0,0.0,0.0,0.0,3.2314,3.3141,3.4045,3.643,3.9969,4.5066,4.9433,5.301,5.5549,5.4164,5.2087,4.9567,4.222,3.7603,3.6762,3.5401,3.6119,3.924,4.3723,4.7645,5.0949,5.3316,5.4895,5.5666,5.5684,5.6106,5.684,5.6895,5.6914,5.6895,5.6914,5.3702,4.8398,4.5902,4.3883,4.1846,0.0,0.0,0.0,0.0,0.0,0.0,0.0,0.0,0.0,0.0,0.0,0.0,0.0,0.0,0.0,0.0,0.0,0.0,0.0,0.0,0.0,0.0,0.0,0.0,0.0,0.0,0.0,0.0,0.0,0.0,0.0,0.0,0.0,4.0546,4.5047,4.8606,4.9529,5.3299,5.4857,5.2395,5.3645,5.4626,5.4626,5.6145,5.7069,5.7069,5.7896,5.8377,5.8377,5.8377,5.8357,5.8338,5.7492,5.7049,5.6973,5.6126,5.5318,5.453,5.453,5.4087,5.328,5.326,5.276,5.1895,5.1068,5.0221,4.926,4.7586,4.6932,4.6797,4.5951,4.5605,4.5586,0.0,0.0,0.0,0.0,0.0,0.0,3.0794,3.0948,3.1621,3.3064,3.6584,4.0873,4.599,5.0875,5.4818,5.7357,5.4318,5.1333,4.9185,4.1524,3.711,3.7201,3.8188,4.1017,4.6011,4.7721,5.0435,5.4271,5.5537,5.6547,5.7354,5.7941,5.8015,5.7721,5.8896,5.9098,5.8602,5.9171,5.7831,5.4968,5.0802,4.7095,4.3789,0.0,0.0,0.0,0.0,0.0,0.0,0.0,0.0,0.0,0.0,0.0,0.0,0.0,0.0,0.0,0.0,0.0,0.0,0.0,0.0,0.0,0.0,0.0,0.0,0.0,0.0,0.0,0.0,0.0,0.0,0.0,4.1258,4.3951,4.4162,4.8586,5.2568,5.4645,5.7011,5.8184,5.7492,5.7319,5.7261,5.7261,5.8223,5.88,5.88,5.9646,6.0108,6.0108,6.0108,5.98,5.9184,5.8934,5.8204,5.6992,5.6761,5.6203,5.5376,5.5376,5.5241,5.4972,5.4395,5.3645,5.2779,5.1933,5.1087,5.0164,4.8432,4.7413,4.6874,4.6624,4.6144,4.5586,0.0,0.0,0.0,0.0,0.0,0.0,3.0398,3.0398,3.1006,3.2679,3.693,4.147,4.5874,5.0587,5.401,5.5491,5.2068,4.8702,4.6107,4.0307,3.7525,3.8729,4.1389,4.4962,4.9547,5.1253,5.3408,5.6106,5.6914,5.7721,5.851,5.8988,5.9134,5.9061,6.0346,6.0456,5.9795,6.0933,6.0493,5.8767,5.5959,5.2601,4.893,4.6063,4.3947,4.239,4.1444,4.0626,3.9872,3.9062,0.0,0.0,0.0,0.0,0.0,0.0,0.0,0.0,0.0,0.0,0.0,0.0,0.0,0.0,0.0,0.0,0.0,0.0,0.0,0.0,0.0,0.0,0.0,0.0,4.572,4.8875,5.0664,5.3164,5.5607,5.778,5.9223,6.0031,6.0031,5.9627,5.9358,5.9358,5.9781,6.0031,6.0031,6.0512,6.08,6.08,6.08,6.055,6.005,5.9685,5.9011,5.803,5.7703,5.7088,5.6242,5.6242,5.6049,5.5665,5.5203,5.4511,5.3683,5.2799,5.1952,5.1029,0.0,0.0,0.0,0.0,4.6028,4.5586,0.0,0.0,0.0,0.0,0.0,0.0,3.0398,3.0398,3.1006,3.2679,3.7161,4.145,4.4662,4.8798,5.1414,5.1606,4.8548,4.5201,4.1873,3.9185,3.8839,4.128,4.4879,4.8218,5.1261,5.4216,5.6124,5.695,5.7648,5.8419,5.9208,5.93,5.9777,6.0566,6.1465,6.1484,6.0915,6.2456,6.2218,6.0805,6.0713,5.8694,5.5244,5.082,4.9334,4.9299,4.6699,4.4249,4.2224,4.1725,0.0,0.0,0.0,0.0,0.0,0.0,0.0,0.0,0.0,0.0,0.0,0.0,0.0,0.0,0.0,0.0,0.0,0.0,0.0,0.0,0.0,0.0,0.0,0.0,5.0279,5.3876,5.7877,5.7934,5.8127,5.9627,6.0396,6.08,6.08,6.0877,6.0916,6.08,6.0877,6.0896,6.08,6.08,0.0,0.0,0.0,6.08,6.08,6.0031,5.9608,5.9492,5.8781,5.7973,5.7146,5.7146,5.6665,5.5838,5.5838,5.5318,5.4434,5.3568,5.2626,5.1625,5.0029,4.8875,4.7913,4.6336,4.5682,4.5586,0.0,0.0,0.0,0.0,0.0,0.0,3.0398,3.0398,3.1006,3.2679,3.6161,3.9238,4.1258,4.5297,4.8413,4.9779,4.6778,4.3643,4.0931,4.0106,4.1528,4.5519,4.8433,5.1434,5.4583,5.5923,5.6969,5.7776,5.7923,5.8419,5.9226,5.9869,6.0603,6.1429,6.2934,6.3521,6.3447,6.442,6.4255,6.3319,6.2622,6.0034,5.64,5.4803,5.2674,5.0472,4.9908,4.899,4.7924,4.7441,4.6084,4.4274,4.2541,3.9107,0.0,0.0,0.0,0.0,0.0,0.0,0.0,0.0,0.0,0.0,0.0,0.0,0.0,0.0,0.0,0.0,0.0,0.0,0.0,5.0375,5.3799,5.678,5.8954,6.0319,6.1223,6.155,6.1127,6.08,6.08,6.1435,6.155,6.0839,6.1435,6.1531,6.0839,6.08,6.08,6.08,6.08,6.08,6.08,6.0627,6.0204,5.9492,5.9338,0.0,5.805,5.805,5.7569,5.6742,5.6742,5.5876,5.4434,5.3568,5.2299,5.0818,4.9798,4.8875,4.799,4.7009,4.6201,4.5586,0.0,0.0,0.0,0.0,0.0,0.0,3.0321,3.0398,3.0871,3.2141,3.5257,3.768,3.8507,4.1643,4.3701,4.3701,4.1564,4.0319,4.0489,4.1889,4.4885,4.9796,5.2065,5.4326,5.6748,5.7189,5.7593,5.7997,5.84,5.9024,5.9832,6.1043,6.2053,6.2915,6.4567,6.5081,6.4787,6.5999,6.5797,6.4659,6.4237,6.2108,5.9061,5.7868,5.5647,5.3188,5.3188,5.1903,5.0163,4.9934,4.8547,4.6731,4.5415,4.2667,3.9277,0.0,0.0,0.0,0.0,0.0,0.0,0.0,0.0,0.0,0.0,0.0,0.0,0.0,0.0,4.322,0.0,0.0,5.1798,5.5164,5.7146,5.9146,6.1685,6.207,6.2089,6.2089,6.207,6.1897,6.1493,6.2204,6.2339,6.1512,6.2224,6.232,6.1493,6.1435,6.1243,6.08,6.08,6.08,6.08,6.08,6.0569,6.0146,6.0146,5.9704,5.8896,5.8896,5.8204,5.6992,5.6992,5.628,5.4991,5.3722,5.2452,5.1221,5.0375,4.951,4.8606,4.7355,4.6624,4.6182,0.0,0.0,0.0,0.0,0.0,0.0,0.0,3.0398,3.0717,3.1583,3.4199,3.5968,3.5968,3.795,3.8719,3.7373,3.7077,3.8211,4.1159,4.4244,4.8287,5.3474,5.5479,5.7011,5.8217,5.8382,5.8474,5.8474,5.9134,5.985,6.0658,6.2126,6.3356,6.4402,6.5852,6.6237,6.5852,6.7136,6.6861,6.5521,6.5191,6.3668,6.141,5.9648,5.7574,5.5556,5.5244,5.2949,5.0123,5.027,4.9067,4.7411,4.6838,4.5594,4.3373,3.8613,3.7458,0.0,0.0,0.0,0.0,0.0,0.0,0.0,0.0,3.9238,4.0739,4.3451,4.5778,4.8221,5.1125,5.3741,5.6357,5.9069,5.9915,6.1146,6.3743,6.3224,6.2512,6.2339,6.2762,6.2878,6.2377,6.2916,6.3031,6.2377,6.2935,6.2954,6.2127,6.1935,6.1531,6.0819,6.08,6.08,6.08,6.08,6.08,6.08,6.08,6.0435,5.9742,5.9742,5.8915,5.7453,5.7126,5.6415,5.5357,5.401,5.2837,5.1856,5.1183,5.0414,4.9452,4.7759,4.7028,4.6778,0.0,0.0,0.0,0.0,0.0,0.0,0.0,0.0,3.0717,3.1583,3.266,3.3333,3.3333,3.4276,3.4834,3.4641,3.7704,4.1016,4.4211,4.7337,5.1136,5.5677,5.8148,5.9326,5.9079,5.9777,6.0126,6.0126,6.0236,6.0676,6.1484,6.2383,6.3668,6.5209,6.6109,6.6843,6.743,6.7614,6.7173,6.6237,6.4806,6.3172,6.1337,5.9024,5.7079,5.5409,5.3977,5.0912,4.7627,4.8343,4.7977,4.7224,4.7803,4.7316,4.5825,4.2221,3.9112,3.6546,3.5161,3.4507,3.4911,3.7853,3.8142,3.97,0.0,4.7952,4.7913,5.1241,5.2779,5.3837,5.4934,5.7223,5.9069,5.9435,6.1396,6.2762,6.2416,6.3493,6.4032,6.3262,6.2608,6.2474,6.3108,6.3262,6.3262,6.3166,6.3262,6.2954,6.2127,6.1358,6.0896,6.08,6.08,6.08,6.08,6.08,6.08,6.08,6.08,6.0742,6.0646,6.0646,6.0127,5.9146,5.7646,5.6088,5.4626,5.4434,5.3376,5.1895,5.1798,5.1279,5.0337,4.8606,4.7509,4.6778,0.0,0.0,0.0,0.0,0.0,0.0,0.0,0.0,0.0,3.014,3.1352,3.2006,3.1506,3.1775,3.1987,3.1987,3.6026,4.0082,4.3618,4.8339,5.2798,5.6852,5.8877,5.9817,5.9597,6.0437,6.072,6.0401,6.1182,6.1588,6.163,6.2934,6.4182,6.5356,6.6145,6.6953,6.765,6.7192,6.6806,6.6311,6.42,6.264,6.1282,5.84,5.5721,5.3353,5.2215,4.9187,0.0,4.6636,4.6379,4.5937,4.7173,4.6265,4.4267,4.1825,4.0061,3.9065,3.9738,3.9662,3.995,4.2374,4.3797,4.5701,4.976,5.0894,5.176,5.4164,5.5742,5.6953,5.7761,5.9204,6.0589,0.0,6.18,6.2416,6.407,6.3628,6.3185,6.3301,6.2589,6.2224,6.257,6.3031,6.3108,6.2647,6.3051,6.3147,6.282,6.2012,6.155,6.155,6.155,6.155,6.155,6.155,6.155,6.155,6.1031,6.08,6.08,6.08,6.0069,5.8723,5.7511,5.6299,5.5164,5.4684,5.4068,5.3318,5.2299,5.1702,5.1183,4.949,4.8644,4.8163,0.0,0.0,0.0,0.0,0.0,0.0,0.0,0.0,0.0,0.0,3.041,3.1102,3.0456,3.0398,3.0398,3.0398,3.4182,3.8301,4.2294,4.7815,5.275,5.6871,5.9131,6.0393,6.0553,6.1414,6.1619,6.1062,6.1809,6.1883,6.13,6.2732,6.3723,6.4328,6.5375,6.6145,6.6659,6.6311,6.5907,6.5283,6.3044,6.1263,5.9557,5.6124,5.2674,4.9609,4.926,4.6507,4.3039,4.2928,4.2868,4.3023,4.4026,4.3583,4.241,4.1279,4.0883,4.1085,4.2104,4.3066,4.4316,4.6471,4.8913,5.1164,5.2491,5.3914,5.5357,5.6799,5.8107,5.9088,5.9435,6.0416,6.1396,6.2127,6.2012,6.2551,6.457,6.3455,6.2474,6.2608,6.1877,6.1377,6.1377,6.2339,6.282,6.2454,6.2974,6.3301,6.3301,6.2743,6.2416,6.2416,6.2416,6.2416,6.2416,6.2204,6.2089,6.2089,6.1223,6.08,6.08,6.08,5.9896,5.8261,5.7627,5.6722,5.5645,5.5068,5.4703,5.4357,5.2856,5.2125,5.1741,5.0298,4.9606,4.9183,0.0,0.0,0.0,0.0,0.0,0.0,0.0,0.0,0.0,0.0,0.0,0.0,0.0,3.0398,3.0398,3.0398,3.2795,3.6243,4.0872,4.559,5.044,5.5433,5.926,6.1565,6.2191,6.3066,6.3261,6.275,6.1961,6.119,6.0456,6.1282,6.1686,6.1777,6.3429,6.4182,6.4255,6.5026,6.4402,6.2787,6.1135,5.8584,5.5335,5.1316,4.7278,4.3846,4.4617,4.2304,3.8524,3.6109,3.6583,3.8037,3.7623,3.9245,4.1335,4.166,4.1761,4.1585,4.0777,4.2989,4.6317,4.9702,5.2452,5.4991,5.7511,5.8704,5.9569,6.0454,6.0685,6.0473,5.9646,6.0896,6.1512,5.9877,6.2358,6.3955,6.2416,6.282,6.2666,6.1069,6.0108,5.9588,5.9588,6.1127,6.2454,6.3224,6.3301,6.3301,6.3301,6.3281,6.3262,6.3262,6.3262,6.3262,6.3262,6.2493,6.2089,6.2089,6.1223,6.08,6.08,6.08,5.9896,5.83,5.828,5.728,5.5703,5.5665,5.5203,5.4414,5.351,5.2645,5.1798,5.0971,5.0125,4.926,0.0,0.0,0.0,0.0,0.0,0.0,0.0,0.0,0.0,0.0,0.0,0.0,0.0,0.0,0.0,0.0,3.2737,3.5331,3.8008,4.338,4.7684,5.0493,5.587,5.8867,5.9129,6.164,6.2278,6.0863,6.0957,6.025,5.8804,5.9079,5.9777,6.0823,6.1392,6.2236,6.3191,6.2401,6.2034,6.1686,5.7923,5.6088,5.5023,4.9903,4.5443,4.1589,0.0,3.6725,3.455,3.3869,3.4111,3.4833,3.5878,3.657,3.7414,3.9525,4.1335,4.322,4.572,4.8471,5.1452,5.4895,5.7223,5.9204,6.1166,6.1416,6.1127,6.0858,5.9454,5.8011,5.7146,5.7011,5.7415,5.8531,5.9665,6.1012,6.2666,6.2666,6.1858,6.0146,6.0704,6.055,5.8877,5.9723,6.0723,6.1589,6.2185,6.2743,6.3281,6.3301,6.357,6.4147,6.3608,6.3301,6.3301,6.2493,6.2089,6.2089,6.1223,6.08,6.0781,6.0204,5.9338,5.828,5.7684,5.678,5.5703,5.5703,5.553,5.5203,5.4395,5.353,5.2741,5.2452,5.1471,5.0144,0.0,0.0,0.0,0.0,0.0,0.0,0.0,0.0,0.0,0.0,0.0,0.0,0.0,0.0,0.0,0.0,0.0,3.3699,3.568,3.995,4.3585,4.6201,5.076,5.3595,5.4313,5.6207,5.6677,5.5622,5.6161,5.5828,5.468,5.5177,5.5978,5.6987,5.7281,5.7978,5.8896,5.8143,5.7611,5.695,5.328,5.1242,4.9884,4.5076,4.091,0.0,3.3697,3.1586,3.0491,3.0641,3.1421,3.2491,3.3648,3.5363,3.7266,3.9173,4.2181,4.5759,4.9683,5.2626,5.5453,5.9165,6.0896,6.1973,6.3051,6.2435,6.1223,5.9742,5.7877,5.6088,5.4607,5.3914,5.4318,5.6569,5.7184,5.855,6.1935,6.1685,6.0858,6.0069,6.0416,6.0204,5.8858,5.9204,5.9858,6.0723,6.1858,6.2743,6.3281,6.3897,6.4493,6.5051,6.4224,6.3762,6.3762,6.2647,6.1935,6.1627,6.1069,6.08,6.0762,5.9896,5.9069,5.8261,5.7376,5.6511,5.5703,5.5703,5.5703,5.5607,5.4799,5.4164,5.3626,5.3318,5.2529,5.1471,0.0,0.0,0.0,0.0,0.0,0.0,0.0,0.0,0.0,0.0,0.0,0.0,0.0,0.0,0.0,0.0,0.0,0.0,3.3776,3.5584,3.8392,4.247,4.4412,4.6301,4.8207,4.7642,4.7439,4.7679,4.8211,4.8412,4.8375,4.9748,5.042,5.0493,5.1301,5.1669,5.1761,5.2417,5.1371,4.9095,4.7388,4.4433,4.0689,3.7422,3.4183,3.1042,2.8676,2.7298,2.6599,2.6744,2.8856,3.1388,3.1462,3.5725,4.0719,4.0893,4.4489,4.9163,5.2549,5.5357,5.83,6.2358,6.3378,6.3358,6.332,6.1935,5.9954,5.7396,5.603,5.453,5.1991,5.1587,5.2241,5.401,5.5088,5.6915,6.0377,6.0185,5.9973,0.0,0.0,0.0,0.0,5.9646,6.005,6.0877,6.2397,6.332,6.3358,6.4936,6.582,6.582,6.4993,6.4512,6.4474,6.2839,6.1608,6.08,6.08,6.08,6.0762,5.9896,5.9069,5.8261,5.7376,5.6511,5.5703,5.5703,5.5703,5.5607,5.4857,5.453,5.4395,5.3626,5.328,5.3087,0.0,0.0,0.0,0.0,0.0,0.0,0.0,0.0,0.0,0.0,0.0,0.0,0.0,0.0,0.0,0.0,0.0,0.0,3.0352,3.3179,3.5334,3.6411,4.0527,4.2996,4.3521,4.5189,4.5642,4.4757,4.4909,4.4474,4.3594,4.4599,4.5388,4.6004,4.6613,4.7215,4.7679,4.647,4.5957,4.5645,4.2213,4.0598,3.9803,3.6085,3.3019,3.0509,2.8837,2.7342,2.6499,2.8814,3.2765,3.6881,3.7797,4.0502,4.3835,4.6374,4.9856,5.3472,5.6261,5.93,6.2108,6.3839,6.4282,6.4109,6.3455,6.105,5.8204,5.5665,5.2414,4.926,4.6701,4.7298,4.8952,5.1279,5.3933,5.7107,6.1185,6.2089,0.0,6.0916,0.0,6.2339,6.0627,6.1608,6.2435,6.2647,6.307,6.3589,6.4224,6.4686,6.4936,6.4936,6.4089,6.3339,6.2743,6.1666,6.1012,6.08,6.08,6.08,6.0762,5.9896,5.9069,5.8261,5.7376,5.6511,5.5703,5.5703,5.5703,5.5684,5.5472,5.503,5.4549,5.4914,5.428,5.326,0.0,0.0,0.0,0.0,0.0,0.0,0.0,0.0,0.0,0.0,0.0,0.0,0.0,0.0,0.0,0.0,0.0,0.0,0.0,3.0891,3.2295,3.3064,3.5488,3.6988,3.7373,3.8392,3.8777,3.8438,3.8632,3.8565,3.8267,3.9352,4.0089,4.0532,4.084,4.1455,4.2126,4.0707,3.9933,0.0,0.0,3.5736,3.4606,3.2434,3.0314,2.8465,2.8028,2.8942,3.0844,3.4224,3.7559,4.0665,4.2871,4.5706,4.8798,5.1837,5.5164,5.83,6.0473,6.3262,6.557,6.5667,6.5147,6.3993,6.1647,5.88,5.5472,5.1433,4.8375,4.5643,4.3104,4.3739,4.574,0.0,0.0,0.0,6.0262,6.1358,6.157,0.0,6.2627,0.0,6.1512,6.2551,6.3301,6.3301,6.3647,6.3916,6.4032,6.4397,6.4416,6.4051,6.3205,6.2377,6.1531,6.1031,6.08,6.08,6.08,6.08,6.0762,5.9896,5.9069,5.8261,5.7376,5.6511,5.5703,5.5703,5.5703,5.5703,5.5703,5.5415,5.5068,5.553,5.5107,5.4318,0.0,0.0,0.0,0.0,0.0,0.0,0.0,0.0,0.0,0.0,0.0,0.0,0.0,0.0,0.0,0.0,0.0,0.0,0.0,0.0,2.966,3.1275,3.0641,3.0641,3.1506,3.0794,3.0775,3.1525,3.1813,3.2352,3.3113,3.4281,3.4837,3.4816,3.4908,3.5359,3.602,3.5108,3.3979,3.2801,3.2691,3.0942,2.8383,0.0,2.7333,2.6144,2.6983,3.0727,3.591,4.0062,4.2385,4.4094,4.7495,5.1111,5.453,5.6973,5.9935,6.2762,6.4339,6.6551,6.8167,6.7186,6.559,6.3166,5.8915,5.5722,5.2049,4.6432,4.4393,4.2893,4.045,4.0989,4.3124,4.7124,0.0,5.276,5.8665,5.9492,6.0146,6.1877,6.2185,6.2262,6.2262,6.2897,6.3358,6.3474,6.407,6.4109,6.3339,6.3916,6.3916,6.3166,6.2339,6.1608,6.0973,6.0858,6.08,6.08,6.08,6.08,6.0762,5.9896,5.9069,5.8261,5.7376,5.6511,5.5703,5.5703,5.5703,5.5703,5.5703,5.5703,5.5703,5.5703,5.5703,5.5568,0.0,0.0,0.0,0.0,0.0,0.0,0.0,0.0,0.0,0.0,2.6428,2.5572,0.0,0.0,0.0,0.0,0.0,0.0,0.0,0.0,0.0,2.9506,2.941,2.9737,3.0621,3.0475,3.0456,3.0641,2.999,2.9754,2.9908,3.0139,3.0247,3.0272,3.0769,3.1073,3.1149,3.0111,2.9889,3.0189,2.951,2.8906,2.8357,2.785,0.0,0.0,2.74,2.9598,3.2968,3.9166,4.5074,5.0331,5.3344,5.6179,5.8781,6.0646,6.2608,6.4397,6.5397,6.7013,6.8032,6.6494,6.4301,6.1396,5.7126,5.2549,4.8125,4.4316,4.1739,3.9585,3.7719,3.9796,4.2739,4.5566,4.8663,5.276,5.8665,5.9492,6.0146,0.0,6.2685,6.3089,6.3089,6.3224,6.3608,6.432,6.3858,6.3474,6.332,6.2801,6.2454,6.23,6.1473,6.13,6.1858,6.1146,6.08,6.08,6.08,6.08,6.0762,5.9896,5.9069,5.8261,5.7376,5.6511,5.5703,5.5703,5.5703,5.5703,5.5703,5.5703,5.5703,5.5703,5.5703,5.5568,0.0,0.0,0.0,0.0,0.0,0.0,0.0,2.6687,2.7475,2.9602,2.9159,2.814,2.6794,2.5851,2.5303,0.0,0.0,0.0,0.0,0.0,0.0,2.8429,2.8467,2.8659,2.9083,2.9102,2.9102,2.9102,0.0,2.7794,2.7794,2.7794,2.7794,2.7813,2.8095,2.8479,2.8843,2.7859,2.7684,2.8041,2.8112,2.7597,2.6797,2.6974,0.0,0.0,2.853,3.0753,3.3527,3.8527,4.4442,5.0498,5.525,5.8626,6.1185,6.2897,6.4589,6.609,6.6955,6.8417,6.9186,6.7051,6.3955,5.9954,5.4357,4.9471,4.4913,4.0662,3.8796,3.7565,3.6315,3.8142,4.0816,4.3816,4.6028,4.9606,5.5992,5.6896,5.7857,6.0435,6.1897,6.2685,6.2685,6.3051,6.3301,6.3301,6.2916,6.2685,6.2685,6.1877,6.1416,6.1416,6.1012,6.0993,6.1416,6.1012,6.0569,6.0127,6.0569,6.055,6.0127,6.0165,5.9723,5.8896,5.8473,5.7569,5.6376,5.6376,5.6107,5.5703,5.5703,5.5703,5.5703,5.5703,5.5703,5.5568,0.0,0.0,0.0,0.0,0.0,0.0,0.0,2.7873,2.8972,3.1628,3.1532,3.0552,2.889,2.7159,2.589,0.0,0.0,0.0,0.0,0.0,0.0,0.0,0.0,0.0,2.789,0.0,0.0,2.789,2.7024,0.0,0.0,0.0,0.0,0.0,2.6332,2.6697,2.7294,2.6621,2.6428,0.0,0.0,2.6794,2.5649,0.0,0.0,0.0,0.0,3.1256,3.366,3.7276,4.1816,4.7011,5.3173,5.7944,6.157,6.307,6.5089,6.7032,6.7898,6.936,7.0033,6.7475,6.3531,5.8531,5.1933,4.6817,4.2143,3.743,3.6295,3.5968,3.5353,3.6584,3.8777,4.2027,4.3393,4.6297,5.2779,5.4164,5.5684,5.8858,6.0762,6.1877,6.207,6.2493,6.2589,6.2127,6.1916,6.182,6.182,6.1166,6.08,6.08,6.08,6.08,6.08,6.0608,6.0185,5.9511,6.0012,5.9915,5.9281,5.9954,5.9896,5.9223,5.905,5.8223,5.6973,5.6799,5.6319,5.5703,5.5703,5.5703,5.5703,5.5703,5.5703,5.5568,0.0,0.0,0.0,0.0,0.0,0.0,0.0,2.7584,2.9236,3.2449,3.0925,3.0004,3.1205,2.9794,2.7813,0.0,0.0,0.0,0.0,0.0,0.0,0.0,0.0,0.0,0.0,0.0,0.0,2.789,2.7024,0.0,0.0,0.0,0.0,0.0,0.0,2.5457,2.5534,2.5437,0.0,0.0,0.0,0.0,0.0,0.0,0.0,0.0,0.0,2.8756,3.0198,3.443,3.7219,3.9835,4.5068,5.2201,5.8819,5.9704,6.2839,6.6186,6.6994,6.8494,6.9206,6.6647,6.2243,5.6953,5.0894,4.5009,3.9854,3.6334,3.4988,3.441,3.4334,3.5699,3.768,4.0296,4.2124,4.5047,5.0298,5.3029,5.5472,5.8107,5.9896,6.1223,6.2012,6.1454,6.132,6.205,6.1358,6.0916,6.0916,6.0839,6.08,6.08,6.08,6.08,6.08,6.0012,5.9588,5.9492,5.8838,5.8492,5.8415,5.8492,5.8492,5.8377,5.7569,5.7126,5.6934,5.6145,5.5761,5.5703,5.5703,5.5703,5.5703,5.5703,5.5703,5.5568,0.0,0.0,0.0,0.0,0.0,0.0,2.7376,2.7902,2.9335,3.2637,3.2196,3.1851,3.2532,3.1001,2.8698,2.5572,0.0,0.0,0.0,0.0,0.0,0.0,0.0,0.0,0.0,0.0,2.6351,2.6332,2.5986,0.0,0.0,0.0,0.0,0.0,0.0,2.5303,2.5303,2.5303,0.0,0.0,0.0,0.0,0.0,0.0,0.0,0.0,0.0,0.0,2.9429,3.1679,3.4237,3.6757,3.8257,4.3162,4.9452,5.4895,5.9127,6.2685,6.559,6.7628,6.8436,6.6417,6.1666,5.5953,4.9971,4.4028,3.8815,3.5411,3.443,3.4199,3.4199,3.518,3.6815,3.9354,3.9488,4.1219,4.6836,4.849,5.0856,5.5472,5.7492,5.9242,6.1127,6.0993,6.0935,6.1281,6.0993,6.08,6.08,6.08,6.08,6.08,6.08,6.08,6.08,5.9935,5.9261,5.8781,5.8454,5.83,5.8319,5.88,5.9319,5.9781,5.9435,5.8992,5.8473,5.8127,5.7396,5.6472,5.6472,5.6145,5.5703,5.5703,5.5703,5.5645,0.0,0.0,0.0,0.0,0.0,2.617,2.7563,2.8039,2.9234,3.203,3.2182,3.2144,3.2396,3.0612,2.8425,2.5957,2.5466,0.0,0.0,0.0,0.0,0.0,0.0,0.0,0.0,0.0,2.5303,2.5303,2.5553,2.5553,0.0,0.0,2.5553,2.5303,0.0,0.0,0.0,0.0,0.0,0.0,0.0,0.0,0.0,0.0,0.0,0.0,0.0,0.0,0.0,0.0,0.0,3.3545,3.3199,3.5872,4.0835,4.9375,5.478,5.8896,6.2916,6.5243,6.6186,6.4743,5.9915,5.4049,4.8606,4.2777,3.7623,3.4468,3.3814,3.3814,3.3814,3.4737,3.618,3.82,3.793,3.92,4.4162,4.5701,4.8086,5.2818,5.4857,5.6876,5.9415,6.0358,6.08,6.08,6.08,6.08,6.08,6.08,6.08,6.08,6.08,6.0685,6.0416,5.9569,5.8723,5.7915,5.7646,5.753,5.7569,5.8377,5.9088,5.9685,5.9954,5.9569,5.8761,5.8761,5.7915,5.6607,5.6607,5.6242,5.5703,5.5703,5.5549,5.5338,0.0,0.0,0.0,0.0,0.0,0.0,2.6875,2.7734,2.8887,3.0508,3.0034,2.9826,3.0554,2.8365,2.6817,2.6786,2.5861,0.0,0.0,0.0,0.0,0.0,0.0,0.0,0.0,0.0,2.5303,2.5303,2.6159,2.6159,2.5322,2.6178,2.614,2.5303,0.0,0.0,0.0,0.0,0.0,0.0,0.0,0.0,0.0,0.0,0.0,0.0,0.0,0.0,0.0,0.0,0.0,0.0,0.0,3.1621,3.4661,4.3181,4.9894,5.528,5.8646,6.0839,6.1935,6.1069,5.6376,5.0837,4.6586,4.1008,3.6007,3.3449,3.291,3.291,3.291,3.4334,3.5776,3.6603,3.8161,4.0181,4.2758,4.599,4.874,5.0529,5.2222,5.4241,5.678,5.9319,6.08,6.08,6.08,6.08,6.08,6.08,6.08,6.08,6.08,6.0396,5.9511,5.8704,5.7877,5.6992,5.6126,5.5722,5.5761,5.6626,5.703,5.7088,5.7953,5.7838,5.703,5.703,5.6511,5.5703,5.5703,5.5703,5.5703,5.5703,5.5203,5.4511,0.0,0.0,0.0,0.0,0.0,0.0,0.0,2.6348,2.6914,2.8027,2.7942,2.8329,2.9753,2.8094,2.7135,2.7779,2.6366,0.0,0.0,0.0,0.0,0.0,0.0,0.0,0.0,0.0,2.5726,2.6333,2.6602,2.691,2.7198,2.6891,2.6583,2.6294,2.5707,2.5409,0.0,0.0,0.0,0.0,0.0,0.0,0.0,0.0,0.0,0.0,0.0,0.0,0.0,0.0,0.0,0.0,0.0,0.0,0.0,3.668,4.2412,4.8259,5.1664,5.3433,5.4087,5.3222,4.9837,4.5759,4.2124,3.8488,3.5161,3.2602,3.2083,3.2256,3.2795,3.3833,3.5449,3.8065,3.8931,4.0181,4.2739,4.4989,0.0,5.1106,5.5588,5.8704,5.9511,6.0319,6.055,5.9954,6.0454,6.0531,5.9935,6.0473,6.08,6.08,6.0223,5.9781,5.9492,5.8107,5.7261,5.6973,5.6107,5.6011,5.6588,5.6857,5.7319,5.7896,5.8184,5.8146,5.7896,5.7896,5.7376,5.6588,5.6588,5.6222,5.5703,5.5703,5.5184,5.4491,0.0,0.0,0.0,0.0,0.0,0.0,0.0,2.5703,2.5898,2.6445,2.6504,2.7044,2.8461,2.7316,2.6821,2.7737,2.6432,0.0,0.0,0.0,0.0,0.0,0.0,0.0,2.5503,2.5503,2.5936,2.6804,2.7458,2.8059,2.8584,2.8689,2.8205,2.7276,2.6726,2.6099,0.0,0.0,0.0,0.0,0.0,0.0,2.5303,0.0,0.0,0.0,0.0,0.0,0.0,0.0,0.0,0.0,0.0,0.0,0.0,0.0,3.5988,4.0566,4.5259,4.7163,4.7702,4.7163,4.4701,4.1681,3.8931,3.6353,3.3987,3.2083,3.1698,3.1852,3.2352,3.341,3.4891,3.7026,3.818,3.9585,4.1816,4.3855,0.0,5.0491,5.5645,5.8761,5.8454,5.9569,5.9954,5.9108,5.955,5.9627,5.9088,5.9858,6.0165,5.9877,5.9935,5.9531,5.8569,5.7838,5.7146,5.6492,5.5953,5.5972,5.6511,5.6511,5.6799,5.7338,5.7665,5.7627,0.0,5.7665,5.73,5.6511,5.6511,5.6184,5.5703,5.5703,5.4972,5.401,0.0,0.0,0.0,0.0,0.0,0.0,0.0,2.5703,2.5703,2.5703,2.5703,2.6016,2.6816,2.6172,2.6035,2.6836,0.0,0.0,0.0,0.0,0.0,0.0,0.0,0.0,2.5503,2.5503,2.5935,2.6816,2.8559,2.944,2.9537,3.1217,3.0653,2.8208,2.8208,2.721,0.0,0.0,0.0,0.0,0.0,0.0,0.0,0.0,0.0,0.0,0.0,0.0,0.0,0.0,0.0,0.0,0.0,0.0,0.0,0.0,0.0,0.0,0.0,4.1585,4.2354,4.2239,4.0412,3.82,3.6469,3.4295,0.0,3.1679,3.1525,3.1602,3.191,3.3141,3.4237,3.4661,3.6661,3.8777,4.0527,4.3124,0.0,0.0,5.3356,5.5568,5.4761,5.755,5.9088,5.828,5.8261,5.828,5.8204,5.8973,5.905,5.8223,5.9781,5.9454,5.7011,5.7742,5.73,5.5703,5.5703,5.5703,5.5703,5.5703,5.5703,5.5742,5.6549,5.6434,5.5761,5.6569,5.6415,5.5703,5.5703,5.5665,5.5607,5.5607,5.4549,5.3106,0.0,0.0,0.0,0.0,0.0,0.0,0.0,0.0,0.0,0.0,2.5703,2.5781,2.5977,2.582,2.5781,0.0,0.0,0.0,0.0,0.0,0.0,0.0,0.0,0.0,2.5659,2.5659,2.6089,2.6948,2.8706,2.9898,3.0581,3.2261,3.1693,2.9253,2.9253,2.7886,0.0,0.0,0.0,0.0,0.0,0.0,0.0,0.0,0.0,0.0,2.5303,2.5303,0.0,0.0,0.0,0.0,0.0,0.0,0.0,0.0,2.8621,2.914,3.0737,0.0,3.4988,3.3718,3.2929,3.2045,0.0,2.9987,2.9929,2.9756,2.9698,3.0717,3.4007,3.3833,3.4699,3.9277,3.995,4.0719,4.3085,4.7278,0.0,5.2125,5.5491,5.7357,5.6492,5.7723,5.8223,5.7357,5.7915,5.8011,5.7338,5.8127,5.8184,5.7319,5.8338,5.828,5.6992,5.653,5.6107,5.5703,5.5703,5.5703,5.5703,5.5703,5.5703,5.5703,5.5915,5.5876,5.5722,5.5915,5.5876,5.5703,5.5703,5.5318,5.478,5.478,5.3683,5.2222,0.0,0.0,0.0,0.0,0.0,0.0,0.0,0.0,0.0,0.0,0.0,0.0,0.0,0.0,0.0,0.0,0.0,0.0,0.0,0.0,0.0,0.0,0.0,2.5703,2.5703,2.5703,2.6328,2.7598,2.8945,3.0644,3.2656,3.3574,3.2851,3.0703,2.8691,2.6992,0.0,0.0,0.0,0.0,2.5466,0.0,0.0,0.0,0.0,0.0,2.5303,2.5303,0.0,2.6313,2.6332,2.6159,0.0,0.0,0.0,0.0,2.7294,2.739,2.7794,3.0083,3.2141,3.1218,3.1275,3.1218,2.9929,2.9352,2.9102,2.9102,2.9102,3.0044,3.3179,3.3295,3.4334,3.8757,3.9392,4.0642,4.4374,0.0,5.1356,5.301,5.5511,5.6915,0.0,5.7184,5.7338,5.6472,5.6838,5.6896,5.6415,5.7223,5.73,5.6415,5.7242,5.728,5.6395,5.6319,5.6088,5.5703,5.5703,5.5703,5.5703,5.5703,5.5703,5.5703,5.5703,5.5703,5.5703,5.5703,5.5703,5.5665,5.528,5.4876,5.4453,5.4049,5.3049,5.1914,0.0,0.0,0.0,0.0,0.0,0.0,0.0,0.0,0.0,0.0,0.0,0.0,0.0,0.0,0.0,0.0,0.0,0.0,0.0,0.0,0.0,0.0,2.5703,2.5703,2.5703,2.5703,2.6426,2.7891,2.9316,3.1484,3.4336,3.498,3.4199,3.2012,2.7773,2.582,0.0,0.0,0.0,0.0,2.5551,0.0,0.0,0.0,0.0,0.0,0.0,0.0,0.0,2.6159,2.6005,2.5591,2.6217,0.0,0.0,0.0,0.0,0.0,2.7775,2.9852,3.1602,3.1218,3.1929,3.2449,3.1352,2.9987,2.8948,2.9063,2.9198,2.9871,3.1737,3.2852,3.4314,3.6873,3.8334,4.0796,4.5509,4.8259,5.0587,5.2741,5.4491,0.0,5.5145,5.5895,5.6107,5.5376,5.5434,5.5511,5.5511,5.6319,5.6453,5.5722,5.6415,5.6434,5.5703,5.6415,5.6415,5.5703,5.5703,5.5703,5.5703,5.5703,5.5703,5.5703,5.5703,5.5703,5.5703,5.5703,5.5703,5.5607,5.4799,5.4414,5.4203,5.3318,5.2472,5.1702,0.0,0.0,0.0,0.0,0.0,0.0,0.0,0.0,0.0,0.0,0.0,0.0,0.0,0.0,0.0,0.0,0.0,0.0,0.0,0.0,0.0,2.5703,2.5703,2.5703,2.5703,2.5703,2.582,2.6094,2.9922,3.207,3.2656,3.6309,3.5937,3.2031,2.8418,2.6387,2.5703,0.0,0.0,0.0,0.0,0.0,0.0,0.0,0.0,0.0,0.0,0.0,0.0,2.5437,2.5909,2.6294,2.5687,0.0,0.0,0.0,0.0,0.0,2.8294,3.0275,3.1179,2.9025,3.0198,3.1295,2.9006,2.8275,2.8275,2.8948,2.9698,3.0948,3.3372,3.5084,3.6949,3.9488,0.0,4.5451,0.0,0.0,5.1664,5.2049,0.0,5.4107,5.2645,5.328,5.3741,5.3587,5.426,5.4684,5.4684,5.5453,5.5838,5.5703,5.5818,5.5838,5.5703,5.5818,5.5818,5.5703,5.5703,5.5703,5.5703,5.5703,5.5703,5.5703,5.5703,5.5703,5.5703,5.5703,5.5703,5.5607,5.4799,5.4049,5.3299,5.2433,5.1587,5.0779,0.0,0.0,0.0,0.0,0.0,0.0,0.0,0.0,0.0,0.0,0.0,0.0,0.0,0.0,0.0,0.0,0.0,0.0,0.0,0.0,2.5703,2.5703,2.5703,2.5703,2.5703,2.6152,2.6855,2.7812,3.0762,3.2891,3.4277,3.4863,3.3594,3.0664,2.7637,2.6074,2.5703,2.5703,2.5703,2.5703,0.0,0.0,0.0,0.0,0.0,0.0,0.0,0.0,0.0,0.0,2.5572,2.5832,2.5418,0.0,0.0,0.0,0.0,0.0,2.6736,2.8986,3.0506,2.8409,3.0506,3.2622,3.0987,2.991,2.9602,3.0891,3.1468,3.241,3.4507,3.6276,3.8392,4.1412,0.0,4.7028,4.9106,5.0471,5.1587,0.0,0.0,5.3491,5.2683,5.2972,5.3203,5.3203,5.3568,5.3799,5.3799,5.4145,5.4357,5.4357,5.4357,5.4587,5.5049,5.5049,5.5261,5.5703,5.5703,5.5703,5.5703,5.5703,5.5703,5.5703,5.5703,5.5703,5.5665,5.5222,5.5049,5.4914,5.3606,5.2856,5.2414,5.1568,5.101,5.0567,0.0,0.0,0.0,0.0,0.0,0.0,0.0,0.0,0.0,0.0,0.0,0.0,0.0,0.0,0.0,0.0,0.0,0.0,0.0,0.0,2.5703,2.5703,2.5703,2.5801,2.5996,2.666,2.7851,2.9609,3.1523,3.3574,3.5644,3.3301,3.1152,2.9199,2.6992,2.5898,2.5703,2.5703,2.5703,2.5703,0.0,0.0,0.0,0.0,0.0,0.0,0.0,0.0,0.0,0.0,0.0,0.0,0.0,0.0,0.0,2.536,2.5303,2.5418,2.6043,2.7967,2.9602,2.8717,3.1198,3.3776,3.3314,3.2218,3.1814,3.3718,3.4257,3.4737,3.5892,3.7623,0.0,4.3431,4.5797,4.7778,4.9471,5.0433,5.1452,5.2741,5.2741,5.2529,5.2337,5.2318,5.2318,5.2318,5.2664,5.2895,5.2895,5.3087,5.3203,5.3203,5.3203,5.3626,5.4491,5.4299,5.4703,5.5703,5.5703,5.5703,5.5684,5.5491,5.5415,5.5415,5.5203,5.5107,5.5068,5.4453,5.4203,5.4049,5.251,5.1779,5.1548,5.0933,5.0567,5.0298,0.0,0.0,0.0,0.0,0.0,0.0,0.0,0.0,0.0,0.0,0.0,0.0,0.0,0.0,0.0,0.0,0.0,0.0,0.0,0.0,2.5703,2.5703,2.5703,2.6074,2.6894,2.6973,2.7851,2.9609,3.209,3.3828,3.4766,3.3008,3.084,2.8359,2.7344,2.6465,2.5703,2.5703,2.5703,2.5703,2.5703,0.0,0.0,0.0,0.0,0.0,0.0,0.0,0.0,0.0,0.0,0.0,0.0,0.0,2.6351,2.5534,2.5303,2.5832,2.8179,2.8448,2.8409,2.9871,3.1621,3.3179,3.393,3.4007,3.4622,3.7123,3.8277,3.8623,3.795,3.9854,4.2662,4.6067,4.7413,4.8625,5.0356,0.0,5.1875,5.1991,5.1337,5.0548,4.974,4.9663,4.9663,4.9663,5.1106,5.1991,5.1991,5.276,5.3203,5.3203,5.3203,5.3626,5.4491,5.3703,5.4107,5.5703,5.5703,5.5703,5.5665,5.4934,5.4587,5.453,5.3722,5.3376,5.3376,5.3318,5.3299,5.3203,5.226,5.1433,5.0779,5.0721,5.0183,4.9471,0.0,0.0,0.0,0.0,0.0,0.0,0.0,0.0,0.0,0.0,0.0,0.0,0.0,0.0,0.0,0.0,0.0,0.0,0.0,2.5664,2.5667,2.5703,2.5664,2.6074,2.6973,2.6992,2.7598,2.8789,3.084,3.2285,3.3105,3.082,2.8965,2.7441,2.6582,2.6016,2.5703,2.5703,2.5703,2.5703,2.5703,2.5703,0.0,0.0,0.0,0.0,0.0,0.0,0.0,0.0,2.5553,2.5726,2.5399,2.5534,2.5726,2.5399,2.5303,2.5514,2.6486,2.7738,2.8788,2.8844,3.0953,3.3236,3.402,3.5007,3.6622,3.9738,4.0623,4.1066,4.1797,4.1854,4.2931,4.6336,4.7586,4.8702,5.0452,5.0952,5.1144,5.1144,5.0414,4.9548,4.8682,4.9086,4.9394,4.9394,5.0491,5.1144,5.1144,5.1471,5.1645,5.1645,5.1645,5.2049,5.2876,5.2568,5.2991,5.4145,5.4145,5.4145,5.4145,5.3837,5.3683,5.3664,5.3337,5.3203,5.3164,5.2626,5.2395,5.2318,5.1471,5.1279,5.1395,5.0875,5.0798,5.0875,0.0,0.0,0.0,0.0,0.0,0.0,0.0,0.0,0.0,0.0,0.0,0.0,0.0,0.0,0.0,0.0,0.0,0.0,2.5224,2.5451,2.5596,2.5619,2.5588,2.587,2.6514,2.6534,2.7242,2.8711,2.9902,3.0644,3.0918,2.8867,2.7422,2.6562,2.5977,2.5703,2.5703,2.5703,2.5703,2.5703,2.5703,2.5703,0.0,0.0,0.0,0.0,0.0,0.0,0.0,0.0,2.537,2.5322,2.5303,2.5303,2.5303,2.5303,2.5303,2.5322,2.5322,2.6872,2.8327,2.771,3.0355,3.3446,3.4783,3.6342,3.8565,4.2239,4.322,4.3682,4.4603,4.3814,4.3951,0.0,4.774,4.8606,5.0067,5.0279,5.0183,4.9913,4.9125,4.8375,4.7778,4.8259,4.8606,4.8606,4.9394,4.999,5.026,5.0279,5.0414,5.0683,5.0702,5.1087,5.1895,5.1664,5.1952,5.2799,5.2529,5.2837,5.3587,5.3049,5.2953,5.3164,5.2645,5.2549,5.2741,5.2164,5.1914,5.1875,5.1606,5.1664,5.1875,5.1587,5.1664,5.1818,0.0,0.0,0.0,0.0,0.0,0.0,0.0,0.0,0.0,0.0,0.0,0.0,0.0,0.0,0.0,0.0,0.0,0.0,2.4302,2.5056,2.5499,2.5495,2.5506,2.5508,2.5508,2.5508,2.6835,2.957,2.957,2.9121,2.8262,2.7402,2.6523,2.5703,2.5703,2.5703,2.5703,2.5703,2.5703,2.5703,2.5703,2.5703,2.5703,0.0,0.0,0.0,0.0,0.0,0.0,0.0,2.5409,2.539,2.5322,2.5303,2.5303,2.5303,2.5341,2.5409,2.5409,2.6033,2.6738,2.6804,2.9993,3.3805,3.6424,3.8221,4.0508,4.4739,4.6297,4.6661,4.5945,4.5697,4.6144,4.7817,4.8086,4.8394,4.926,4.9375,4.9067,4.8202,4.7375,4.6894,4.6894,4.6913,4.6913,4.6913,4.7663,4.849,4.9336,4.9394,4.9779,5.0644,5.0664,5.1068,5.1875,5.1087,5.1087,5.1875,5.1087,5.201,5.4414,5.2683,5.2375,5.3087,5.1414,5.1144,5.1895,5.1895,5.1895,5.1972,5.2837,5.2664,5.201,5.2856,5.2645,5.1914,0.0,0.0,0.0,0.0,0.0,0.0,0.0,0.0,0.0,0.0,0.0,0.0,0.0,0.0,0.0,0.0,0.0,0.0,2.4306,2.5007,2.5444,2.5505,2.5455,2.5459,2.5498,2.5498,2.6221,2.7695,2.709,2.6992,2.7363,2.6484,2.5957,2.5703,2.5703,2.5703,2.5703,2.5703,2.5703,2.5703,2.5703,2.5703,2.5703,0.0,0.0,0.0,0.0,0.0,0.0,0.0,0.0,0.0,2.539,2.5755,2.6101,2.5476,2.5755,2.612,2.5495,2.647,2.7828,2.841,3.1844,3.5577,3.7486,3.9627,4.2233,4.589,4.5815,4.5411,4.6523,4.5601,0.0,4.699,4.7259,4.7548,4.8375,4.8009,4.7548,4.7298,4.6509,4.599,4.599,4.6547,4.6913,4.6913,4.7663,4.8221,4.8471,4.849,4.8606,4.8856,4.8875,4.899,4.9221,4.9606,4.9913,5.0144,5.051,5.1087,5.1798,5.1279,5.1202,5.1414,5.0914,5.0837,5.1048,5.1048,5.1048,5.1087,5.1337,5.1625,5.1875,5.1548,5.1645,5.1818,0.0,0.0,0.0,0.0,0.0,0.0,0.0,0.0,0.0,0.0,2.0949,2.1243,0.0,0.0,0.0,0.0,0.0,0.0,0.0,2.4937,2.539,2.5428,2.539,2.539,2.5428,2.5428,2.5704,2.6307,2.5793,2.5853,2.6426,2.5918,2.5664,2.5703,2.5703,2.5703,2.5703,2.5703,2.5703,2.5703,2.5703,2.5703,2.5703,0.0,0.0,0.0,0.0,0.0,0.0,0.0,0.0,0.0,2.5446,2.5774,2.6053,2.5533,2.5773,2.6082,2.5563,2.7,2.8861,2.9727,3.3462,3.7624,4.0278,4.2241,4.4097,4.6179,4.5969,4.5605,4.6429,4.5661,0.0,4.6682,4.6913,4.7067,4.7567,4.7221,4.6778,4.6413,4.5913,4.5586,4.5586,4.6086,4.6374,4.6374,4.6836,4.7259,4.7605,4.7625,4.7778,4.8086,4.8105,4.8105,4.8105,4.8625,4.9067,4.9413,4.9933,5.0356,5.0702,5.0702,5.0856,5.1183,5.1183,5.1183,5.1202,5.1548,5.1491,5.1202,5.1548,5.1818,5.1972,5.1818,5.1856,5.1933,0.0,0.0,0.0,0.0,0.0,0.0,0.0,0.0,0.0,0.0,2.0435,2.039,0.0,0.0,0.0,0.0,0.0,0.0,0.0,2.4851,2.5303,2.5303,2.5303,2.5303,2.5303,2.5303,2.5322,2.539,2.546,2.5527,2.5583,2.5605,2.5625,2.5684,2.5703,2.5703,2.5703,2.5703,2.5703,2.5703,2.5703,2.5703,2.5703,2.5703,0.0,0.0,0.0,0.0,0.0,0.0,0.0,0.0,2.5536,2.5562,2.5592,2.5534,2.5601,2.5688,2.562,2.7441,2.9641,3.0733,3.4897,3.9801,4.389,4.5276,4.5773,4.5967,4.6471,4.6682,4.6046,4.5834,4.6028,4.6778,4.6836,4.6817,4.6894,4.6836,4.649,4.5682,4.5586,4.5586,4.5586,4.5528,4.547,4.547,4.547,4.5836,4.6624,4.674,4.7124,4.7855,4.7875,4.7875,4.7875,4.7952,4.8394,4.9163,4.924,4.9702,5.0471,5.0625,5.1106,5.1798,5.1798,5.1798,5.1875,5.2664,5.2529,5.1914,5.2702,5.2606,5.2087,5.2897,5.2685,5.203,0.0,0.0,0.0,0.0,0.0,0.0,0.0,0.0,0.0,0.0,0.0,0.0,0.0,0.0,0.0,0.0,0.0,0.0,0.0,2.4851,2.5303,2.5303,2.5303,2.5303,2.5303,2.5303,2.5303,2.5322,2.5379,2.5451,2.5526,2.5581,2.5605,2.5625,2.5684,2.5703,2.5703,2.5703,2.5703,2.5703,2.5703,2.5703,2.5703,2.5703,2.5703,0.0,0.0,0.0,0.0,0.0,0.0,0.0,2.5574,2.6015,2.6384,2.5692,2.5991,2.6392,2.5712,2.6974,2.9023,3.1274,3.6268,4.1372,4.429,4.4984,4.5378,4.6673,4.6467,4.6219,4.6718,4.618,4.5913,4.6759,4.6336,4.6124,4.6797,4.6317,4.5797,4.5605,4.5586,4.5586,4.5586,4.497,4.4586,4.4586,4.4586,4.4662,4.4855,4.5509,4.5951,4.6124,4.6144,4.6144,4.6144,4.6817,4.7259,4.7451,4.8086,4.849,4.8702,5.0067,5.0779,5.0952,5.0952,5.101,5.1125,5.1318,5.1356,5.1299,5.1491,5.1453,5.1337,5.1532,5.1482,5.1328,0.0,0.0,0.0,0.0,0.0,0.0,0.0,0.0,0.0,0.0,0.0,0.0,0.0,0.0,0.0,0.0,0.0,0.0,0.0,0.0,2.5303,2.5303,2.5303,2.5303,2.5303,2.5303,2.5303,2.5303,2.5341,2.539,2.5447,2.59,2.6169,2.6211,2.6269,2.6289,2.6309,2.5879,2.5703,2.5703,2.5703,2.5703,2.5703,2.5703,2.5703,2.5703,2.5703,0.0,0.0,0.0,0.0,0.0,0.0,0.0,2.6186,2.5737,2.5927,2.6175,2.5715,2.6899,2.926,3.3531,3.7912,4.1758,4.3887,4.4316,4.4602,4.5815,4.5944,4.5988,4.641,4.6046,4.5817,4.6201,4.5893,4.5759,4.6201,4.5893,4.5586,4.5586,4.5586,4.5586,4.5586,4.4797,4.4297,4.4297,4.4297,4.4124,4.3739,4.4913,4.5413,4.4989,4.5374,4.5586,4.5586,4.6047,4.649,4.6913,4.7336,4.774,4.8125,4.9048,4.949,4.9548,4.9548,4.9625,4.976,4.9757,5.0046,5.0448,5.0027,5.0149,5.0529,5.0097,4.9945,5.0015,0.0,0.0,0.0,0.0,0.0,0.0,0.0,0.0,0.0,0.0,0.0,0.0,0.0,0.0,0.0,0.0,0.0,0.0,0.0,0.0,0.0,2.5303,2.5303,2.5303,2.5303,2.5303,2.5303,2.5303,2.5303,2.5476,2.5851,2.6437,2.6757,2.6862,2.6893,2.6855,2.6719,2.5996,2.5703,2.5703,2.5703,2.5703,2.5703,2.5703,2.5703,2.5703,2.5703,2.5703,2.5703,2.5703,0.0,0.0,0.0,0.0,2.5664,2.5527,2.5586,2.5703,2.5703,2.707,2.9863,3.5469,3.8594,4.082,4.2812,4.3262,4.3516,4.4414,4.5192,4.5727,4.5774,4.5796,4.5757,4.5605,4.5586,4.5586,4.5586,4.5586,4.5528,4.5393,4.5374,4.5316,4.5182,4.4374,4.3874,4.3874,4.3874,4.3585,4.2912,4.4335,4.4893,4.4316,4.4989,4.5451,4.5586,4.5586,4.5951,4.6682,4.6701,4.7067,4.7702,4.7702,4.7932,4.8298,4.8312,4.8411,4.8529,4.8521,4.8983,4.957,4.8842,4.9074,4.9718,4.9006,4.872,4.8848,0.0,0.0,0.0,0.0,0.0,0.0,0.0,0.0,0.0,0.0,2.2735,0.0,0.0,0.0,0.0,0.0,0.0,0.0,2.5303,0.0,0.0,2.5303,2.5303,2.5303,2.5303,2.5303,2.5303,2.5303,2.5303,2.6082,2.7544,2.6976,2.6698,2.6725,2.6847,2.6484,2.5781,2.5723,2.5703,2.5703,2.5703,2.5703,2.5703,2.5703,2.5703,2.5703,2.5703,2.5703,2.5703,2.5703,2.5703,0.0,0.0,0.0,2.5547,2.4805,2.5117,2.5703,2.5703,2.7519,3.0332,3.4101,3.5879,3.7539,4.0781,4.1523,4.1973,0.0,4.443,4.5128,4.5696,4.5796,4.5757,4.5605,4.5586,4.5586,4.5586,4.5586,4.5316,4.4566,4.447,4.4201,4.3508,4.2643,4.2143,4.2143,4.2143,4.2085,4.1989,4.2893,4.3701,4.4278,4.4412,4.4836,4.5586,4.5586,4.5663,4.5759,4.5892,4.6007,4.6123,4.618,4.6951,4.8298,4.8432,4.8551,4.8664,4.8663,4.8821,4.9019,4.8882,4.8938,4.9029,4.8912,4.8863,4.8887,0.0,0.0,0.0,0.0,0.0,0.0,0.0,0.0,0.0,0.0,0.0,2.4197,0.0,0.0,0.0,2.4774,2.5101,2.5303,2.5303,2.5303,2.5303,2.5303,2.5303,2.5303,2.5303,2.5303,2.5303,2.5303,2.5303,2.6197,2.789,2.8005,2.8582,2.9528,2.8601,2.8014,2.7637,2.623,2.5664,2.5703,2.5703,2.5703,2.5703,2.5703,2.5703,2.5703,2.5703,2.5703,2.5703,2.5703,2.5703,2.5547,2.4668,0.0,0.0,0.0,2.3965,2.4394,2.4844,2.6523,2.873,3.1211,3.3203,3.5195,3.7715,3.8652,3.9648,4.1855,4.2558,4.313,4.4247,4.5186,4.5449,4.4374,4.4586,4.4701,4.4259,4.4201,4.4066,4.3662,4.3624,4.3489,4.3124,4.2316,4.1797,4.1797,4.1797,4.1585,4.1104,4.2354,4.3047,4.2893,4.3816,4.4259,4.4201,4.5124,4.5624,4.5719,4.5776,4.5816,4.5861,4.597,4.6411,4.7066,4.7129,4.7222,4.7356,4.7356,4.7674,4.8125,4.7637,4.7734,4.8105,4.7617,4.7441,4.7519,0.0,0.0,0.0,0.0,0.0,0.0,0.0,0.0,0.0,0.0,0.0,0.0,0.0,0.0,0.0,0.0,2.5303,2.5303,2.5303,2.5303,2.5303,2.5303,2.5303,2.5303,2.5303,2.5303,2.5303,2.5303,2.5303,2.6294,2.8198,2.8602,2.996,3.2011,3.051,2.9419,2.8608,2.6951,2.6152,2.5996,2.5781,2.5703,2.5703,2.5703,2.5703,2.5703,2.5703,2.5703,2.5703,2.5703,2.5547,2.5215,2.4336,2.4062,0.0,0.0,0.0,2.3301,2.3926,2.5195,2.6758,2.8496,3.0527,3.2617,3.459,0.0,3.6992,0.0,4.0234,4.0856,4.1925,4.3819,4.4737,4.3355,4.3605,4.3797,4.3181,4.3104,4.3028,4.2797,4.2777,4.2681,4.245,4.1854,4.147,4.147,4.147,4.1181,4.0527,4.172,4.2239,4.1816,4.3008,4.3489,4.3104,4.4355,4.5028,4.5143,4.5413,4.5572,4.5634,4.5982,4.6142,4.614,4.6153,4.6216,4.6308,4.6308,4.668,4.7207,4.6543,4.6699,4.7187,4.6543,4.6308,4.6387,0.0,0.0,0.0,0.0,0.0,0.0,0.0,0.0,0.0,0.0,0.0,0.0,2.5303,2.5303,2.5303,2.5303,2.5303,2.5303,2.5303,2.5303,2.5303,2.5303,2.5303,0.0,2.5303,2.5303,2.5303,2.5303,2.5303,2.6582,2.9006,2.8294,2.9698,3.2814,3.2026,2.9867,2.6892,2.7725,2.7598,2.6777,2.6016,2.5703,2.5703,2.5703,2.5703,2.5703,2.5703,2.5703,2.5703,2.5703,2.5156,2.4316,2.3437,2.3164,2.3008,0.0,0.0,0.0,2.3223,2.3887,2.4941,2.6699,2.7851,2.9238,0.0,0.0,3.4101,3.5898,3.7578,3.8711,3.8671,4.1332,4.3458,4.3239,4.3181,4.3143,4.3104,4.3104,4.2797,4.197,4.1873,4.1546,4.0719,4.0585,4.0566,4.0566,4.0566,4.0546,4.0489,4.0585,4.0989,4.1777,4.1893,4.2316,4.3085,4.3242,4.3319,4.3338,4.4376,4.4855,4.4891,4.5834,4.6294,4.629,4.6293,4.6288,4.6308,4.6308,4.6328,4.6367,4.6328,4.6328,4.6367,4.6328,4.6308,4.6308,0.0,0.0,0.0,0.0,0.0,0.0,0.0,0.0,0.0,0.0,0.0,0.0,0.0,2.5303,2.5303,2.5303,2.5303,2.5303,2.5303,2.5303,2.5303,2.5303,2.5303,2.5303,2.5303,2.5303,2.5303,2.5303,2.5303,2.6063,2.7505,2.7775,2.8236,2.8871,2.9167,2.8933,2.8219,2.695,2.626,2.6035,2.5703,2.5604,2.564,2.5634,2.5644,0.0,0.0,0.0,2.5703,2.5703,2.5117,2.4258,2.3437,2.2773,2.2168,2.1309,2.1269,2.1621,2.2207,2.2578,2.3086,2.4277,2.5605,2.7012,2.8516,2.9941,3.1601,3.3867,3.4824,3.5586,3.666,4.0054,4.2093,4.0236,4.0854,4.1143,3.9988,4.0315,4.0546,4.0219,4.0642,4.0835,4.0527,4.0027,3.9719,3.9719,3.92,3.8892,3.8892,3.8892,3.9046,3.9354,3.9892,4.0893,4.2374,4.2447,4.2816,4.3475,4.3859,4.4349,4.4949,4.53,4.5768,4.6306,4.6301,4.6308,4.6308,4.6308,4.6308,4.6308,4.6308,4.624,4.6158,4.6158,4.6113,4.6039,0.0,0.0,0.0,0.0,0.0,0.0,0.0,0.0,0.0,2.5303,0.0,0.0,0.0,0.0,2.5303,2.5303,2.5303,2.5303,2.5303,2.5303,2.5303,2.5303,2.5303,2.5303,2.5303,2.5303,2.5303,2.5303,2.5303,2.5755,2.6621,2.689,2.7024,2.7044,2.7024,2.7503,2.8245,2.6856,2.6157,2.5944,2.5624,2.5732,2.6073,2.6369,0.0,0.0,0.0,0.0,0.0,0.0,2.4668,2.3828,2.3027,2.2168,2.1348,2.0762,2.0605,2.0723,2.1309,2.168,2.2109,2.2949,2.4219,2.5488,2.6367,2.7695,2.9297,3.1289,3.1914,3.2656,3.4394,3.7246,3.8971,3.7935,3.8949,3.9465,3.82,3.8541,3.8888,3.8873,3.9335,3.9662,3.9662,3.9181,3.8854,3.8854,3.8334,3.8007,3.8007,3.8007,3.8007,3.8027,3.8642,3.9682,4.1183,4.1258,4.1793,4.2725,4.3053,4.3518,4.4141,4.4433,4.4874,4.5406,4.5688,4.5955,4.6228,4.6228,4.6221,4.6173,4.6173,4.6115,4.6027,4.602,4.5974,4.5902,0.0,0.0,0.0,0.0,0.0,0.0,0.0,0.0,2.5303,2.5303,0.0,0.0,0.0,0.0,0.0,2.5303,2.5303,2.5303,2.5303,2.5303,2.5303,2.5303,2.5303,2.5303,2.5303,2.5303,2.5303,2.5303,2.5303,2.5726,2.6544,2.5687,2.6197,2.7755,2.6063,2.5774,2.6621,2.7522,2.7426,2.6592,0.0,2.6042,2.6949,0.0,0.0,0.0,2.8136,2.7566,0.0,2.4915,0.0,0.0,0.0,0.0,0.0,0.0,0.0,2.0625,0.0,0.0,0.0,2.2832,2.3691,2.457,2.543,0.0,2.7207,2.8086,2.8926,3.0059,3.1777,3.2734,3.4082,3.6484,3.7619,3.8147,3.7978,3.7978,3.7983,3.793,3.795,3.7969,3.8007,3.7988,3.7969,3.7969,3.793,3.793,3.793,3.793,3.795,3.8027,3.8195,3.8665,3.9513,3.9612,4.0115,4.0973,4.1896,4.2344,4.2422,4.3261,4.3643,4.3644,4.4449,4.5259,4.6007,4.6065,4.6013,4.5909,4.5909,4.5909,4.5901,4.5905,4.5892,4.5892,0.0,0.0,0.0,0.0,0.0,2.5303,2.5303,2.5303,2.5303,0.0,0.0,0.0,2.5303,2.5303,2.5303,2.5303,2.5303,2.5303,2.5303,2.5303,2.5303,2.5303,2.5303,2.5303,2.5303,2.5303,2.5303,2.5303,2.5303,2.5418,2.5649,2.5399,2.5553,2.6005,2.5514,2.5418,2.5668,2.5937,0.0,2.5736,2.5464,2.5551,0.0,0.0,0.0,0.0,0.0,2.6088,2.5803,0.0,2.462,2.373,0.0,0.0,0.0,0.0,0.0,2.1406,2.0762,0.0,0.0,0.0,0.0,0.0,0.0,0.0,2.6309,2.7187,2.7559,2.8066,2.918,3.0078,3.0879,3.1562,3.391,3.5368,3.4667,3.5056,3.5628,3.6199,3.6781,3.7358,3.795,3.743,3.7065,0.0,3.6526,3.6199,3.6199,3.6238,3.6286,3.6366,3.7114,3.7629,3.7854,3.8558,3.9345,4.0207,4.0464,4.123,4.2402,4.2607,4.3021,4.3644,4.4405,4.4446,4.41,4.5411,4.5921,4.5896,4.5896,4.5877,4.5843,4.583,4.5776,4.568,0.0,0.0,0.0,0.0,0.0,2.5303,2.5303,2.5303,2.5303,0.0,0.0,0.0,2.5303,2.5303,2.5303,2.5303,2.5303,2.5303,2.5303,2.5303,2.5303,2.5303,2.5303,2.5303,2.5303,2.5303,2.5303,2.5303,2.5303,2.5303,2.5303,2.5303,2.5303,2.5303,2.5303,2.5303,2.5303,0.0,0.0,0.0,2.5322,0.0,0.0,2.6346,2.6494,0.0,0.0,0.0,2.642,2.5284,2.4422,0.0,0.0,0.0,0.0,0.0,0.0,2.1797,2.1289,2.1504,2.1953,2.2148,0.0,0.0,2.3691,2.4453,2.5195,0.0,2.5391,2.5664,2.6523,2.7383,2.8086,2.8457,3.0469,3.2146,3.2635,3.3096,3.3682,3.4442,3.4931,3.5397,3.5834,3.5411,3.5276,3.5622,3.5257,3.518,3.5565,3.568,3.5733,3.5776,3.6393,3.6864,3.7242,3.7773,3.8672,3.9902,3.9902,4.0572,4.1805,4.1777,4.1979,4.2456,4.358,4.3717,4.3275,4.466,4.5238,4.5238,4.5238,4.543,4.5719,4.5719,4.568,4.5586,0.0,0.0,2.5486,2.5409,2.5341,2.5303,2.5303,2.5303,2.5303,0.0,2.5303,2.5341,2.5418,2.536,2.5341,2.5437,2.536,2.5303,2.5303,2.5303,2.5303,2.5303,2.5303,2.5303,2.5303,2.5303,2.5303,2.5303,2.5303,2.5303,2.5303,2.5303,2.5303,2.5303,2.5303,0.0,2.5303,0.0,0.0,2.5303,2.5303,2.5803,0.0,0.0,2.774,2.7778,2.7721,2.774,2.7422,2.5053,2.3861,0.0,0.0,0.0,0.0,0.0,2.2109,2.2168,2.207,2.2109,2.2519,2.3906,0.0,0.0,2.4297,2.4414,2.4277,0.0,2.3144,2.3418,2.4121,2.4961,2.5801,2.6582,2.7441,2.8848,3.125,3.1582,3.1843,3.2516,3.2585,3.2648,3.2756,3.2776,3.3122,3.4007,3.4238,3.4681,3.5526,3.5776,3.5894,3.5912,3.5962,3.6367,3.7148,3.7168,3.8026,3.9738,3.9738,4.0169,4.0969,4.0977,4.087,4.0793,4.2374,4.297,4.2874,4.3682,4.4124,4.4297,4.4297,4.4759,4.547,4.5547,4.5586,4.5586,0.0,2.4791,2.5466,2.5341,2.5303,2.5303,2.5303,2.5303,2.5303,2.5303,2.5303,2.5572,2.6274,2.5707,2.5572,2.6294,2.5687,2.5303,2.5303,2.5303,2.5303,2.5303,2.5303,2.5303,2.5303,2.5303,2.5303,2.5303,2.5303,2.5303,2.5303,2.5303,2.5303,2.5303,2.5303,2.5303,2.5303,0.0,0.0,2.5303,2.5303,0.0,2.5582,2.5765,2.5823,2.5842,2.5823,2.5842,2.5784,2.537,2.5135,2.493,0.0,0.0,0.0,2.3184,0.0,0.0,0.0,0.0,0.0,0.0,0.0,0.0,2.3672,2.4434,2.5019,0.0,2.3144,2.3164,2.332,2.4062,2.4707,2.4883,2.5644,2.6875,2.8769,2.9023,2.927,2.9946,3.0016,3.0529,3.1814,3.1929,3.2301,3.3173,3.3994,3.4555,3.4801,3.5493,3.592,3.5971,3.5994,3.6074,3.625,3.625,3.7078,3.8684,3.8684,3.9445,4.084,4.077,4.0735,4.0754,4.1662,4.1681,4.1066,4.1931,4.3085,4.4297,4.4297,4.4393,4.4643,4.5336,4.5586,4.5586,2.3536,2.4621,2.5466,2.5322,2.5303,2.5303,2.5303,2.5303,2.5457,2.589,2.6332,2.6601,2.6601,2.6601,2.6601,2.6601,2.6197,2.5774,2.5322,2.5303,2.5303,2.5303,2.5303,2.5303,2.5303,2.5303,2.5303,2.5303,2.5303,2.5303,2.5303,2.5303,2.5303,2.5303,2.5303,2.5303,2.5303,0.0,2.5303,2.5303,2.5303,0.0,2.5303,2.5303,2.5303,2.5303,2.5303,2.5303,2.539,2.5957,2.5863,0.0,0.0,2.5019,2.4883,0.0,2.4082,2.4316,0.0,0.0,0.0,2.4394,0.0,0.0,0.0,2.4082,2.4297,2.3887,2.2754,2.2129,2.2988,2.3477,2.3769,2.3809,2.4492,2.5508,2.6816,2.7383,2.7928,2.8654,2.8727,2.9011,2.9786,3.0229,3.1025,3.2391,3.3368,3.3935,3.401,3.4841,3.5325,3.5351,3.5762,3.5996,3.5996,3.5996,3.6611,3.7815,3.8212,3.9003,4.0122,4.0516,4.0658,4.0658,4.145,4.1462,4.0917,4.1358,4.1972,4.262,4.2738,4.3312,4.4078,4.434,4.4737,4.5118,2.324,2.4467,2.5466,2.5322,2.5303,2.5303,2.5303,2.5303,2.561,2.6486,2.7351,2.7755,2.7371,2.7813,2.8044,2.7832,2.7217,2.6621,2.6082,2.5726,2.5476,2.5303,2.5303,2.5303,2.5303,2.5303,2.5303,2.5303,2.5303,2.5303,2.5303,2.5303,2.5303,2.5303,2.5303,2.5303,2.5303,0.0,0.0,2.5303,0.0,2.5303,2.5303,2.5303,2.5303,2.5303,2.5303,2.5303,2.5428,2.6275,2.6072,2.5517,2.5599,2.5664,0.0,0.0,0.0,0.0,0.0,0.0,0.0,0.0,0.0,2.5684,0.0,0.0,0.0,2.4062,0.0,0.0,0.0,0.0,0.0,2.2969,0.0,0.0,0.0,2.5859,0.0,2.7598,2.7509,2.7479,2.7729,2.8501,2.9629,3.1145,3.2077,3.2676,3.2909,3.375,3.4297,3.4434,3.5137,3.5487,3.5474,3.5645,3.6112,3.6901,3.7723,3.8554,3.9388,4.0119,4.0466,4.0527,4.119,4.1319,4.1054,4.1014,4.0848,4.0684,4.1081,4.2134,4.346,4.3345,4.3851,4.458,2.4086,2.4842,2.5466,2.5322,2.5303,2.5303,2.5303,2.5303,2.561,2.6486,2.7351,2.8429,2.9833,2.9371,2.9833,3.2006,2.9467,2.8005,2.8621,0.0,2.612,2.5322,2.5303,2.5303,2.5303,2.5303,2.5303,2.5303,2.5303,2.5303,2.5303,2.5303,2.5303,2.5303,2.5303,2.5303,0.0,0.0,2.5303,0.0,2.5303,2.5303,0.0,2.5303,2.5303,2.5303,2.5303,2.5303,2.5341,0.0,2.5582,2.5526,0.0,2.5684,2.5684,2.5586,0.0,0.0,0.0,0.0,0.0,0.0,2.6289,0.0,0.0,0.0,2.498,2.3555,0.0,0.0,0.0,0.0,0.0,0.0,0.0,0.0,2.2539,2.3691,2.498,2.5801,2.5213,2.5284,2.6708,2.7679,2.8338,2.8614,2.9483,3.0366,3.1133,3.2012,3.2812,3.3535,3.3633,3.3675,3.3615,3.438,3.5111,3.5795,3.6666,3.7858,3.9296,3.9411,3.9835,4.0489,4.0364,4.0272,4.0214,3.9908,3.9796,3.9849,4.0632,4.1501,4.2365,4.3039,4.3851,4.458,2.4222,2.49,2.5466,2.5322,2.5303,2.5303,2.5303,2.6976,2.8044,2.7428,2.9813,3.1814,0.0,0.0,0.0,0.0,0.0,3.0314,0.0,0.0,2.7198,2.6813,2.6332,2.6063,2.6063,2.5553,2.5303,2.5303,2.5303,2.5303,2.5303,2.5303,2.5303,2.5303,2.5303,0.0,2.5303,0.0,2.5303,0.0,0.0,0.0,0.0,2.5303,2.5303,2.5303,2.5303,2.5303,2.5303,0.0,2.5443,0.0,0.0,0.0,0.0,0.0,0.0,0.0,0.0,0.0,0.0,0.0,0.0,0.0,2.5312,0.0,2.5039,0.0,0.0,0.0,0.0,0.0,0.0,0.0,2.2793,2.2871,0.0,0.0,2.2871,2.4687,0.0,0.0,2.6612,2.7115,2.7576,2.815,2.86,2.9004,2.9375,3.0703,3.1601,3.1934,3.2891,3.3372,3.3304,3.416,3.4672,3.4853,3.6243,3.7126,3.7587,3.8565,3.9107,3.9318,3.9652,3.969,3.9529,3.9364,3.9223,3.911,3.9463,4.0514,4.1827,4.1967,4.2846,4.3962,2.4609,2.5071,2.5466,2.5341,2.5303,2.538,2.561,2.7764,2.9179,2.8659,0.0,0.0,3.4795,3.5449,0.0,0.0,3.4641,3.2833,0.0,0.0,2.8371,0.0,0.0,0.0,0.0,2.5755,2.5303,2.5303,2.5303,2.5303,2.5303,2.5303,2.5303,2.5303,2.5303,2.5303,2.5303,0.0,2.5303,2.5303,2.5303,2.5303,2.5303,2.5303,2.5303,2.5303,2.5303,2.5303,2.5303,2.5322,2.539,0.0,2.5434,0.0,0.0,0.0,0.0,0.0,2.5703,0.0,0.0,0.0,0.0,0.0,0.0,0.0,0.0,0.0,0.0,0.0,0.0,0.0,2.3301,2.2852,0.0,2.2227,0.0,2.1445,0.0,0.0,0.0,0.0,0.0,2.6335,2.6758,2.7461,2.7559,2.7695,2.793,2.9141,3.0035,3.0492,3.1705,3.2402,3.2528,3.3622,3.4076,3.393,3.5605,3.6361,3.6325,3.7471,3.815,3.8433,3.8926,3.9108,3.9099,3.9008,3.8884,3.8707,3.8707,3.9829,4.1445,4.119,4.2121,4.3497,2.5566,2.5526,2.5486,2.5409,2.5341,2.5572,2.6428,0.0,0.0,0.0,0.0,0.0,0.0,0.0,0.0,0.0,0.0,3.5391,3.5315,0.0,2.9602,0.0,0.0,2.6601,0.0,0.0,2.5303,2.5303,2.5303,2.5303,2.5303,2.5303,2.5303,2.5303,2.5303,2.5303,2.5303,2.5303,2.5303,2.5303,2.5303,2.5303,2.5303,0.0,2.5303,2.5303,2.5303,0.0,0.0,2.537,2.539,0.0,0.0,0.0,0.0,0.0,0.0,0.0,0.0,0.0,0.0,2.5703,0.0,0.0,0.0,0.0,2.5664,0.0,0.0,0.0,0.0,2.4961,2.3828,2.2207,2.2617,0.0,0.0,2.082,0.0,0.0,0.0,0.0,0.0,2.5178,2.5679,2.5761,2.5781,2.6152,2.6992,2.709,2.7865,2.9478,2.9602,2.9948,3.0583,3.2231,3.3019,3.2968,3.4439,3.5543,3.6287,3.6102,3.6887,3.8373,3.8085,3.8398,3.9072,3.8815,3.8707,3.8707,3.8707,3.9698,4.1111,4.1111,4.2121,4.3497,2.5671,2.5581,2.5471,0.0,0.0,0.0,0.0,2.9333,0.0,0.0,0.0,0.0,0.0,4.1258,4.1393,0.0,0.0,3.8084,3.6411,3.418,0.0,0.0,0.0,2.9448,0.0,0.0,0.0,2.6159,2.5572,2.5303,2.5303,2.5303,2.5303,2.5303,2.5303,2.5303,0.0,0.0,0.0,0.0,0.0,2.5649,2.6101,0.0,2.5303,2.5303,2.5303,2.5303,0.0,2.5322,2.537,2.5399,2.5365,2.5436,2.5495,2.5471,2.5538,0.0,0.0,0.0,2.5703,2.5703,0.0,0.0,0.0,0.0,0.0,0.0,0.0,0.0,0.0,2.498,2.4023,2.2871,2.248,2.1836,0.0,2.1152,2.1894,0.0,0.0,0.0,0.0,2.379,2.4167,2.4736,2.4818,2.5215,2.6094,2.6699,2.7245,2.7768,2.8898,2.954,2.964,3.1359,3.2436,3.291,3.3808,3.458,3.5249,3.5506,3.5813,3.6189,3.6629,3.7114,3.7502,3.7417,3.7494,3.7721,3.7721,3.8367,3.9337,3.9659,4.0797,4.2141,2.5691,2.5591,0.0,0.0,0.0,0.0,0.0,0.0,0.0,0.0,3.8469,0.0,4.3566,0.0,4.3643,0.0,4.2412,4.0335,3.7796,3.6315,0.0,3.2237,3.1852,0.0,0.0,0.0,0.0,0.0,2.6197,2.5774,2.5774,2.5437,2.5303,2.5303,2.5303,2.5303,2.5303,2.5303,2.5303,0.0,0.0,2.563,0.0,0.0,2.5495,2.5707,0.0,2.5303,2.5303,2.5303,2.5322,2.537,2.5303,2.537,2.5428,2.5409,2.5453,2.5522,2.5568,2.5602,0.0,2.5664,2.5684,0.0,2.5703,0.0,2.5703,0.0,0.0,0.0,0.0,2.498,2.4102,2.3242,2.2422,2.1602,0.0,2.1074,2.123,2.0664,0.0,0.0,0.0,2.2921,2.3437,2.4258,2.4388,2.4785,2.5644,2.623,2.6637,2.687,2.825,2.9052,2.9171,3.0891,3.2148,3.291,3.3405,3.4017,3.4693,3.4838,3.494,3.5027,3.5444,3.6035,3.6705,3.65,3.6756,3.719,3.719,3.7707,3.8436,3.8759,3.9838,4.1109,2.5769,0.0,0.0,0.0,2.6948,0.0,0.0,0.0,3.4949,0.0,3.9123,4.1354,4.3104,4.3932,4.4701,4.5528,4.4105,4.2104,3.9585,3.8604,0.0,0.0,3.2295,3.1448,3.0475,0.0,0.0,0.0,0.0,2.6601,2.6582,2.5707,2.5303,2.5303,2.5303,0.0,2.5303,2.5303,2.5303,2.5303,2.5303,2.5322,2.536,2.5322,2.5851,2.6486,2.561,2.5303,2.5303,2.5303,2.5303,2.5303,2.5303,2.5303,2.5303,2.539,2.5409,2.5398,2.5479,2.5554,2.5604,2.5604,2.5644,0.0,0.0,0.0,2.5703,0.0,0.0,0.0,0.0,0.0,2.418,2.3301,2.248,2.168,2.084,2.0723,2.0723,2.0723,2.209,2.2715,2.1914,2.2578,2.3398,2.4277,2.4375,2.4785,2.5644,2.5703,2.6002,2.671,2.763,2.8401,2.9025,3.0775,3.2064,3.2878,3.3199,3.3805,3.4653,3.408,3.4202,3.4889,3.4522,3.5191,3.6532,3.6096,3.6374,3.7097,3.7097,3.7556,3.821,3.8376,3.9297,4.0347,2.6666,2.7555,2.8289,0.0,2.8525,2.9486,0.0,0.0,0.0,0.0,4.2143,4.3989,4.574,4.5528,4.5355,4.5566,4.4605,0.0,0.0,0.0,0.0,3.4988,3.4641,3.3526,3.141,3.0314,0.0,2.8794,0.0,2.6601,2.6582,2.5707,2.5303,2.5303,2.5303,2.5303,2.5303,2.5303,2.5303,2.5303,2.5303,2.5687,2.6197,0.0,2.5851,2.6486,2.561,2.5303,2.5303,2.5303,2.5303,2.5303,2.5303,2.5303,2.5303,2.5322,2.537,2.5399,2.5483,2.5503,2.5541,2.558,2.5585,2.5554,0.0,0.0,0.0,0.0,0.0,0.0,0.0,0.0,0.0,2.4219,2.3359,2.2715,2.248,2.2461,0.0,2.2461,0.0,0.0,2.1016,2.1719,2.2559,2.3379,2.4023,2.4785,2.5644,2.5654,2.5687,2.5824,2.7256,2.8071,2.8198,2.989,3.1354,3.2592,3.2484,3.3101,3.4311,3.3961,3.3762,3.364,3.3551,3.399,3.4769,3.4655,3.514,3.6011,3.6011,3.5817,3.583,3.7863,3.827,3.7922,2.7484,0.0,0.0,3.1352,0.0,0.0,3.393,0.0,0.0,4.145,4.3585,0.0,4.5701,4.6009,4.6009,4.5624,4.4797,0.0,4.1912,0.0,0.0,3.618,3.5699,3.4468,3.2275,3.1025,0.0,2.9679,0.0,2.7505,2.7159,2.6678,2.6024,2.5322,2.5687,2.5649,2.5303,2.5303,2.5303,2.5303,2.5303,2.5591,0.0,2.5495,2.5591,2.5967,2.5476,2.5303,2.5303,2.5303,2.5303,2.5303,2.5303,2.5303,2.5303,2.5303,2.5322,2.537,2.5409,2.5418,2.5473,2.5505,2.5509,2.5505,2.5505,2.5554,2.5597,0.0,2.5644,2.5703,0.0,0.0,0.0,2.4004,2.3457,2.3125,0.0,0.0,0.0,0.0,2.248,2.1934,2.0723,2.1035,2.1816,2.3008,2.3574,2.4407,2.5593,2.5608,2.5551,2.5459,2.7441,2.833,2.789,2.9819,3.1374,3.2499,3.2147,3.2748,3.4176,3.3733,3.3419,3.3184,3.2777,3.2967,3.3623,3.3407,3.4014,3.5104,3.5136,3.4736,3.4415,3.6284,3.6484,3.5943,2.8643,0.0,0.0,0.0,0.0,0.0,0.0,3.8296,0.0,4.1931,0.0,4.5432,4.4566,4.5817,4.6413,4.5663,0.0,4.3643,4.2066,4.1758,4.0219,3.7007,3.5892,3.4564,3.2949,3.1256,3.0398,0.0,0.0,2.8736,2.8044,2.7948,2.7024,2.5495,2.6255,0.0,0.0,2.5457,2.5457,2.5457,2.5457,2.5399,2.5303,2.5303,2.5303,2.5303,2.5303,2.5303,2.5303,2.5303,2.5303,2.5303,2.5303,2.5303,2.5303,2.5303,2.5303,2.5303,2.5303,2.5354,2.5398,2.5399,2.5447,2.5466,2.5466,2.5524,2.5572,2.559,2.5644,2.5684,0.0,0.0,0.0,2.3633,0.0,0.0,0.0,0.0,0.0,0.0,0.0,0.0,2.1074,2.1035,2.166,2.3008,2.3379,2.4124,2.5534,2.5582,2.5524,2.5409,2.7772,2.876,2.8184,3.0142,3.1603,3.2568,3.2045,3.253,3.3907,3.3413,3.3136,3.2965,3.2161,3.2239,3.2869,3.2457,3.3111,3.4381,3.4454,3.4087,3.3575,3.4181,3.4351,3.4234,0.0,0.0,0.0,0.0,0.0,4.02,4.0642,4.17,4.2777,4.3739,4.5509,4.6336,4.547,4.5643,4.5759,4.5605,4.4797,0.0,0.0,0.0,0.0,3.7853,3.5622,3.3949,3.291,3.1256,3.0398,0.0,0.0,2.9025,2.8871,2.8198,2.7351,2.639,2.6524,0.0,2.637,2.637,0.0,2.637,2.637,2.5947,2.5303,2.5303,2.5303,2.5303,2.5303,2.5303,2.5303,2.5303,2.5303,2.5303,2.5303,2.5303,2.5303,2.5303,2.5303,2.5303,2.537,2.5351,2.5322,2.539,2.537,2.5341,2.5341,2.539,2.5453,2.5513,2.5572,2.5625,2.5684,0.0,0.0,0.0,0.0,0.0,0.0,0.0,0.0,0.0,0.0,2.2988,0.0,2.3301,2.3574,2.3203,2.4473,2.5356,2.5592,2.5543,2.5486,2.5409,2.7178,2.8586,0.0,2.9999,3.1138,3.2892,3.2154,3.1998,3.2409,3.2936,3.2777,3.2022,3.188,3.2032,3.2434,3.2313,3.2823,3.3697,3.3761,3.3391,3.2803,3.2928,3.2607,3.2368,0.0,0.0,0.0,0.0,0.0,0.0,0.0,4.4509,0.0,4.4374,4.5028,4.5393,4.497,4.5316,4.5413,4.497,4.4162,4.3316,4.2489,4.0835,3.9315,3.8046,3.5988,3.4257,3.2929,3.1698,3.0852,3.0398,0.0,2.9544,2.9102,2.9179,2.8506,2.7274,2.7274,2.7274,0.0,0.0,0.0,2.7274,2.7274,2.7024,2.6659,2.6659,2.637,2.5967,2.5967,2.5668,2.5303,2.5303,2.5303,2.5303,2.5303,2.5303,2.5303,2.5303,2.5303,2.5303,2.5341,2.5322,2.5303,2.5341,2.5322,2.5303,2.5303,2.5341,2.5399,2.5441,2.5493,2.5562,2.5601,2.562,0.0,0.0,0.0,0.0,0.0,0.0,2.4902,0.0,0.0,0.0,0.0,0.0,2.4687,2.3887,2.4547,2.5135,2.5536,2.5474,2.5428,2.5341,0.0,0.0,2.866,0.0,3.079,3.1734,3.1015,3.1125,3.2,3.1929,3.1878,3.1789,3.1565,3.1404,3.1266,3.1698,3.1892,3.2012,3.2771,3.2625,3.2007,3.2007,3.1796,3.173,0.0,4.162,0.0,0.0,4.4259,0.0,4.5509,4.6336,4.6413,4.5028,4.4682,4.4586,4.4586,4.5182,4.524,4.4374,4.3566,4.2739,4.1873,4.0065,3.8719,3.8027,3.6219,3.4487,3.2929,3.2102,3.1275,0.0,0.0,0.0,2.939,3.0083,2.9602,2.814,0.0,0.0,0.0,0.0,2.8159,2.8159,2.8159,2.8044,2.789,2.789,2.7351,2.6601,2.6601,2.6043,2.5303,2.5303,2.5303,2.5303,2.5303,2.5303,2.5303,2.5303,2.5303,2.5303,2.5303,2.5303,2.5303,2.5303,2.5303,2.5303,2.5303,2.5341,2.539,2.5409,2.5461,2.5504,2.5504,2.5547,0.0,0.0,0.0,0.0,0.0,0.0,0.0,0.0,0.0,0.0,2.3466,2.4699,2.5328,2.4683,2.4607,2.4838,2.5459,2.5432,2.537,2.5303,0.0,2.8332,2.7951,0.0,3.0451,3.0668,3.0108,3.043,3.1446,3.111,3.1129,3.1476,3.114,3.0658,3.0179,3.0797,3.0822,3.0613,3.1728,3.1814,3.1219,3.1219,3.1146,3.097,0.0,0.0,0.0,0.0,0.0,0.0,4.5701,4.6336,4.6836,4.6682,4.597,4.547,4.547,4.5547,4.524,4.4374,4.3566,4.2739,4.1873,3.9488,3.8084,3.8007,3.5641,3.3872,3.291,3.2102,3.1275,0.0,0.0,3.0359,0.0,3.0359,2.989,0.0,0.0,0.0,0.0,2.8986,2.8986,2.8986,2.8986,2.8544,2.789,2.789,2.7351,2.6601,2.6601,2.6043,2.5303,2.5303,2.5303,2.5303,2.5303,2.5303,2.5303,2.5303,2.5303,2.5303,2.5303,2.5303,2.5303,2.5303,2.5303,2.5303,2.5303,2.5303,2.5322,2.539,2.5447,2.5505,2.5505,2.5504,2.5503,0.0,0.0,0.0,0.0,0.0,2.4393,2.4323,0.0,0.0,2.4128,2.4962,2.5488,2.539,2.5453,2.5457,2.5399,2.5399,2.537,2.5303,2.6797,2.8207,2.9398,2.9474,2.9968,3.0885,3.073,3.0362,2.9779,3.108,3.1257,3.046,3.0377,3.0021,2.9499,2.9641,2.9983,3.0516,3.0628,3.0598,3.0389,3.0389,2.9889,2.9254,0.0,0.0,0.0,0.0,0.0,0.0,0.0,4.6682,4.6721,4.6182,4.5817,4.5586,4.5586,4.5586,4.5047,4.3701,4.3297,4.2508,4.1104,3.9123,3.8007,3.8007,3.6065,3.4564,3.3699,3.3372,3.2545,0.0,0.0,0.0,0.0,0.0,0.0,0.0,0.0,2.9583,2.989,2.989,2.989,2.989,2.989,2.9698,2.941,2.941,2.8852,2.8044,2.7544,2.6813,2.6005,2.5476,2.5303,2.5303,2.5303,2.5303,2.5303,2.5303,2.5303,2.5303,2.5303,2.5303,2.5303,2.5303,2.5303,2.5303,2.5303,2.5303,2.5303,2.5322,2.537,2.539,2.539,2.5409,2.5438,2.5437,0.0,0.0,0.0,0.0,0.0,2.5021,0.0,2.4966,2.4985,2.526,2.5666,0.0,0.0,2.5466,2.5409,2.525,2.5149,2.5111,0.0,2.7286,2.7616,2.8397,2.8898,2.9112,2.9266,2.9414,2.9523,3.0017,3.0078,2.9717,2.9361,2.9088,2.892,2.9368,2.944,2.9237,3.0074,3.0038,2.9504,2.9504,2.9317,2.8939,4.6621,0.0,4.5218,0.0,4.6201,4.5509,4.6721,4.6682,4.6297,4.5682,4.5586,4.5586,4.5586,4.5586,4.4932,4.3258,4.3104,4.2354,4.0604,3.8931,3.8007,3.8007,3.6392,0.0,3.4218,3.4199,3.3487,3.2045,3.2045,0.0,0.0,0.0,0.0,0.0,3.0891,3.0794,3.0775,3.0513,3.0398,3.0398,3.0398,3.0398,3.0398,3.0398,2.9717,2.8659,2.8102,2.7178,2.612,2.5514,2.5303,2.5303,2.5303,2.5303,2.5303,2.5303,2.5303,2.5303,2.5303,2.5303,2.5303,2.5303,2.5303,2.5303,2.5303,2.5303,2.5303,2.5303,2.5303,2.5303,2.5303,2.5341,2.537,2.537,0.0,0.0,0.0,2.5472,0.0,2.546,2.5432,2.5409,2.5447,2.5409,0.0,0.0,0.0,2.5386,2.5655,2.5241,2.4986,0.0,0.0,0.0,2.631,2.7695,2.8291,2.8029,2.8508,2.9041,2.9677,2.9413,2.9232,2.9088,2.8511,2.8238,2.8266,2.8577,2.8408,2.8139,2.8854,2.8853,2.8361,2.8361,2.8136,2.7749,4.7422,4.7461,4.7584,4.8346,4.7642,4.6951,4.6913,4.6163,4.5605,4.5586,4.5586,4.5586,4.5586,4.5586,4.4932,4.3258,4.3104,4.2354,4.0604,3.8931,3.8007,0.0,0.0,3.5084,3.4218,3.4199,3.3776,3.2891,0.0,0.0,3.2872,0.0,3.2872,3.2833,3.2045,3.1679,3.1641,3.0775,3.0398,3.0398,3.0398,3.0398,3.0398,3.0398,2.9371,2.7909,2.789,2.6794,2.5303,2.5303,2.5303,2.5303,2.5303,2.5303,2.5303,2.5303,2.5303,2.5303,2.5303,2.5303,2.5303,2.5303,2.5303,2.5303,2.5303,2.5303,2.5303,2.5303,2.5303,2.5303,2.5303,2.5303,2.5303,2.5303,0.0,0.0,0.0,2.5409,0.0,2.539,2.5409,2.537,2.5303,2.5303,0.0,0.0,0.0,0.0,0.0,0.0,0.0,2.4804,2.6184,0.0,2.631,2.7695,2.8393,2.8414,2.9125,2.9712,3.007,2.9609,2.9088,2.8463,2.786,2.7625,2.7575,2.6841,2.6899,2.7461,2.6736,2.6652,2.6956,2.6956,2.6101,2.5075,4.666,4.6601,4.6569,4.6697,4.6414,4.6124,4.6028,4.5778,4.5586,4.5586,4.5586,4.5586,4.5586,4.5586,4.4932,0.0,4.3104,4.2124,0.0,3.8623,3.7738,3.7142,3.6084,3.5372,3.5084,3.5084,3.4661,3.3795,0.0,0.0,0.0,3.2891,3.2807,3.2603,3.1981,3.1603,3.1365,3.0486,3.0222,3.0379,3.0196,3.0136,3.015,3.0323,2.9953,2.9212,2.8241,2.7544,2.689,2.5687,2.5303,2.5303,2.5303,2.5303,2.5303,2.5303,2.5303,2.5303,2.5303,2.5303,2.5303,2.5303,2.5303,2.5303,2.5303,2.5303,2.5303,2.5303,2.5303,2.5303,2.5303,2.5303,2.5303,2.5303,2.5303,0.0,2.5322,0.0,2.5322,2.5322,2.5322,2.5322,2.5303,2.5303,0.0,0.0,0.0,0.0,0.0,0.0,0.0,0.0,2.57,0.0,2.5761,2.701,2.7743,2.8015,2.8782,2.9324,2.9609,2.9039,2.8463,2.786,2.766,2.7306,2.687,2.7079,2.6638,2.5887,2.6115,2.5727,2.5093,2.5093,2.4587,2.3918,4.6308,4.623,4.6126,4.594,4.5866,4.5776,4.5605,4.5586,4.5586,4.5586,4.5586,4.547,4.5143,4.5105,0.0,4.322,4.2797,4.1797,3.9873,3.8642,3.7757,3.7219,3.6103,3.5493,3.5493,3.5493,0.0,3.468,3.468,3.441,3.3891,3.3891,3.3786,3.3574,3.2589,3.2058,3.1819,3.0647,3.0196,3.0241,3.0075,2.9999,3.0013,3.0196,3.0017,2.9551,2.8664,2.7948,2.7255,2.6159,2.5572,2.5303,2.5303,2.5303,2.5303,2.5303,2.5303,2.5303,2.5303,2.5303,2.5303,2.5303,2.5303,2.5303,2.5303,2.5303,2.5303,2.5303,2.5303,2.5303,2.5303,2.5303,2.5303,2.5303,2.5303,2.5303,2.5303,0.0,2.5303,0.0,0.0,0.0,0.0,2.5192,2.5348,0.0,0.0,0.0,0.0,0.0,2.4855,2.4615,2.5506,2.5915,2.5722,2.677,2.7616,2.8264,2.9093,2.9338,2.9058,2.8685,2.8189,2.7575,2.7306,2.693,2.6486,2.6369,2.5679,2.48,2.4597,2.4188,2.357,2.3288,2.2842,2.2429,4.6308,4.6308,4.6223,0.0,4.5905,0.0,4.5624,4.5586,4.5586,4.5586,4.5547,4.5201,4.4393,4.4201,4.3816,4.3085,0.0,0.0,4.0469,3.8892,3.7969,3.7911,3.6372,3.5493,3.5493,3.5493,3.5493,3.5493,3.5493,3.5493,3.5493,3.5493,3.5493,3.5402,3.3724,3.2949,3.2769,3.1123,3.0266,2.9999,2.9969,2.9969,2.9969,2.9999,2.9652,2.9137,2.9091,2.8091,2.6734,2.66,2.6023,2.537,2.538,2.5341,2.5303,2.5303,2.5303,2.5303,2.5303,2.5303,2.5303,2.5303,2.5303,2.5303,2.5303,2.5303,2.5303,2.5303,2.5303,2.5274,2.5303,2.5303,2.5274,2.5274,2.5284,2.5284,2.5264,2.5264,2.5274,0.0,0.0,0.0,2.4998,2.4986,2.4962,0.0,0.0,0.0,0.0,0.0,2.5499,2.4815,2.5584,2.6056,2.6174,2.6947,2.7909,2.9022,2.9855,2.9629,2.8511,2.8479,2.8091,2.7473,2.6826,2.6457,2.6229,2.4851,2.4221,2.3989,2.2482,2.2135,2.2392,2.1583,2.1032,2.0684,0.0,0.0,4.6223,4.5959,4.5905,4.5834,4.5624,4.5586,4.5586,4.5586,4.5009,4.4528,4.4316,4.3162,4.2316,4.2124,4.1931,4.1181,3.9681,3.8584,3.77,3.7046,3.6045,3.5493,3.5493,3.5493,3.5493,3.5493,3.5493,3.5493,3.5493,3.5493,3.5383,3.5168,3.4265,3.3407,3.252,3.135,3.0532,2.9969,2.9661,2.9533,2.957,2.9893,2.9825,2.9501,2.9036,2.8618,2.8083,2.6753,2.6168,2.602,2.6233,2.5851,2.5303,2.5303,2.5303,2.5303,2.5303,2.5303,2.5303,2.5303,2.5303,2.5303,2.5303,2.5303,2.5303,2.5303,2.5173,2.5111,2.5274,2.5173,2.5077,2.5077,2.5203,2.5212,2.4949,2.5005,2.503,0.0,2.4929,2.4896,2.4855,2.4842,2.502,0.0,0.0,2.5893,2.4847,2.6099,2.6227,2.4851,2.5614,2.6335,2.6933,2.7417,2.8174,2.9175,2.9469,2.9225,2.8463,2.7993,2.7444,2.6774,2.6563,2.5837,2.4794,2.4452,2.3564,2.2421,2.2063,2.1335,2.0514,2.0311,2.0006,1.9591,4.6308,4.6308,4.6223,4.5959,4.5905,4.5834,4.5624,4.5586,4.5451,4.5047,4.4586,4.4008,4.3239,4.2354,4.1643,4.1239,4.12,4.0816,3.9912,3.8681,3.7796,3.7315,3.6142,3.5493,3.5493,3.5493,3.5493,3.5493,3.5493,3.5493,3.5493,3.5369,3.5239,3.5066,3.4355,3.3459,3.2441,3.1523,3.0639,2.9829,2.9532,2.9412,2.9414,2.9643,2.9713,2.9657,2.9336,2.895,2.8476,2.7532,2.6967,2.6679,2.6828,2.6612,2.6232,2.583,2.5521,2.5303,2.5303,2.5303,2.5303,2.5303,2.5303,2.5303,2.5303,2.5224,2.5163,2.5163,2.503,2.4943,2.5037,2.4987,2.4917,2.4917,2.5,2.5019,2.4832,2.4869,2.4877,2.4818,2.4804,2.476,2.467,2.5011,2.5325,2.5542,2.6318,0.0,2.5443,2.6408,2.632,2.4933,2.5999,2.6874,2.7485,2.8121,2.8415,2.8394,2.8801,2.8685,2.8091,2.776,2.7203,2.6457,2.6122,2.5342,2.4292,2.3884,2.304,2.1877,2.1491,2.0618,1.9599,1.9213,1.8894,1.8592,4.6308,4.6308,4.6225,4.5975,4.5906,4.5834,4.5643,4.5605,4.5316,4.4586,4.4278,4.3585,4.2162,4.1758,4.1316,4.0546,4.0489,4.0489,4.0489,3.9046,3.8142,3.8007,3.6507,3.5608,3.5493,3.5493,3.5493,3.5493,3.546,3.5446,3.5432,3.5174,3.4977,3.4805,3.4063,3.3187,3.2219,3.1499,3.0606,2.9644,2.9415,2.9351,2.9351,2.9392,2.9513,2.9643,2.9643,2.9172,2.8532,2.8401,2.7913,2.7332,2.7366,2.7415,2.7333,2.677,2.614,2.558,2.536,2.5303,2.5303,2.5303,2.5274,2.5264,2.5264,2.5118,2.5012,2.5133,2.4945,2.4798,2.4959,2.4869,2.4798,2.4915,2.485,2.4813,2.4885,0.0,2.4746,2.4716,2.4828,2.4826,2.4647,2.5355,2.5819,2.577,2.6332,2.6504,2.6141,2.6535,2.6265,2.5126,2.6526,2.752,2.8003,2.8814,2.8667,2.7551,2.8185,2.8189,2.7625,2.7458,2.7034,2.6283,2.5563,2.4781,2.406,2.3233,2.2445,2.1628,2.0719,1.9879,1.8977,1.8269,1.794,1.7647,4.6308,4.6308,4.625,4.6091,4.5988,4.5873,4.5776,4.568,4.5547,4.5413,4.4162,4.3181,4.2931,4.1585,4.0642,4.0508,4.0489,4.0489,4.0489,3.9623,3.8757,3.8027,3.7046,3.6199,3.5512,3.5493,3.5493,3.5493,3.5273,3.5155,3.5174,3.4889,3.4377,3.3658,3.3526,3.2637,3.1219,3.0866,3.0223,2.9414,2.9178,2.9044,2.9089,2.931,2.9414,2.9454,2.9454,2.936,2.9117,2.8389,2.8053,2.7998,2.8158,2.7773,2.7403,2.8184,2.7801,2.6899,2.5638,2.5303,2.5303,2.5303,2.5163,2.5046,2.5046,2.493,2.5021,2.5706,2.5158,2.4816,2.5668,2.5107,2.4769,2.5442,2.512,2.4929,2.5264,0.0,2.4478,2.4321,2.4893,2.5299,2.526,2.5994,2.6728,2.7365,2.7227,2.6975,2.6677,2.6994,2.6692,2.5535,2.6928,2.8138,2.8979,2.9221,2.9021,2.8309,2.8465,2.8189,2.7575,2.693,2.6283,2.5508,2.4794,2.4002,2.3245,2.2445,2.1553,2.0719,1.9814,1.8977,1.8202,1.8076,1.7501,1.6784,4.6308,4.6308,4.6228,4.6035,4.5939,4.5852,4.5714,4.524,4.4739,4.4316,4.3162,4.222,4.1739,4.0969,4.0489,4.0489,4.0489,4.0489,4.0489,3.9315,3.8411,3.8027,3.6757,3.5892,3.5526,3.5493,3.5432,3.5289,3.5155,3.4805,3.4187,3.3915,3.3339,3.2535,3.2535,3.1897,3.0769,3.065,3.0141,2.9372,2.9112,2.8994,2.9017,2.9134,2.9181,2.9181,2.9181,2.9181,2.9126,2.8716,2.8587,2.8609,2.8697,2.8576,2.839,2.8421,2.7747,2.6964,2.6754,2.637,2.5966,2.5872,2.6097,2.6098,2.5113,2.5096,2.5279,2.5204,2.4739,2.4468,2.4946,2.4652,2.4598,2.5411,2.493,0.0,2.5312,2.517,2.4949,2.4852,2.5548,2.6043,2.6043,2.6778,2.7317,2.7469,2.77,2.7629,2.711,2.7235,2.6847,2.5848,2.7231,2.8096,2.8275,2.8695,2.8591,2.8008,2.8008,2.7645,2.6982,2.6669,2.5892,2.4794,2.4452,2.3577,2.2445,2.2063,2.1112,1.9879,1.9431,1.8432,1.7285,1.7285,1.6645,1.579,4.6308,4.6308,4.6239,4.5988,4.5928,4.5847,4.5673,4.4874,4.4085,4.3451,4.247,4.1546,4.0873,4.0623,4.0489,4.0489,4.0489,4.0489,4.0489,3.8931,3.8007,3.8007,3.6392,3.5493,3.5493,3.5432,3.5304,3.5105,3.4962,3.4434,3.3576,3.3314,3.2674,3.1712,3.1712,3.1151,3.0238,3.0222,2.9869,2.9289,2.9089,2.8994,2.8994,2.8994,2.8994,2.8994,2.8994,2.8994,2.8994,2.8994,2.8994,2.8957,2.8796,2.899,2.9142,2.8349,2.7595,2.7125,2.7604,2.7259,2.6706,2.6542,2.6949,2.6953,2.5382,2.5327,2.5505,2.5077,2.4709,2.4593,2.4961,2.4887,2.5016,2.5844,0.0,2.5034,2.5844,2.5727,2.5536,2.5536,2.6184,2.6631,2.6631,2.7341,2.7701,2.7399,2.7852,2.7844,2.7158,2.7049,2.6657,2.5896,2.7071,2.763,2.7488,2.8013,2.8042,2.7625,2.7408,2.7034,2.651,2.6122,2.5342,2.4292,2.393,2.3027,2.1877,2.1491,2.0526,1.9299,1.911,1.8017,1.6636,1.6636,1.586,1.4736,4.6308,4.6308,4.6241,4.6104,4.5982,4.5868,4.5796,4.4932,4.4278,4.422,4.2797,4.1777,4.172,4.0969,4.0489,4.0489,4.0489,4.0489,4.0489,3.8931,3.8007,3.8007,3.6392,3.5493,3.5493,3.5273,3.5122,3.5105,3.4534,3.4209,3.413,3.3887,3.2923,3.1434,3.1434,3.0588,2.9113,2.9113,2.9076,2.904,2.9017,2.8994,2.8994,2.8994,2.8994,2.8994,2.8994,2.8994,2.8994,2.8994,2.8994,2.8865,2.8117,2.8393,2.8901,2.8292,2.8164,2.8107,2.7431,2.7204,2.7151,2.7151,2.7039,2.6711,2.5836,2.5523,2.5625,2.6303,2.5844,2.577,2.7255,2.6924,2.6686,2.7493,0.0,0.0,2.7512,2.6663,2.5966,2.5966,2.6389,2.6703,2.6703,2.7422,2.7893,2.7865,2.7554,2.7141,2.6589,2.6265,2.5924,2.5477,2.6122,2.682,2.7488,2.7595,2.761,2.7575,2.693,2.6563,2.6457,2.5063,2.4408,2.4234,2.2725,2.2002,2.1753,2.0139,1.9431,1.9243,1.8395,1.7491,1.6636,1.6636,1.5438,1.381,4.6308,4.6228,4.613,4.6007,4.5896,4.5622,4.497,4.4124,4.3355,4.2816,4.172,4.0989,4.0989,4.07,4.0489,4.0489,4.0027,3.9969,4.0469,3.8931,3.7546,3.6488,3.5853,3.5493,3.5493,3.5398,3.5273,3.5105,3.4695,3.4139,3.3455,3.2656,3.1715,3.0632,3.0136,2.9586,2.8994,2.8994,2.8994,2.8994,2.8994,2.8994,2.8994,2.8994,2.8994,2.8994,2.8994,2.8994,2.8994,2.8994,2.8994,2.8938,2.865,2.8737,2.8943,2.8728,2.8704,2.8713,2.8396,2.8129,2.7911,2.779,2.7699,2.74,2.6483,2.6197,2.6227,2.6539,2.6355,2.6237,2.6604,2.6436,2.6509,2.7289,0.0,2.6781,2.7356,2.7241,2.6952,2.649,2.7031,2.7427,2.7427,2.772,2.7811,2.7547,2.7078,2.6622,2.6214,2.5815,2.5579,2.54,2.6138,2.6637,2.6927,2.7379,2.7625,2.7575,2.6826,2.6283,2.5783,2.4738,2.3754,2.2786,2.2187,2.1302,2.0268,1.9562,1.8977,1.8395,1.7491,1.6576,1.5649,1.5013,1.3947,1.2806,4.6308,4.6183,4.607,4.5917,4.5853,4.5468,4.4451,4.3624,4.2797,4.1912,4.1046,4.0489,4.0489,4.0489,4.0489,4.0489,3.9758,3.9527,4.0085,3.8527,3.7084,3.593,3.5641,3.5493,3.5493,3.5417,3.5289,3.5105,3.4813,3.429,3.3515,3.24,3.1481,3.0669,2.9779,2.9232,2.8994,2.8994,2.8994,2.8994,2.8994,2.8994,2.8994,2.8994,2.8994,2.8994,2.8994,2.8994,2.8994,2.8994,2.8994,2.8957,2.8705,2.8631,2.8686,2.892,2.8994,2.8994,2.8994,2.8802,2.8558,2.842,2.838,2.8153,2.7187,2.6874,2.679,2.679,2.6681,2.6615,2.6613,2.6795,2.7118,2.7681,2.752,2.7455,2.7718,2.7685,2.7473,2.6946,2.7245,2.753,2.753,2.753,2.7513,2.7459,2.6759,2.6191,2.5826,2.517,2.5024,2.5425,2.5774,2.6012,2.6207,2.6916,2.7255,2.7255,2.6283,2.5563,2.5007,2.4279,2.316,2.1877,2.1616,2.0655,1.9299,1.8977,1.8397,1.7631,1.6976,1.5971,1.4832,1.4114,1.3184,1.2305,4.6308,4.6183,4.6046,4.5911,4.5834,4.5449,4.4432,4.3605,4.2777,4.1912,4.1046,4.0489,4.0489,4.0489,4.0489,4.0489,3.9758,3.9277,3.9258,3.7661,3.6699,3.6699,3.593,3.5493,3.5493,3.5239,3.5105,3.5105,3.4832,3.4694,3.4675,3.3537,3.2583,3.1744,3.0669,2.9751,2.8994,2.8994,2.8994,2.8994,2.8994,2.8994,2.8994,2.8994,2.8994,2.8994,2.8994,2.8994,2.8994,2.8994,2.8994,2.8847,2.8062,2.7805,2.797,2.8755,2.8994,2.8994,2.8994,2.8994,2.8994,2.8994,2.8994,2.8773,2.7989,2.7482,2.7186,2.7186,2.6942,2.6939,2.7756,2.8488,2.9001,2.9001,2.9001,2.9018,2.9001,2.8019,2.7303,2.7303,2.6939,2.6691,2.6691,2.6708,2.7012,2.7722,2.6678,2.5826,2.5412,2.4273,2.419,2.5459,2.4862,2.4793,2.5384,2.6122,2.651,2.6457,2.5007,2.4292,2.4292,2.3484,2.2641,2.1815,2.0985,2.0074,1.9233,1.8327,1.7618,1.7036,1.6955,1.5855,1.4163,1.4163,1.3369,1.2305,4.6169,4.6012,4.568,4.5026,4.4833,4.4239,4.2777,4.2335,4.1873,4.0989,4.0662,4.0489,4.0489,4.0489,4.0489,4.0489,3.92,3.7892,3.6719,3.668,3.6449,3.5892,3.5641,3.5493,3.5493,3.5432,3.5383,3.5383,3.5105,3.4981,3.4943,3.3242,3.2214,3.1725,3.0296,2.94,2.8994,2.8994,2.8994,2.8994,2.8994,2.8994,2.8994,2.8994,2.8994,2.8994,2.8994,2.8994,2.8994,2.8994,2.8994,2.8957,2.8723,2.865,2.864,2.8585,2.8565,2.8515,2.8281,2.8228,2.8281,2.8515,2.813,2.7755,2.7851,2.7335,2.7023,2.7584,2.7599,2.7547,2.7495,2.8066,2.8415,2.7888,2.8902,2.9489,2.8682,2.8526,2.8288,2.7709,2.708,2.6691,2.6691,2.7182,2.7212,2.6576,2.5931,2.5555,2.5531,2.5132,2.509,2.5502,2.5254,2.5242,2.5398,2.5618,2.5728,2.5728,2.4738,2.4292,2.4234,2.2847,2.1803,2.091,2.0074,1.9166,1.8405,1.8144,1.7508,1.6677,1.5971,1.4969,1.3748,1.3093,1.2594,1.2224,4.6026,4.5911,4.5526,4.4641,4.4391,4.3739,4.2066,4.1797,4.1489,4.0604,4.0489,4.0489,4.0489,4.0219,4.0027,4.0027,3.8469,3.693,3.5603,3.5968,3.6007,3.5512,3.5493,3.5493,3.5493,3.5493,3.5493,3.5493,3.499,3.4737,3.4684,3.2754,3.1767,3.1544,3.0054,2.931,2.9156,2.9062,2.8994,2.8994,2.8994,2.8994,2.8994,2.8994,2.8994,2.8994,2.8994,2.8994,2.8994,2.8815,2.8676,2.8558,2.8558,2.8558,2.8507,2.8264,2.821,2.8156,2.7954,2.7897,2.7926,2.7946,2.7727,2.7567,2.7847,2.7384,2.7163,2.7935,2.7954,2.7872,2.7942,2.8356,2.8579,2.8408,2.9121,2.944,2.8733,2.8577,2.823,2.7469,2.6962,2.6691,2.6691,2.7142,2.7094,2.6228,2.6188,2.6167,2.6021,2.5447,2.522,2.5459,2.486,2.4552,2.4496,2.4496,2.4667,2.4951,2.4163,2.3839,2.3767,2.2494,2.1428,2.0526,1.9694,1.8576,1.7442,1.7432,1.6745,1.5585,1.5017,1.4225,1.3283,1.2696,1.2405,1.215,4.593,4.5834,4.5488,4.4545,4.4275,4.3624,4.195,4.1681,4.1393,4.0585,4.0489,4.0469,4.0392,3.9738,3.9258,3.9181,3.7661,3.6372,3.5551,3.5493,3.5493,3.5493,3.5493,3.5493,3.5493,3.5493,3.5493,3.5493,3.4718,3.4276,3.416,3.2307,3.1382,3.1222,2.9983,2.9394,2.9351,2.9112,2.8994,2.8994,2.8994,2.8994,2.8994,2.8994,2.8994,2.8994,2.8952,2.9007,2.8973,2.858,2.8264,2.7986,2.7915,2.795,2.7986,2.7886,2.784,2.784,2.7794,2.7794,2.7725,2.7421,2.7604,2.7888,2.7888,2.7657,2.7639,2.8315,2.8169,2.8146,2.8839,2.9025,2.9296,2.9905,2.9533,2.9144,2.9093,2.8467,2.7774,2.708,2.6945,2.6911,2.6911,2.6919,2.6856,2.659,2.7102,2.7225,2.6726,2.5334,2.4812,2.537,2.399,2.3193,2.3125,2.3005,2.3424,2.4176,2.3424,2.3078,2.2944,2.2125,2.1302,2.0462,1.9562,1.823,1.6603,1.6576,1.5631,1.4194,1.4194,1.3601,1.2782,1.2782,1.2532,1.215,4.5834,4.5738,4.5163,4.3662,4.3374,4.2777,4.1046,4.0777,4.07,4.0508,4.0489,4.0258,3.9623,3.9392,3.9027,3.8334,3.7315,3.6372,3.5551,3.5493,3.5493,3.5493,3.5493,3.5493,3.5493,3.5493,3.5493,3.5493,3.5315,3.4872,3.418,3.3064,3.2015,3.1009,3.0055,2.9416,2.9089,2.9021,2.8994,2.8994,2.8994,2.8994,2.8994,2.8994,2.8994,2.8952,2.8658,2.8931,2.9421,2.9012,2.8811,2.8647,2.8074,2.8304,2.857,2.7674,2.7409,2.7348,2.7051,2.6971,2.7076,2.7589,2.776,2.7827,2.7827,2.8237,2.866,2.883,2.8793,2.8789,2.8994,2.9465,2.9719,2.9296,3.0057,3.0514,2.9939,2.9719,2.955,2.9381,2.8839,2.8484,2.8484,2.7712,2.7455,2.8015,2.725,2.6992,2.737,2.5979,2.5285,2.5398,2.3916,2.3132,2.3078,2.2445,2.2567,2.3365,2.3185,2.2763,2.2137,2.129,2.0398,1.9562,1.8654,1.7628,1.6576,1.6567,1.5488,1.3777,1.3777,1.3198,1.2398,1.2398,1.2358,1.2077,4.5163,4.5355,4.4932,4.2835,4.2816,4.2508,4.0758,4.0489,4.0489,4.0489,4.0489,4.0181,3.9392,3.8931,3.8161,3.693,3.6392,3.5949,3.5532,3.5493,3.5493,3.5493,3.5493,3.5493,3.5493,3.5493,3.5493,3.5493,3.468,3.4026,3.3545,3.216,3.1164,3.049,2.985,2.9415,2.9181,2.9044,2.8994,2.8994,2.8994,2.8994,2.8994,2.8791,2.8707,2.8658,2.829,2.8518,2.8988,2.8759,2.8589,2.836,2.7962,2.7889,2.7806,2.7203,2.7019,2.704,2.7199,2.7232,2.7418,2.818,2.8653,2.8822,2.845,2.8687,2.9076,2.9448,2.9516,2.9542,2.9632,2.9905,2.9998,2.966,3.0224,3.0548,3.0159,3.0108,2.9973,2.9617,2.8971,2.8478,2.8233,2.7721,2.7547,2.8015,2.713,2.6681,2.7071,2.5673,2.4908,2.4908,2.3695,2.3078,2.3078,2.2322,2.2125,2.2506,2.2125,2.1678,2.1239,2.0398,1.9748,1.9233,1.8405,1.7226,1.593,1.593,1.4799,1.3025,1.3025,1.2732,1.2305,1.2305,1.17,1.072,4.4682,4.497,4.4662,4.2412,4.2508,4.2335,4.0739,4.0489,4.045,4.0296,4.0277,3.9931,3.895,3.8084,3.7007,3.5622,3.5493,3.5493,3.5493,3.5493,3.5493,3.5493,3.5372,3.5276,3.5276,3.5276,3.5276,3.5276,3.3788,3.291,3.2603,3.0935,3.0072,2.9893,2.9551,2.9372,2.931,2.9089,2.8952,2.8905,2.8905,2.8863,2.8791,2.8438,2.8316,2.8281,2.8067,2.8216,2.8507,2.8645,2.8459,2.8127,2.7874,2.7484,2.706,2.6808,2.6756,2.6904,2.7523,2.7707,2.7875,2.8682,2.9336,2.9671,2.9185,2.9143,2.9404,2.9989,3.0029,2.9999,3.0152,3.0037,3.0055,3.0252,3.0199,3.0162,3.0294,3.02,2.9888,2.9303,2.8688,2.8114,2.7643,2.7566,2.7576,2.758,2.693,2.651,2.651,2.4937,2.4092,2.4092,2.316,2.2689,2.2689,2.1865,2.1428,2.1428,2.059,2.0204,2.0333,1.9628,1.9243,1.9044,1.8337,1.6941,1.5234,1.5234,1.4019,1.2305,1.2305,1.2305,1.2305,1.2077,1.087,0.9301,4.5451,4.4913,4.4143,4.3104,4.2412,4.1643,4.0642,4.0489,4.0239,3.9546,3.945,3.8854,3.7238,3.6334,3.5757,3.5526,3.5493,3.5493,3.5493,3.5493,3.5493,3.5493,3.4776,3.4372,3.4372,3.4372,3.4372,3.4372,3.3906,3.2936,3.1508,3.1075,3.0358,2.9493,2.9414,2.9267,2.9044,2.9017,2.8797,2.8471,2.8471,2.8316,2.8037,2.7982,2.7982,2.8014,2.8237,2.8578,2.9033,2.9658,2.9824,2.9567,2.8212,2.8273,2.8593,2.7245,2.702,2.7178,2.7258,2.729,2.7467,2.8201,2.8485,2.8694,2.9226,2.9744,3.017,3.027,2.9848,2.9516,2.9524,2.9504,2.9648,3.0192,3.0269,3.0468,3.0999,3.0606,3.0253,3.0154,2.9615,2.8987,2.8404,2.8324,2.813,2.766,2.693,2.651,2.651,2.4403,2.3191,2.3191,2.1694,2.091,2.091,2.0074,1.9628,1.9617,1.8787,1.8721,1.9497,1.9365,1.8911,1.8134,1.8076,1.6941,1.5234,1.5234,1.4019,1.2305,1.2305,1.2305,1.2224,1.1316,1.0265,0.9145,4.3662,4.3566,4.3201,4.1873,4.1739,4.1508,4.0623,4.0489,4.02,3.9411,3.9296,3.8642,3.6892,3.5988,3.5493,3.5493,3.5493,3.5493,3.5493,3.5493,3.5493,3.5493,3.5141,3.4699,3.4199,3.4059,3.3523,3.2584,3.2951,3.2441,3.1132,3.0433,2.9849,2.9392,2.9246,2.9112,2.8994,2.8994,2.8773,2.8394,2.8394,2.821,2.7869,2.7648,2.784,2.8219,2.8612,2.8907,2.9204,2.9859,2.9655,2.9009,2.8699,2.8359,2.7939,2.7268,2.7153,2.728,2.7689,2.7801,2.7976,2.8722,2.8926,2.9022,2.9342,2.9361,2.9406,2.9717,2.9585,2.9316,2.8966,2.918,2.9361,2.9316,2.9585,2.9892,3.0166,2.9995,2.9673,2.9316,2.9042,2.8638,2.8042,2.7993,2.791,2.7625,2.6549,2.5892,2.5892,2.4111,2.2822,2.2384,2.1729,2.1101,2.059,1.9759,1.9299,1.9299,1.8395,1.8202,1.8586,1.8586,1.8327,1.794,1.7432,1.6437,1.5163,1.4593,1.352,1.2305,1.2305,1.1996,1.1391,1.0938,0.9814,0.8389]},{"header":{"parameterUnit":"m.s-1","parameterCategory":1,"la1":30.6,"la2":28.766,"lo1":-90.7593,"lo2":-88.6598,"dy":0.0162,"dx":0.0183,"nx":116,"ny":114,"refTime":"2023-08-29T06:00:00:Z","depth":0,"parameterNumber":3,"parameterNumberName":"V-component_of_WINDS"},"data":[0.0,0.0,0.0,0.0,0.0,0.0,0.0,0.0,0.0,0.0,0.0,0.0,0.0,0.0,0.0,0.0,0.0,0.0,0.0,0.0,0.0,0.0,0.0,0.0,0.0,0.0,0.0,0.0,0.0,0.0,0.0,0.0,0.0,0.0,0.0,0.0,0.0,0.0,0.0,0.0,0.0,0.0,0.0,0.0,0.0,0.0,0.0,0.0,0.0,0.0,0.0,0.0,0.0,0.0,0.0,0.0,0.0,0.0,0.0,0.0,0.0,0.0,0.0,0.0,0.0,0.0,0.0,0.0,0.0,0.0,0.0,0.0,0.0,0.0,0.0,0.0,0.0,0.0,0.0,0.0,0.0,0.0,0.0,0.0,0.0,0.0,0.0,0.0,0.0,0.0,0.0,0.0,0.0,0.0,0.0,0.0,0.0,0.0,0.0,0.0,0.0,0.0,0.0,0.0,0.0,0.0,0.0,0.0,0.0,0.0,0.0,0.0,0.0,0.0,0.0,0.0,0.0,0.0,0.0,0.0,0.0,0.0,0.0,0.0,0.0,0.0,0.0,0.0,0.0,0.0,0.0,0.0,0.0,0.0,0.0,0.0,0.0,0.0,0.0,0.0,0.0,0.0,0.0,0.0,0.0,0.0,0.0,0.0,0.0,0.0,0.0,0.0,0.0,0.0,0.0,0.0,0.0,0.0,0.0,0.0,0.0,0.0,0.0,0.0,0.0,0.0,0.0,0.0,0.0,0.0,0.0,0.0,0.0,0.0,0.0,0.0,0.0,0.0,0.0,0.0,0.0,0.0,0.0,0.0,0.0,0.0,0.0,0.0,0.0,0.0,0.0,0.0,0.0,0.0,0.0,0.0,0.0,0.0,0.0,0.0,0.0,0.0,0.0,0.0,0.0,0.0,0.0,0.0,0.0,0.0,0.0,0.0,0.0,0.0,0.0,0.0,0.0,0.0,0.0,0.0,0.0,0.0,0.0,0.0,0.0,0.0,0.0,0.0,0.0,0.0,0.0,0.0,0.0,0.0,0.0,0.0,0.0,0.0,0.0,0.0,0.0,0.0,0.0,0.0,0.0,0.0,0.0,0.0,0.0,0.0,0.0,0.0,0.0,0.0,0.0,0.0,0.0,0.0,0.0,0.0,0.0,0.0,0.0,0.0,0.0,0.0,0.0,0.0,0.0,0.0,0.0,0.0,0.0,0.0,0.0,0.0,0.0,0.0,0.0,0.0,0.0,0.0,0.0,0.0,0.0,0.0,0.0,0.0,0.0,0.0,0.0,0.0,0.0,0.0,0.0,0.0,0.0,0.0,0.0,0.0,0.0,0.0,0.0,0.0,0.0,0.0,0.0,0.0,0.0,0.0,0.0,0.0,0.0,0.0,0.0,0.0,0.0,0.0,0.0,0.0,0.0,0.0,0.0,0.0,0.0,0.0,0.0,0.0,0.0,0.0,0.0,0.0,0.0,0.0,0.0,0.0,0.0,0.0,0.0,0.0,0.0,0.0,0.0,0.0,0.0,0.0,0.0,0.0,0.0,0.0,0.0,0.0,0.0,0.0,0.0,0.0,0.0,0.0,0.0,0.0,0.0,0.0,0.0,0.0,0.0,0.0,0.0,0.0,0.0,0.0,0.0,0.0,0.0,0.0,0.0,0.0,0.0,0.0,0.0,0.0,0.0,0.0,0.0,0.0,0.0,0.0,0.0,0.0,0.0,0.0,0.0,0.0,0.0,0.0,0.0,0.0,0.0,0.0,0.0,0.0,0.0,0.0,0.0,0.0,0.0,0.0,0.0,0.0,0.0,0.0,0.0,0.0,0.0,0.0,0.0,0.0,0.0,0.0,0.0,0.0,0.0,0.0,0.0,0.0,0.0,0.0,0.0,0.0,0.0,0.0,0.0,0.0,0.0,0.0,0.0,0.0,0.0,0.0,0.0,0.0,0.0,0.0,0.0,0.0,0.0,0.0,0.0,0.0,0.0,0.0,0.0,0.0,0.0,0.0,0.0,0.0,0.0,0.0,0.0,0.0,0.0,0.0,0.0,0.0,0.0,0.0,0.0,0.0,0.0,0.0,0.0,0.0,0.0,0.0,0.0,0.0,0.0,0.0,0.0,0.0,0.0,0.0,0.0,0.0,0.0,0.0,0.0,0.0,0.0,0.0,0.0,0.0,0.0,0.0,0.0,0.0,0.0,0.0,0.0,0.0,0.0,0.0,0.0,0.0,0.0,0.0,0.0,0.0,0.0,0.0,0.0,0.0,0.0,0.0,0.0,0.0,0.0,0.0,0.0,0.0,0.0,0.0,0.0,0.0,0.0,0.0,0.0,0.0,0.0,0.0,0.0,0.0,0.0,0.0,0.0,0.0,0.0,0.0,0.0,0.0,0.0,0.0,0.0,0.0,0.0,0.0,0.0,0.0,0.0,0.0,0.0,0.0,0.0,0.0,0.0,0.0,0.0,0.0,0.0,0.0,0.0,0.0,0.0,0.0,0.0,0.0,0.0,0.0,0.0,0.0,0.0,0.0,0.0,0.0,0.0,0.0,0.0,0.0,0.0,0.0,0.0,0.0,0.0,0.0,0.0,0.0,0.0,0.0,0.0,0.0,0.0,0.0,0.0,0.0,0.0,0.0,0.0,0.0,0.0,0.0,0.0,0.0,0.0,0.0,0.0,0.0,0.0,0.0,0.0,0.0,0.0,0.0,0.0,0.0,0.0,0.0,0.0,0.0,0.0,0.0,0.0,0.0,0.0,0.0,0.0,0.0,0.0,0.0,0.0,0.0,0.0,0.0,0.0,0.0,0.0,0.0,0.0,0.0,0.0,0.0,0.0,0.0,0.0,0.0,0.0,0.0,0.0,0.0,0.0,0.0,0.0,0.0,0.0,0.0,0.0,0.0,0.0,0.0,0.0,0.0,0.0,0.0,0.0,0.0,0.0,0.0,0.0,0.0,0.0,0.0,0.0,0.0,0.0,0.0,0.0,0.0,0.0,0.0,0.0,0.0,0.0,0.0,0.0,0.0,0.0,0.0,0.0,0.0,0.0,0.0,0.0,0.0,0.0,0.0,0.0,0.0,0.0,0.0,0.0,0.0,0.0,0.0,0.0,0.0,0.0,0.0,0.0,0.0,0.0,0.0,0.0,0.0,0.0,0.0,0.0,0.0,0.0,0.0,0.0,0.0,0.0,0.0,0.0,0.0,0.0,0.0,0.0,0.0,0.0,0.0,0.0,0.0,0.0,0.0,0.0,0.0,0.0,0.0,0.0,0.0,0.0,0.0,0.0,0.0,0.0,0.0,0.0,0.0,0.0,0.0,0.0,0.0,0.0,0.0,0.0,0.0,0.0,0.0,0.0,0.0,0.0,0.0,0.0,0.0,0.0,0.0,0.0,0.0,0.0,0.0,0.0,0.0,0.0,0.0,0.0,0.0,0.0,0.0,0.0,0.0,0.0,0.0,0.0,0.0,0.0,0.0,0.0,0.0,0.0,0.0,0.0,0.0,0.0,0.0,0.0,0.0,0.0,0.0,0.0,0.0,0.0,0.0,0.0,0.0,0.0,0.0,0.0,0.0,0.0,0.0,0.0,0.0,0.0,0.0,0.0,0.0,0.0,0.0,0.0,0.0,0.0,0.0,0.0,0.0,0.0,0.0,0.0,0.0,0.0,0.0,0.0,0.0,0.0,0.0,0.0,0.0,0.0,0.0,0.0,0.0,0.0,0.0,0.0,0.0,0.0,0.0,0.0,0.0,0.0,0.0,0.0,0.0,0.0,0.0,0.0,0.0,0.0,0.0,0.0,0.0,0.0,0.0,0.0,0.0,0.0,0.0,0.0,0.0,0.0,0.0,0.0,0.0,0.0,0.0,0.0,0.0,0.0,0.0,0.0,0.0,0.0,0.0,0.0,0.0,0.0,0.0,0.0,0.0,0.0,0.0,0.0,0.0,0.0,0.0,0.0,0.0,0.0,0.0,0.0,0.0,0.0,0.0,0.0,0.0,0.0,0.0,0.0,0.0,0.0,0.0,0.0,0.0,0.0,0.0,0.0,0.0,0.0,0.0,0.0,0.0,0.0,0.0,0.0,0.0,0.0,0.0,0.0,0.0,0.0,0.0,0.0,0.0,0.0,0.0,0.0,0.0,0.0,0.0,0.0,0.0,0.0,0.0,0.0,0.0,0.0,0.0,0.0,0.0,0.0,0.0,0.0,0.0,0.0,0.0,0.0,0.0,0.0,0.0,0.0,0.0,0.0,0.0,0.0,0.0,0.0,0.0,0.0,0.0,0.0,0.0,0.0,0.0,0.0,0.0,0.0,0.0,0.0,0.0,0.0,0.0,0.0,0.0,0.0,0.0,0.0,0.0,0.0,0.0,0.0,0.0,0.0,0.0,0.0,0.0,0.0,0.0,0.0,0.0,0.0,0.0,0.0,0.0,0.0,0.0,0.0,0.0,0.0,0.0,0.0,0.0,0.0,0.0,0.0,0.0,0.0,0.0,0.0,0.0,0.0,0.0,0.0,0.0,0.0,0.0,0.0,0.0,0.0,0.0,0.0,0.0,0.0,0.0,0.0,0.0,0.0,0.0,0.0,0.0,0.0,0.0,0.0,0.0,0.0,0.0,0.0,0.0,0.0,0.0,0.0,0.0,0.0,0.0,0.0,0.0,0.0,0.0,0.0,0.0,0.0,0.0,0.0,0.0,0.0,0.0,0.0,0.0,0.0,0.0,0.0,0.0,0.0,0.0,0.0,0.0,0.0,0.0,0.0,0.0,0.0,0.0,0.0,0.0,0.0,0.0,0.0,0.0,0.0,0.0,0.0,0.0,0.0,0.0,0.0,0.0,0.0,0.0,0.0,0.0,0.0,0.0,0.0,0.0,0.0,0.0,0.0,0.0,0.0,0.0,0.0,0.0,0.0,0.0,0.0,0.0,0.0,0.0,0.0,0.0,0.0,0.0,0.0,0.0,0.0,0.0,0.0,0.0,0.0,0.0,0.0,0.0,0.0,0.0,0.0,0.0,0.0,0.0,0.0,0.0,0.0,0.0,0.0,0.0,0.0,0.0,0.0,0.0,0.0,0.0,0.0,0.0,0.0,0.0,0.0,0.0,0.0,0.0,0.0,0.0,0.0,0.0,0.0,0.0,0.0,0.0,0.0,0.0,0.0,0.0,0.0,0.0,0.0,0.0,0.0,0.0,0.0,0.0,0.0,0.0,0.0,0.0,0.0,0.0,0.0,0.0,0.0,0.0,0.0,0.0,0.0,0.0,0.0,0.0,0.0,0.0,0.0,0.0,0.0,0.0,0.0,0.0,0.0,0.0,0.0,0.0,0.0,0.0,0.0,0.0,0.0,0.0,0.0,0.0,0.0,0.0,0.0,0.0,0.0,0.0,0.0,0.0,0.0,0.0,0.0,0.0,0.0,0.0,0.0,0.0,0.0,0.0,0.0,0.0,0.0,0.0,0.0,0.0,0.0,0.0,0.0,0.0,0.0,0.0,0.0,0.0,0.0,0.0,0.0,0.0,0.0,0.0,0.0,0.0,0.0,0.0,0.0,0.0,0.0,0.0,0.0,0.0,0.0,0.0,0.0,0.0,0.0,0.0,0.0,0.0,0.0,0.0,0.0,0.0,0.0,0.0,0.0,0.0,0.0,0.0,0.0,0.0,0.0,0.0,0.0,0.0,0.0,0.0,0.0,0.0,0.0,0.0,0.0,0.0,0.0,0.0,0.0,0.0,0.0,0.0,0.0,0.0,0.0,0.0,0.0,0.0,0.0,0.0,0.0,0.0,0.0,0.0,0.0,0.0,0.0,0.0,0.0,0.0,0.0,0.0,0.0,0.0,0.0,0.0,0.0,0.0,0.0,0.0,0.0,0.0,0.0,0.0,0.0,0.0,0.0,0.0,0.0,0.0,0.0,0.0,0.0,0.0,0.0,0.0,0.0,0.0,0.0,0.0,0.0,0.0,0.0,0.0,0.0,0.0,0.0,0.0,0.0,0.0,0.0,0.0,0.0,0.0,0.0,0.0,0.0,0.0,0.0,0.0,0.0,0.0,0.0,0.0,0.0,0.0,0.0,0.0,0.0,0.0,0.0,0.0,0.0,0.0,0.4847,0.4572,0.0,0.0,0.0,0.0,0.0,0.0,0.0,0.0,0.0,0.0,0.0,0.0,0.0,0.0,0.0,0.0,0.0,0.0,0.0,0.0,0.0,0.0,0.0,0.0,0.0,0.0,0.0,0.0,0.0,0.0,0.0,0.0,0.0,0.0,0.0,0.0,0.0,0.6897,0.6373,0.6872,0.8203,0.8298,0.8115,0.7706,0.0,0.0,0.0,0.0,0.0,0.0,0.0,0.0,0.0,0.0,0.0,0.0,0.0,0.0,0.0,0.0,0.0,0.0,0.0,0.0,0.0,0.0,0.0,0.0,0.0,0.0,0.0,0.0,0.0,0.0,0.0,0.0,0.0,0.0,0.0,0.0,0.0,0.0,0.0,0.0,0.0,0.0,0.0,0.0,0.0,0.0,0.0,0.0,0.0,0.0,0.0,0.0,0.0,0.0,0.0,0.0,0.0,0.0,0.0,0.0,0.0,0.0,0.0,0.0,0.0,0.0,0.0,0.0,0.0,0.0,0.5352,0.5036,0.0,0.0,0.0,0.0,0.0,0.0,0.0,0.0,0.0,0.0,0.0,0.0,0.0,0.0,0.0,0.0,0.0,0.0,0.0,0.0,0.0,0.0,0.0,0.6338,0.6271,0.6295,0.6274,0.6271,0.0,0.0,0.0,0.0,0.0,0.0,0.5993,0.5989,0.6441,0.7495,0.7179,0.7898,0.9438,1.0837,1.1078,1.0385,0.8973,0.0,0.0,0.0,0.0,0.0,0.0,0.0,0.0,0.0,0.0,0.0,0.0,0.0,0.0,0.0,0.0,0.0,0.0,0.0,0.0,0.0,0.0,0.0,0.0,0.0,0.0,0.0,0.0,0.0,0.0,0.0,0.0,0.0,0.0,0.0,0.0,0.0,0.0,0.0,0.0,0.0,0.0,0.0,0.0,0.0,0.0,0.0,0.0,0.0,0.0,0.0,0.0,0.0,0.0,0.0,0.0,0.0,0.0,0.0,0.0,0.0,0.0,0.0,0.6559,0.6569,0.6495,0.6495,0.6495,0.6471,0.6074,0.5739,0.5464,0.5311,0.0,0.0,0.0,0.0,0.0,0.0,0.0,0.0,0.0,0.0,0.0,0.0,0.0,0.0,0.0,0.0,0.0,0.0,0.0,0.0,0.0,0.6338,0.6312,0.6434,0.6332,0.6315,0.6437,0.0,0.0,0.0,0.0,0.0,0.5833,0.583,0.6397,0.7495,1.0048,1.1809,1.282,1.4101,1.4865,1.4851,1.1919,1.0911,1.1316,0.0,0.0,0.0,0.0,0.0,0.0,0.0,0.0,0.0,0.0,0.0,0.0,0.0,0.0,0.0,0.0,0.0,0.0,0.0,0.0,0.0,0.0,0.0,0.0,0.0,0.0,0.0,0.0,0.0,0.0,0.0,0.0,0.0,0.0,0.0,0.0,0.0,0.0,0.0,0.0,0.0,0.5667,0.5708,0.0,0.0,0.0,0.0,0.0,0.0,0.0,0.0,0.0,0.0,0.0,0.0,0.0,0.6739,0.678,0.7309,0.7458,0.7231,0.7756,0.7801,0.7424,0.7424,0.7424,0.7414,0.7221,0.0,0.5928,0.5776,0.0,0.0,0.0,0.0,0.0,0.0,0.0,0.0,0.0,0.0,0.0,0.0,0.0,0.0,0.0,0.0,0.0,0.0,0.0,0.0,0.0,0.6458,0.6566,0.6715,0.6976,0.698,0.6624,0.6698,0.0,0.0,0.0,0.5833,0.5684,0.6321,0.7333,0.8865,1.1969,1.3517,1.3713,1.535,1.6286,1.6553,1.5303,1.3998,1.2694,1.1284,0.0,0.0,0.0,0.0,0.0,0.0,0.0,0.0,0.0,0.0,0.0,0.0,0.0,0.0,0.0,0.0,0.0,0.0,0.0,0.0,0.0,0.0,0.0,0.0,0.0,0.0,0.0,0.0,0.0,0.0,0.0,0.0,0.0,0.0,0.0,0.0,0.0,0.0,0.0,0.5511,0.5898,0.5813,0.6084,0.6152,0.0,0.0,0.0,0.0,0.0,0.0,0.0,0.0,0.0,0.7095,0.7312,0.7546,0.7797,0.8143,0.8296,0.8255,0.8431,0.8414,0.8221,0.8133,0.8096,0.8092,0.8024,0.7678,0.7115,0.6542,0.6132,0.5837,0.0,0.0,0.0,0.0,0.5711,0.5803,0.0,0.0,0.0,0.0,0.0,0.0,0.0,0.0,0.0,0.0,0.0,0.0,0.6566,0.6759,0.6966,0.7193,0.758,0.7577,0.7021,0.6976,0.6705,0.6115,0.5871,0.5818,0.587,0.7517,0.918,1.0854,1.3692,1.508,1.5102,1.6616,1.7468,1.7829,1.7976,1.6762,1.4432,1.2858,1.1824,1.099,0.0,0.0,0.0,0.0,0.0,0.0,0.0,0.0,0.0,0.0,0.0,0.0,0.0,0.0,0.0,0.0,0.0,0.0,0.0,0.0,0.0,0.0,0.0,0.0,0.0,0.0,0.0,0.0,0.0,0.0,0.0,0.0,0.0,0.0,0.0,0.0,0.0,0.5833,0.6203,0.6051,0.6495,0.6624,0.0,0.0,0.0,0.0,0.0,0.0,0.719,0.7285,0.7495,0.7872,0.8058,0.8313,0.8648,0.8804,0.894,0.9049,0.8937,0.8862,0.8818,0.8665,0.8577,0.8537,0.8499,0.8357,0.8089,0.7268,0.6756,0.6458,0.6149,0.603,0.6057,0.6288,0.6396,0.6478,0.0,0.0,0.0,0.0,0.0,0.0,0.0,0.0,0.0,0.0,0.0,0.6427,0.6858,0.7163,0.7512,0.7946,0.7879,0.7794,0.7756,0.697,0.643,0.6257,0.583,0.5931,0.6609,0.9683,1.1996,1.3554,1.5621,1.7188,1.8227,1.8664,1.9118,1.9653,1.9392,1.8758,1.7689,1.6157,1.4737,1.3373,1.1999,0.0,0.0,0.0,0.0,0.0,0.0,0.0,0.0,0.0,0.0,0.0,0.0,0.0,0.0,0.0,0.0,0.0,0.0,0.0,0.0,0.0,0.0,0.0,0.0,0.0,0.0,0.0,0.0,0.0,0.0,0.0,0.0,0.0,0.0,0.0,0.0,0.0,0.0,0.6675,0.7299,0.0,0.0,0.0,0.0,0.7085,0.7366,0.7665,0.7967,0.8252,0.8482,0.8648,0.8937,0.9096,0.912,0.9269,0.9351,0.9357,0.9351,0.9273,0.9127,0.8981,0.8835,0.8693,0.8547,0.8472,0.8414,0.7804,0.7373,0.7065,0.677,0.6654,0.6658,0.6671,0.677,0.6898,0.0,0.0,0.0,0.0,0.0,0.0,0.0,0.0,0.6,0.6098,0.6278,0.6644,0.7292,0.7712,0.8167,0.871,0.8794,0.8927,0.9314,0.7894,0.7321,0.7757,0.6459,0.6791,0.913,1.1278,1.3436,1.5583,1.6869,1.7983,1.8778,1.9265,1.9599,1.9806,1.9887,1.9646,1.9092,1.7789,1.6368,1.4942,1.3885,1.2425,0.0,0.0,0.0,0.0,0.0,0.0,0.0,0.0,0.0,0.0,0.0,0.0,0.0,0.0,0.0,0.0,0.0,0.0,0.0,0.0,0.0,0.0,0.0,0.0,0.0,0.0,0.0,0.0,0.0,0.0,0.0,0.0,0.0,0.0,0.0,0.0,0.0,0.7411,0.8079,0.0,0.7841,0.7794,0.7851,0.7994,0.8197,0.8486,0.8882,0.9096,0.932,0.9564,0.9673,0.973,0.973,0.9785,0.9761,0.9663,0.9571,0.95,0.9442,0.9293,0.9195,0.9133,0.8981,0.8862,0.8754,0.8442,0.8079,0.7689,0.7394,0.7278,0.7288,0.738,0.7448,0.7512,0.0,0.0,0.0,0.0,0.0,0.0,0.0,0.0,0.5857,0.601,0.6332,0.6854,0.7662,0.8238,0.8788,0.933,0.9381,0.9437,0.9684,0.8077,0.7415,0.7849,0.7399,0.8412,1.1299,1.3121,1.5145,1.7308,1.8203,1.8885,1.9372,1.9766,2.0,2.01,2.0301,2.0274,2.0047,1.9252,1.7949,1.6346,1.5464,1.4402,1.3134,0.0,0.0,0.0,0.0,0.0,0.0,0.0,0.0,0.0,0.0,0.0,0.0,0.0,0.0,0.0,0.0,0.0,0.0,0.0,0.0,0.0,0.0,0.0,0.0,0.0,0.0,0.0,0.0,0.0,0.0,0.0,0.0,0.0,0.0,0.7265,0.795,0.8096,0.8777,0.9062,0.8611,0.8662,0.876,0.8855,0.9049,0.9293,0.9591,0.9754,0.9924,1.012,1.0127,1.0127,1.0127,1.0076,0.9998,0.9897,0.9751,0.9656,0.9605,0.9503,0.9432,0.9374,0.9273,0.9147,0.8998,0.8849,0.8581,0.8238,0.7943,0.7824,0.7831,0.7872,0.7889,0.7902,0.0,0.0,0.0,0.0,0.0,0.0,0.0,0.5698,0.5844,0.6003,0.6424,0.7048,0.7946,0.8716,0.9347,0.9795,0.9551,0.9184,0.874,0.7444,0.663,0.6565,0.8663,1.0785,1.2845,1.5376,1.7341,1.8544,1.9406,1.998,2.0261,2.0267,2.0421,2.0688,2.0708,2.0715,2.0708,2.0715,1.9546,1.7615,1.6707,1.5972,1.5231,0.0,0.0,0.0,0.0,0.0,0.0,0.0,0.0,0.0,0.0,0.0,0.0,0.0,0.0,0.0,0.0,0.0,0.0,0.0,0.0,0.0,0.0,0.0,0.0,0.0,0.0,0.0,0.0,0.0,0.0,0.0,0.0,0.0,0.7149,0.7943,0.857,0.8733,0.9398,0.9673,0.9239,0.9459,0.9632,0.9632,0.99,1.0063,1.0063,1.0209,1.0293,1.0293,1.0293,1.029,1.0287,1.0137,1.0059,1.0046,0.9897,0.9754,0.9615,0.9615,0.9537,0.9395,0.9391,0.9303,0.915,0.9005,0.8855,0.8686,0.8391,0.8275,0.8252,0.8102,0.8041,0.8038,0.0,0.0,0.0,0.0,0.0,0.0,0.543,0.5457,0.5576,0.583,0.6451,0.7207,0.8109,0.8971,0.9666,1.0114,0.9578,0.9514,1.0119,0.7884,0.7046,0.8162,1.059,1.2933,1.495,1.6782,1.8357,1.9753,2.0214,2.0581,2.0875,2.1089,2.1116,2.1009,2.1436,2.151,2.1329,2.1537,2.1049,2.0007,1.849,1.7141,1.583,0.0,0.0,0.0,0.0,0.0,0.0,0.0,0.0,0.0,0.0,0.0,0.0,0.0,0.0,0.0,0.0,0.0,0.0,0.0,0.0,0.0,0.0,0.0,0.0,0.0,0.0,0.0,0.0,0.0,0.0,0.0,0.7275,0.775,0.7787,0.8567,0.9269,0.9635,1.0053,1.0259,1.0137,1.0107,1.0097,1.0097,1.0266,1.0368,1.0368,1.0517,1.0599,1.0599,1.0599,1.0544,1.0436,1.0392,1.0263,1.0049,1.0008,0.991,0.9764,0.9764,0.9741,0.9693,0.9591,0.9459,0.9306,0.9157,0.9008,0.8845,0.854,0.836,0.8265,0.8221,0.8136,0.8038,0.0,0.0,0.0,0.0,0.0,0.0,0.5428,0.5428,0.5467,0.5762,0.6512,0.7312,0.8089,0.892,0.9523,0.9785,0.9181,0.8917,0.9276,0.8201,0.8233,0.9926,1.2457,1.4826,1.694,1.8276,1.9439,2.0421,2.0715,2.1009,2.1296,2.147,2.1523,2.1496,2.1964,2.2004,2.1764,2.2178,2.2017,2.139,2.0368,1.9145,1.7809,1.6199,1.5562,1.5219,1.3266,1.2809,1.2859,1.065,0.0,0.0,0.0,0.0,0.0,0.0,0.0,0.0,0.0,0.0,0.0,0.0,0.0,0.0,0.0,0.0,0.0,0.0,0.0,0.0,0.0,0.0,0.0,0.0,0.8062,0.8618,0.8933,0.9374,0.9805,1.0188,1.0443,1.0585,1.0585,1.0514,1.0466,1.0466,1.0541,1.0585,1.0585,1.067,1.0721,1.0721,1.0721,1.0677,1.0588,1.0524,1.0405,1.0232,1.0175,1.0066,0.9917,0.9917,0.9883,0.9815,0.9734,0.9612,0.9466,0.931,0.9161,0.8998,0.0,0.0,0.0,0.0,0.8116,0.8038,0.0,0.0,0.0,0.0,0.0,0.0,0.5428,0.5428,0.5467,0.5762,0.6552,0.7309,0.7875,0.8604,0.9066,0.91,0.856,0.797,0.7383,0.8597,1.0045,1.1642,1.4258,1.6721,1.8657,1.9733,2.0428,2.0728,2.0982,2.1263,2.155,2.1583,2.1757,2.2044,2.2372,2.2378,2.2171,2.2732,2.2645,2.2131,2.2098,2.1363,2.0107,1.8497,1.7956,1.7822,1.5852,1.4805,1.4025,1.2558,0.0,0.0,0.0,0.0,0.0,0.0,0.0,0.0,0.0,0.0,0.0,0.0,0.0,0.0,0.0,0.0,0.0,0.0,0.0,0.0,0.0,0.0,0.0,0.0,0.8866,0.95,1.0205,1.0215,1.0249,1.0514,1.0649,1.0721,1.0721,1.0734,1.0741,1.0721,1.0734,1.0738,1.0721,1.0721,0.0,0.0,0.0,1.0721,1.0721,1.0585,1.051,1.049,1.0365,1.0222,1.0076,1.0076,0.9992,0.9846,0.9846,0.9754,0.9598,0.9445,0.9279,0.9103,0.8821,0.8618,0.8448,0.817,0.8055,0.8038,0.0,0.0,0.0,0.0,0.0,0.0,0.5428,0.5428,0.5467,0.5762,0.6376,0.6919,0.7275,0.7987,0.8537,0.8777,0.8248,0.7695,0.7217,1.0372,1.24,1.2945,1.6088,1.8467,1.9867,2.0354,2.0735,2.1029,2.1082,2.1263,2.1557,2.179,2.2058,2.2358,2.2906,2.312,2.3093,2.3447,2.3387,2.3046,2.2792,2.185,2.0528,1.9947,1.9172,1.837,1.7919,1.7469,1.6971,1.5415,1.453,1.3642,1.0705,0.9119,0.0,0.0,0.0,0.0,0.0,0.0,0.0,0.0,0.0,0.0,0.0,0.0,0.0,0.0,0.0,0.0,0.0,0.0,0.0,0.8882,0.9486,1.0012,1.0395,1.0636,1.0795,1.0853,1.0778,1.0721,1.0721,1.0833,1.0853,1.0727,1.0833,1.085,1.0727,1.0721,1.0721,1.0721,1.0721,1.0721,1.0721,1.069,1.0616,1.049,1.0463,0.0,1.0236,1.0236,1.0151,1.0005,1.0005,0.9852,0.9598,0.9445,0.9222,0.896,0.8781,0.8618,0.8462,0.8289,0.8147,0.8038,0.0,0.0,0.0,0.0,0.0,0.0,0.5415,0.5428,0.5443,0.5667,0.6217,0.6644,0.679,0.7343,0.7706,0.7706,0.7985,0.7837,0.7139,1.142,1.4045,1.4044,1.7421,1.9773,2.0655,2.0815,2.0962,2.1109,2.1256,2.1483,2.1777,2.2218,2.2585,2.2899,2.35,2.3688,2.3581,2.4022,2.3948,2.3534,2.338,2.2605,2.1496,2.1062,2.0254,1.9359,1.9359,1.8891,1.8134,1.7316,1.6362,1.5071,1.3237,1.1233,0.9249,0.0,0.0,0.0,0.0,0.0,0.0,0.0,0.0,0.0,0.0,0.0,0.0,0.0,0.0,0.7621,0.0,0.0,0.9133,0.9727,1.0076,1.0429,1.0877,1.0945,1.0948,1.0948,1.0945,1.0914,1.0843,1.0968,1.0992,1.0846,1.0972,1.0989,1.0843,1.0833,1.0799,1.0721,1.0721,1.0721,1.0721,1.0721,1.068,1.0605,1.0605,1.0527,1.0385,1.0385,1.0263,1.0049,1.0049,0.9924,0.9696,0.9473,0.9249,0.9032,0.8882,0.873,0.857,0.835,0.8221,0.8143,0.0,0.0,0.0,0.0,0.0,0.0,0.0,0.5428,0.5416,0.5569,0.603,0.6342,0.6342,0.6692,0.6827,0.659,0.7712,0.8296,0.7814,1.2062,1.4878,1.546,1.8294,2.0329,2.1189,2.1249,2.1283,2.1283,2.1523,2.1784,2.2078,2.2612,2.306,2.344,2.3968,2.4108,2.3968,2.4436,2.4335,2.3848,2.3728,2.3173,2.2352,2.171,2.0955,2.0221,2.0107,1.9272,1.8243,1.8297,1.7135,1.5634,1.4993,1.2966,1.0513,0.9003,0.7706,0.0,0.0,0.0,0.0,0.0,0.0,0.0,0.0,0.6919,0.7183,0.7662,0.8072,0.8503,0.9015,0.9476,0.9937,1.0415,1.0565,1.0782,1.124,1.1148,1.1023,1.0992,1.1067,1.1087,1.0999,1.1094,1.1114,1.0999,1.1097,1.1101,1.0955,1.0921,1.085,1.0724,1.0721,1.0721,1.0721,1.0721,1.0721,1.0721,1.0721,1.0656,1.0534,1.0534,1.0388,1.0131,1.0073,0.9947,0.9761,0.9523,0.9317,0.9144,0.9025,0.8889,0.872,0.8421,0.8292,0.8248,0.0,0.0,0.0,0.0,0.0,0.0,0.0,0.0,0.5416,0.5569,0.5759,0.5878,0.5878,0.6044,0.6142,0.6108,0.7671,0.9093,1.0105,1.2132,1.4542,1.7555,1.8613,1.985,2.1503,2.1757,2.1884,2.1884,2.1924,2.2084,2.2378,2.2706,2.3173,2.3734,2.4062,2.4329,2.4543,2.4609,2.4449,2.4108,2.3587,2.2993,2.2325,2.1483,2.0775,2.0167,1.9646,1.8531,1.7335,1.7595,1.7344,1.6607,1.4047,1.3122,1.2279,0.859,0.7073,0.6444,0.62,0.6084,0.6156,0.6675,0.6725,0.7,0.0,0.8455,0.8448,0.9035,0.9306,0.9493,0.9686,1.009,1.0415,1.048,1.0826,1.1067,1.1006,1.1196,1.129,1.1155,1.104,1.1016,1.1128,1.1155,1.1155,1.1138,1.1155,1.1101,1.0955,1.0819,1.0738,1.0721,1.0721,1.0721,1.0721,1.0721,1.0721,1.0721,1.0721,1.0711,1.0694,1.0694,1.0602,1.0429,1.0164,0.989,0.9632,0.9598,0.9412,0.915,0.9133,0.9042,0.8876,0.857,0.8377,0.8248,0.0,0.0,0.0,0.0,0.0,0.0,0.0,0.0,0.0,0.5315,0.5528,0.5644,0.5555,0.5603,0.564,0.564,0.7493,0.8703,0.8874,1.1829,1.4024,1.4968,1.758,1.9292,2.0086,2.0222,2.0908,2.1984,2.1067,2.1206,2.2432,2.2906,2.336,2.3788,2.4075,2.4369,2.4623,2.4456,2.4315,2.4135,2.3367,2.2799,2.2305,2.1256,2.0281,1.9419,1.9005,1.7903,0.0,1.6974,1.6881,1.6493,1.5669,1.4145,1.2276,1.0428,0.8424,0.6888,0.7007,0.6993,0.7044,0.7472,0.7723,0.8058,0.8774,0.8974,0.9127,0.9551,0.9829,1.0042,1.0185,1.0439,1.0683,0.0,1.0897,1.1006,1.1297,1.1219,1.1141,1.1162,1.1036,1.0972,1.1033,1.1114,1.1128,1.1046,1.1118,1.1134,1.1077,1.0934,1.0853,1.0853,1.0853,1.0853,1.0853,1.0853,1.0853,1.0853,1.0761,1.0721,1.0721,1.0721,1.0592,1.0354,1.0141,0.9927,0.9727,0.9642,0.9534,0.9401,0.9222,0.9117,0.9025,0.8726,0.8577,0.8492,0.0,0.0,0.0,0.0,0.0,0.0,0.0,0.0,0.0,0.0,0.5362,0.5484,0.5439,0.5428,0.5428,0.5428,0.6954,0.7967,0.8221,1.0819,1.2786,1.3522,1.6121,1.8032,1.9237,1.9364,2.0319,2.2225,2.0981,2.1007,2.2311,2.2832,2.3193,2.3414,2.3794,2.4075,2.4262,2.4135,2.3988,2.3761,2.2946,2.2298,2.1677,2.0428,1.9172,1.8056,1.7929,1.6927,1.5665,1.5625,1.5391,1.513,1.5159,1.3429,1.1364,1.0675,0.897,0.7244,0.7424,0.7594,0.7814,0.8194,0.8625,0.9022,0.9256,0.9507,0.9761,1.0015,1.0246,1.0419,1.048,1.0653,1.0826,1.0955,1.0934,1.1029,1.1385,1.1189,1.1016,1.104,1.0911,1.0822,1.0822,1.0992,1.1077,1.1012,1.1104,1.1162,1.1162,1.1063,1.1006,1.1006,1.1006,1.1006,1.1006,1.0968,1.0948,1.0948,1.0795,1.0721,1.0721,1.0721,1.0561,1.0273,1.0161,1.0002,0.9812,0.971,0.9646,0.9585,0.932,0.9191,0.9123,0.8869,0.8747,0.8672,0.0,0.0,0.0,0.0,0.0,0.0,0.0,0.0,0.0,0.0,0.0,0.0,0.0,0.5428,0.5428,0.5428,0.5783,0.7209,0.9718,0.9172,1.0606,1.4983,1.4364,1.5779,1.9758,2.0036,2.1014,2.2839,2.2552,2.2271,2.2004,2.2305,2.2452,2.2485,2.3086,2.336,2.3387,2.3667,2.344,2.2853,2.2251,2.1323,2.014,1.8677,1.7208,1.5959,1.6239,1.5398,1.4021,1.3232,1.2597,1.1993,1.0434,0.9876,0.9543,0.8004,0.7458,0.7333,0.719,0.758,0.8167,0.8764,0.9249,0.9696,1.0141,1.0351,1.0504,1.066,1.07,1.0663,1.0517,1.0738,1.0846,1.0558,1.0995,1.1277,1.1006,1.1077,1.105,1.0768,1.0599,1.0507,1.0507,1.0778,1.1012,1.1148,1.1162,1.1162,1.1162,1.1158,1.1155,1.1155,1.1155,1.1155,1.1155,1.1019,1.0948,1.0948,1.0795,1.0721,1.0721,1.0721,1.0561,1.028,1.0276,1.01,0.9822,0.9815,0.9734,0.9595,0.9435,0.9283,0.9133,0.8988,0.8838,0.8686,0.0,0.0,0.0,0.0,0.0,0.0,0.0,0.0,0.0,0.0,0.0,0.0,0.0,0.0,0.0,0.0,0.5772,0.6468,0.7646,0.7942,0.8945,1.0733,1.2386,1.3997,1.5292,1.5798,1.7418,2.0364,1.8928,1.9286,2.1403,2.1503,2.1757,2.2138,2.2345,2.2652,2.2999,2.2712,2.2579,2.2452,2.1082,2.0414,2.0027,1.8163,1.654,1.5137,0.0,1.3367,1.249,1.1662,1.1248,1.0983,1.0288,0.9458,0.8552,0.7415,0.7288,0.7621,0.8062,0.8547,0.9072,0.968,1.009,1.0439,1.0785,1.0829,1.0778,1.0731,1.0483,1.0229,1.0076,1.0053,1.0124,1.0321,1.0521,1.0758,1.105,1.105,1.0907,1.0605,1.0704,1.0677,1.0382,1.0531,1.0707,1.086,1.0965,1.1063,1.1158,1.1162,1.1209,1.1311,1.1216,1.1162,1.1162,1.1019,1.0948,1.0948,1.0795,1.0721,1.0717,1.0616,1.0463,1.0276,1.0171,1.0012,0.9822,0.9822,0.9791,0.9734,0.9591,0.9439,0.93,0.9249,0.9076,0.8842,0.0,0.0,0.0,0.0,0.0,0.0,0.0,0.0,0.0,0.0,0.0,0.0,0.0,0.0,0.0,0.0,0.0,0.5942,0.6291,0.7044,0.7685,0.8147,1.0212,1.1637,1.2539,1.2847,1.4394,1.7271,1.6502,1.7202,1.9363,1.9947,2.0374,2.0742,2.0848,2.1102,2.1436,2.1162,2.0969,2.0728,1.9392,1.8651,1.8156,1.6406,1.489,0.0,1.2265,1.1496,1.1022,1.0476,0.9982,0.9624,0.949,0.8653,0.7667,0.7172,0.7438,0.8069,0.876,0.9279,0.9778,1.0432,1.0738,1.0928,1.1118,1.1009,1.0795,1.0534,1.0205,0.989,0.9629,0.9507,0.9578,0.9975,1.0083,1.0324,1.0921,1.0877,1.0731,1.0592,1.0653,1.0616,1.0378,1.0439,1.0555,1.0707,1.0907,1.1063,1.1158,1.1267,1.1372,1.147,1.1324,1.1243,1.1243,1.1046,1.0921,1.0867,1.0768,1.0721,1.0714,1.0561,1.0415,1.0273,1.0117,0.9964,0.9822,0.9822,0.9822,0.9805,0.9663,0.9551,0.9456,0.9401,0.9262,0.9076,0.0,0.0,0.0,0.0,0.0,0.0,0.0,0.0,0.0,0.0,0.0,0.0,0.0,0.0,0.0,0.0,0.0,0.0,0.5956,0.6274,0.677,0.7489,0.7831,0.9105,1.1462,1.1218,1.2048,1.4123,1.5317,1.5964,1.5952,1.7495,1.8227,1.8253,1.8546,1.8678,1.8712,1.9078,1.8698,1.7869,1.7248,1.6172,1.481,1.3621,1.2357,1.1222,1.0296,0.9801,0.955,0.9668,0.896,0.8044,0.799,0.7594,0.718,0.721,0.7845,0.8669,0.9266,0.9761,1.028,1.0995,1.1175,1.1172,1.1165,1.0921,1.0571,1.012,0.988,0.9615,0.9167,0.9096,0.9211,0.9523,0.9713,1.0036,1.0646,1.0612,1.0575,0.0,0.0,0.0,0.0,1.0517,1.0588,1.0734,1.1002,1.1165,1.1172,1.145,1.1606,1.1606,1.146,1.1375,1.1369,1.108,1.0863,1.0721,1.0721,1.0721,1.0714,1.0561,1.0415,1.0273,1.0117,0.9964,0.9822,0.9822,0.9822,0.9805,0.9673,0.9615,0.9591,0.9456,0.9395,0.9361,0.0,0.0,0.0,0.0,0.0,0.0,0.0,0.0,0.0,0.0,0.0,0.0,0.0,0.0,0.0,0.0,0.0,0.0,0.5352,0.585,0.623,0.642,0.7146,0.7872,0.846,0.8682,0.9598,1.1263,1.1614,1.2334,1.3328,1.3848,1.4202,1.4395,1.5371,1.5912,1.6185,1.657,1.6727,1.6613,1.5364,1.4776,1.4389,1.2425,1.1128,1.0134,0.8954,0.8164,0.7849,0.9223,0.9241,0.8515,0.7604,0.7507,0.7729,0.8177,0.8791,0.9429,0.992,1.0456,1.0951,1.1257,1.1335,1.1304,1.1189,1.0765,1.0263,0.9815,0.9242,0.8686,0.8235,0.834,0.8632,0.9042,0.951,1.007,1.0789,1.0948,0.0,1.0741,0.0,1.0992,1.069,1.0863,1.1009,1.1046,1.1121,1.1212,1.1324,1.1406,1.145,1.145,1.1301,1.1168,1.1063,1.0873,1.0758,1.0721,1.0721,1.0721,1.0714,1.0561,1.0415,1.0273,1.0117,0.9964,0.9822,0.9822,0.9822,0.9819,0.9781,0.9703,0.9618,0.9683,0.9571,0.9391,0.0,0.0,0.0,0.0,0.0,0.0,0.0,0.0,0.0,0.0,0.0,0.0,0.0,0.0,0.0,0.0,0.0,0.0,0.0,0.5447,0.5694,0.583,0.6257,0.6522,0.659,0.677,0.7274,0.817,0.883,0.9615,1.0523,1.1284,1.1685,1.191,1.2583,1.2971,1.3181,1.3325,1.3361,0.0,0.0,1.1871,1.1495,1.0149,0.9268,0.8567,0.7905,0.7823,0.8193,0.9011,0.9452,0.9575,0.8917,0.8574,0.8604,0.914,0.9727,1.028,1.0663,1.1155,1.1562,1.1579,1.1487,1.1284,1.087,1.0368,0.9781,0.9069,0.853,0.8048,0.76,0.7712,0.8065,0.0,0.0,0.0,1.0626,1.0819,1.0856,0.0,1.1043,0.0,1.0846,1.1029,1.1162,1.1162,1.1223,1.127,1.129,1.1355,1.1358,1.1294,1.1145,1.0999,1.085,1.0761,1.0721,1.0721,1.0721,1.0721,1.0714,1.0561,1.0415,1.0273,1.0117,0.9964,0.9822,0.9822,0.9822,0.9822,0.9822,0.9771,0.971,0.9791,0.9717,0.9578,0.0,0.0,0.0,0.0,0.0,0.0,0.0,0.0,0.0,0.0,0.0,0.0,0.0,0.0,0.0,0.0,0.0,0.0,0.0,0.0,0.523,0.5515,0.5403,0.5403,0.5555,0.543,0.5426,0.5559,0.6835,0.7469,0.7645,0.9025,0.9661,0.9737,0.9845,0.9972,1.0074,1.0067,0.9824,0.9328,0.9143,0.8654,0.7938,0.0,0.726,0.6944,0.6978,0.7947,0.9203,0.8882,0.9591,1.0688,1.0638,1.0051,0.9615,1.0046,1.0568,1.1067,1.1345,1.1735,1.202,1.1847,1.1565,1.1138,1.0388,0.9825,0.9178,0.8187,0.7828,0.7563,0.7132,0.7227,0.7604,0.8309,0.0,0.9303,1.0344,1.049,1.0605,1.0911,1.0965,1.0978,1.0978,1.109,1.1172,1.1192,1.1297,1.1304,1.1168,1.127,1.127,1.1138,1.0992,1.0863,1.0751,1.0731,1.0721,1.0721,1.0721,1.0721,1.0714,1.0561,1.0415,1.0273,1.0117,0.9964,0.9822,0.9822,0.9822,0.9822,0.9822,0.9822,0.9822,0.9822,0.9822,0.9798,0.0,0.0,0.0,0.0,0.0,0.0,0.0,0.0,0.0,0.0,0.466,0.4567,0.0,0.0,0.0,0.0,0.0,0.0,0.0,0.0,0.0,0.5203,0.5186,0.5243,0.5399,0.5442,0.5439,0.5403,0.5491,0.5582,0.5611,0.5858,0.6017,0.609,0.7033,0.7532,0.755,0.8139,0.8429,0.8372,0.8115,0.7881,0.7665,0.6815,0.0,0.0,0.5512,0.6359,0.7839,0.8952,1.0096,1.0928,1.0128,1.0159,1.0365,1.0694,1.104,1.1355,1.1531,1.1816,1.1996,1.1725,1.1338,1.0826,1.0073,0.9266,0.8486,0.7814,0.736,0.698,0.6651,0.7017,0.7536,0.8035,0.8581,0.9303,1.0344,1.049,1.0605,0.0,1.1053,1.1124,1.1124,1.1148,1.1216,1.1341,1.126,1.1192,1.1165,1.1073,1.1012,1.0985,1.0839,1.0809,1.0907,1.0782,1.0721,1.0721,1.0721,1.0721,1.0714,1.0561,1.0415,1.0273,1.0117,0.9964,0.9822,0.9822,0.9822,0.9822,0.9822,0.9822,0.9822,0.9822,0.9822,0.9798,0.0,0.0,0.0,0.0,0.0,0.0,0.0,0.4766,0.4906,0.522,0.5142,0.4962,0.4724,0.4558,0.4519,0.0,0.0,0.0,0.0,0.0,0.0,0.5013,0.502,0.5053,0.5128,0.5131,0.5131,0.5131,0.0,0.4901,0.4901,0.4901,0.4901,0.4904,0.5525,0.5794,0.5868,0.6176,0.6328,0.6345,0.6297,0.6181,0.6002,0.5549,0.0,0.0,0.5223,0.5769,0.6745,0.7838,0.884,0.993,1.0865,1.0998,1.0789,1.109,1.1389,1.1653,1.1806,1.2064,1.2199,1.1823,1.1277,1.0571,0.9585,0.8723,0.7919,0.717,0.6841,0.6624,0.6403,0.6725,0.7197,0.7726,0.8116,0.8747,0.9873,1.0032,1.0202,1.0656,1.0914,1.1053,1.1053,1.1118,1.1162,1.1162,1.1094,1.1053,1.1053,1.0911,1.0829,1.0829,1.0758,1.0755,1.0829,1.0758,1.068,1.0602,1.068,1.0677,1.0602,1.0609,1.0531,1.0385,1.031,1.0151,0.9941,0.9941,0.9893,0.9822,0.9822,0.9822,0.9822,0.9822,0.9822,0.9798,0.0,0.0,0.0,0.0,0.0,0.0,0.0,0.4789,0.5304,0.5648,0.5631,0.5456,0.5094,0.4789,0.4565,0.0,0.0,0.0,0.0,0.0,0.0,0.0,0.0,0.0,0.4918,0.0,0.0,0.4918,0.4765,0.0,0.0,0.0,0.0,0.0,0.4643,0.4707,0.4813,0.4694,0.466,0.0,0.0,0.4724,0.458,0.0,0.0,0.0,0.0,0.5511,0.5935,0.6573,0.7373,0.8501,1.0697,1.1132,1.0856,1.1121,1.1477,1.182,1.1972,1.223,1.2349,1.1898,1.1202,1.0321,0.9157,0.8255,0.7431,0.66,0.64,0.6342,0.6234,0.6451,0.6837,0.7411,0.7651,0.8163,0.9306,0.9551,0.9819,1.0378,1.0714,1.0911,1.0945,1.1019,1.1036,1.0955,1.0917,1.09,1.09,1.0785,1.0721,1.0721,1.0721,1.0721,1.0721,1.0687,1.0612,1.0493,1.0582,1.0565,1.0453,1.0571,1.0561,1.0443,1.0412,1.0266,1.0046,1.0015,0.993,0.9822,0.9822,0.9822,0.9822,0.9822,0.9822,0.9798,0.0,0.0,0.0,0.0,0.0,0.0,0.0,0.4122,0.5485,0.5941,0.5801,0.5629,0.5573,0.5254,0.4904,0.0,0.0,0.0,0.0,0.0,0.0,0.0,0.0,0.0,0.0,0.0,0.0,0.4918,0.4765,0.0,0.0,0.0,0.0,0.0,0.0,0.4546,0.456,0.4543,0.0,0.0,0.0,0.0,0.0,0.0,0.0,0.0,0.0,0.507,0.5325,0.6071,0.6563,0.7024,0.8048,0.9322,1.0371,1.0527,1.108,1.167,1.1813,1.2077,1.2203,1.1752,1.0975,1.0042,0.8974,0.7936,0.7027,0.6407,0.6169,0.6067,0.6054,0.6295,0.6644,0.7105,0.7428,0.7943,0.8869,0.9351,0.9781,1.0246,1.0561,1.0795,1.0934,1.0836,1.0812,1.0941,1.0819,1.0741,1.0741,1.0727,1.0721,1.0721,1.0721,1.0721,1.0721,1.0582,1.0507,1.049,1.0375,1.0314,1.03,1.0314,1.0314,1.0293,1.0151,1.0073,1.0039,0.99,0.9832,0.9822,0.9822,0.9822,0.9822,0.9822,0.9822,0.9798,0.0,0.0,0.0,0.0,0.0,0.0,0.2155,0.2196,0.2631,0.408,0.546,0.6263,0.6029,0.5606,0.506,0.4567,0.0,0.0,0.0,0.0,0.0,0.0,0.0,0.0,0.0,0.0,0.4646,0.4643,0.4582,0.0,0.0,0.0,0.0,0.0,0.0,0.4519,0.4519,0.4519,0.0,0.0,0.0,0.0,0.0,0.0,0.0,0.0,0.0,0.0,0.5189,0.5586,0.6037,0.6481,0.6746,0.7611,0.872,0.968,1.0426,1.1053,1.1565,1.1925,1.2067,1.1711,1.0873,0.9866,0.8811,0.7763,0.6844,0.6244,0.6071,0.603,0.603,0.6203,0.6491,0.6939,0.6963,0.7268,0.8258,0.855,0.8967,0.9781,1.0137,1.0446,1.0778,1.0755,1.0744,1.0806,1.0755,1.0721,1.0721,1.0721,1.0721,1.0721,1.0721,1.0721,1.0721,1.0568,1.0449,1.0365,1.0307,1.028,1.0283,1.0368,1.046,1.0541,1.048,1.0402,1.031,1.0249,1.012,0.9958,0.9958,0.99,0.9822,0.9822,0.9822,0.9812,0.0,0.0,0.0,0.0,0.0,0.0343,0.1384,0.0673,0.051,0.1959,0.481,0.6394,0.5567,0.4986,0.4566,0.4519,0.449,0.0,0.0,0.0,0.0,0.0,0.0,0.0,0.0,0.0,0.4519,0.4519,0.4563,0.4563,0.0,0.0,0.4563,0.4519,0.0,0.0,0.0,0.0,0.0,0.0,0.0,0.0,0.0,0.0,0.0,0.0,0.0,0.0,0.0,0.0,0.0,0.5915,0.5854,0.6325,0.72,0.8706,0.9659,1.0385,1.1094,1.1504,1.167,1.1416,1.0565,0.953,0.857,0.7543,0.6634,0.6078,0.5962,0.5962,0.5962,0.6125,0.638,0.6736,0.6688,0.6912,0.7787,0.8058,0.8479,0.9313,0.9673,1.0029,1.0477,1.0643,1.0721,1.0721,1.0721,1.0721,1.0721,1.0721,1.0721,1.0721,1.0721,1.07,1.0653,1.0504,1.0354,1.0212,1.0164,1.0144,1.0151,1.0293,1.0419,1.0524,1.0571,1.0504,1.0361,1.0361,1.0212,0.9981,0.9981,0.9917,0.9822,0.9822,0.9795,0.9758,0.0,0.0,0.0,0.0,0.0,0.0,0.0,0.0,0.0,0.0,0.3954,0.5933,0.3887,0.3107,0.3233,0.4422,0.4502,0.0,0.0,0.0,0.0,0.0,0.0,0.0,0.0,0.0,0.4519,0.4519,0.4613,0.4613,0.4522,0.4616,0.4609,0.4519,0.0,0.0,0.0,0.0,0.0,0.0,0.0,0.0,0.0,0.0,0.0,0.0,0.0,0.0,0.0,0.0,0.0,0.0,0.0,0.5576,0.6112,0.7614,0.8798,0.9747,1.0341,1.0727,1.0921,1.0768,0.9941,0.8964,0.8214,0.7231,0.6349,0.5898,0.5803,0.5803,0.5803,0.6054,0.6308,0.6454,0.6729,0.7085,0.7539,0.8109,0.8594,0.891,0.9208,0.9564,1.0012,1.046,1.0721,1.0721,1.0721,1.0721,1.0721,1.0721,1.0721,1.0721,1.0721,1.0649,1.0493,1.0351,1.0205,1.0049,0.9897,0.9825,0.9832,0.9985,1.0056,1.0066,1.0219,1.0198,1.0056,1.0056,0.9964,0.9822,0.9822,0.9822,0.9822,0.9822,0.9734,0.9612,0.0,0.0,0.0,0.0,0.0,0.0,0.0,0.0,0.0,0.0,0.122,0.2478,0.3522,0.3077,0.3212,0.44,0.353,0.0,0.0,0.0,0.0,0.0,0.0,0.0,0.0,0.0,0.4478,0.4525,0.4571,0.4624,0.4796,0.4621,0.4568,0.4518,0.4475,0.448,0.0,0.0,0.0,0.0,0.0,0.0,0.0,0.0,0.0,0.0,0.0,0.0,0.0,0.0,0.0,0.0,0.0,0.0,0.0,0.6468,0.7478,0.8509,0.911,0.9422,0.9537,0.9384,0.8788,0.8069,0.7428,0.6787,0.62,0.5749,0.5657,0.5688,0.5783,0.5966,0.6251,0.6712,0.6865,0.7085,0.7536,0.7933,0.0,0.9011,0.9802,1.0351,1.0493,1.0636,1.0677,1.0571,1.066,1.0673,1.0568,1.0663,1.0721,1.0721,1.0619,1.0541,1.049,1.0246,1.0097,1.0046,0.9893,0.9876,0.9978,1.0025,1.0107,1.0209,1.0259,1.0253,1.0209,1.0209,1.0117,0.9978,0.9978,0.9914,0.9822,0.9822,0.973,0.9608,0.0,0.0,0.0,0.0,0.0,0.0,0.0,0.0,0.0,0.0,0.0,0.059,0.2053,0.191,0.1993,0.2732,0.2429,0.0,0.0,0.0,0.0,0.0,0.0,0.0,0.3641,0.3641,0.3645,0.3648,0.3615,0.3694,0.389,0.3841,0.3776,0.3652,0.3637,0.361,0.0,0.0,0.0,0.0,0.0,0.0,0.4519,0.0,0.0,0.0,0.0,0.0,0.0,0.0,0.0,0.0,0.0,0.0,0.0,0.0,0.6346,0.7153,0.798,0.8316,0.8411,0.8316,0.7882,0.735,0.6865,0.641,0.5993,0.5657,0.5589,0.5616,0.5705,0.5891,0.6152,0.6529,0.6732,0.698,0.7373,0.7733,0.0,0.8903,0.9812,1.0361,1.0307,1.0504,1.0571,1.0422,1.05,1.0514,1.0419,1.0555,1.0609,1.0558,1.0568,1.0497,1.0327,1.0198,1.0076,0.9961,0.9866,0.9869,0.9964,0.9964,1.0015,1.011,1.0168,1.0161,0.0,1.0168,1.0103,0.9964,0.9964,0.9907,0.9822,0.9822,0.9693,0.9523,0.0,0.0,0.0,0.0,0.0,0.0,0.0,0.0,0.0,0.0,0.0,0.0,0.0,0.0,0.0,0.0,0.0,0.0,0.0,0.0,0.0,0.0,0.0,0.0,0.2063,0.2063,0.2041,0.2052,0.206,0.2059,0.2065,0.2388,0.2345,0.2034,0.2034,0.2022,0.0,0.0,0.0,0.0,0.0,0.0,0.0,0.0,0.0,0.0,0.0,0.0,0.0,0.0,0.0,0.0,0.0,0.0,0.0,0.0,0.0,0.0,0.0,0.7333,0.7468,0.7448,0.7126,0.6736,0.643,0.6047,0.0,0.5586,0.5559,0.5572,0.5627,0.5844,0.6037,0.6112,0.6464,0.6837,0.7146,0.7604,0.0,0.0,0.9408,0.9798,0.9656,1.0148,1.0419,1.0276,1.0273,1.0276,1.0263,1.0399,1.0412,1.0266,1.0541,1.0483,1.0053,1.0181,1.0103,0.9822,0.9822,0.9822,0.9822,0.9822,0.9822,0.9829,0.9971,0.9951,0.9832,0.9975,0.9947,0.9822,0.9822,0.9815,0.9805,0.9805,0.9618,0.9364,0.0,0.0,0.0,0.0,0.0,0.0,0.0,0.0,0.0,0.0,0.0,0.0,0.0,0.0,0.0,0.0,0.0,0.0,0.0,0.0,0.0,0.0,0.0,0.0,0.0504,0.0504,0.0512,0.0529,0.0501,0.0522,0.0534,0.0563,0.0622,0.0511,0.0511,0.0487,0.0,0.0,0.0,0.0,0.0,0.0,0.0,0.0,0.0,0.0,0.4519,0.4519,0.0,0.0,0.0,0.0,0.0,0.0,0.0,0.0,0.5047,0.5138,0.542,0.0,0.6169,0.5945,0.5806,0.565,0.0,0.5287,0.5277,0.5247,0.5237,0.5416,0.5996,0.5966,0.6118,0.6926,0.7044,0.718,0.7597,0.8336,0.0,0.9191,0.9785,1.0114,0.9961,1.0178,1.0266,1.0114,1.0212,1.0229,1.011,1.0249,1.0259,1.0107,1.0287,1.0276,1.0049,0.9968,0.9893,0.9822,0.9822,0.9822,0.9822,0.9822,0.9822,0.9822,0.9859,0.9852,0.9825,0.9859,0.9852,0.9822,0.9822,0.9754,0.9659,0.9659,0.9466,0.9208,0.0,0.0,0.0,0.0,0.0,0.0,0.0,0.0,0.0,0.0,0.0,0.0,0.0,0.0,0.0,0.0,0.0,0.0,0.0,0.0,0.0,0.0,0.0,0.0,0.0,0.0,0.0,0.0,0.0,0.0,0.0,0.0,0.0,0.0,0.0,0.0,0.0,0.0,0.0,0.0,0.3183,0.0,0.0,0.0,0.0,0.0,0.4519,0.4519,0.0,0.464,0.4643,0.4613,0.0,0.0,0.0,0.0,0.4813,0.483,0.4901,0.5304,0.5667,0.5504,0.5515,0.5504,0.5277,0.5176,0.5131,0.5131,0.5131,0.5298,0.585,0.5871,0.6054,0.6834,0.6946,0.7166,0.7824,0.0,0.9055,0.9347,0.9788,1.0036,0.0,1.0083,1.011,0.9958,1.0022,1.0032,0.9947,1.009,1.0103,0.9947,1.0093,1.01,0.9944,0.993,0.989,0.9822,0.9822,0.9822,0.9822,0.9822,0.9822,0.9822,0.9822,0.9822,0.9822,0.9822,0.9822,0.9815,0.9747,0.9676,0.9602,0.953,0.9354,0.9154,0.0,0.0,0.0,0.0,0.0,0.0,0.0,0.0,0.0,0.0,0.0,0.0,0.0,0.0,0.0,0.0,0.0,0.0,0.0,0.0,0.0,0.0,0.0,0.0,0.0,0.0,0.0,0.0,0.0,0.0,0.0,0.0,0.0,0.0,0.0,0.0,0.0,0.0,0.0,0.0,0.1339,0.0,0.0,0.0,0.0,0.0,0.0,0.0,0.0,0.4613,0.4585,0.457,0.4623,0.0,0.0,0.0,0.0,0.0,0.4897,0.5264,0.5572,0.5504,0.563,0.5722,0.5528,0.5287,0.5104,0.5125,0.5148,0.5267,0.5596,0.5793,0.6051,0.6502,0.6759,0.7193,0.8024,0.8509,0.892,0.93,0.9608,0.0,0.9724,0.9856,0.9893,0.9764,0.9774,0.9788,0.9788,0.993,0.9954,0.9825,0.9947,0.9951,0.9822,0.9947,0.9947,0.9822,0.9822,0.9822,0.9822,0.9822,0.9822,0.9822,0.9822,0.9822,0.9822,0.9822,0.9822,0.9805,0.9663,0.9595,0.9557,0.9401,0.9252,0.9117,0.0,0.0,0.0,0.0,0.0,0.0,0.0,0.0,0.0,0.0,0.0,0.0,0.0,0.0,0.0,0.0,0.0,0.0,0.0,0.0,0.0,0.0,0.0,0.0,0.0,0.0,0.0,0.0,0.0,0.0,0.0,0.0,0.0,0.0,0.0,0.0,0.0,0.0,0.0,0.0,0.0,0.0,0.0,0.0,0.0,0.0,0.0,0.0,0.0,0.4543,0.4568,0.4636,0.4587,0.0,0.0,0.0,0.0,0.0,0.4989,0.5338,0.5498,0.5118,0.5325,0.5518,0.5114,0.4986,0.4986,0.5104,0.5237,0.5457,0.5884,0.6186,0.6515,0.6963,0.0,0.8014,0.0,0.0,0.911,0.9178,0.0,0.954,0.9283,0.9395,0.9476,0.9449,0.9568,0.9642,0.9642,0.9778,0.9846,0.9822,0.9842,0.9846,0.9822,0.9842,0.9842,0.9822,0.9822,0.9822,0.9822,0.9822,0.9822,0.9822,0.9822,0.9822,0.9822,0.9822,0.9822,0.9805,0.9663,0.953,0.9398,0.9245,0.9096,0.8954,0.0,0.0,0.0,0.0,0.0,0.0,0.0,0.0,0.0,0.0,0.0,0.0,0.0,0.0,0.0,0.0,0.0,0.0,0.0,0.0,0.0,0.0,0.0,0.0,0.0,0.0,0.0,0.0,0.0,0.0,0.0,0.0,0.0,0.0,0.0,0.0,0.0,0.0,0.0,0.0,0.0,0.0,0.0,0.0,0.0,0.0,0.0,0.0,0.0,0.0,0.4567,0.4555,0.4539,0.0,0.0,0.0,0.0,0.0,0.4714,0.5111,0.5379,0.5009,0.5379,0.5752,0.5464,0.5274,0.522,0.5447,0.5549,0.5715,0.6084,0.6396,0.677,0.7302,0.0,0.8292,0.8659,0.8899,0.9096,0.0,0.0,0.9432,0.9289,0.934,0.9381,0.9381,0.9445,0.9486,0.9486,0.9547,0.9585,0.9585,0.9585,0.9625,0.9707,0.9707,0.9744,0.9822,0.9822,0.9822,0.9822,0.9822,0.9822,0.9822,0.9822,0.9822,0.9815,0.9737,0.9707,0.9683,0.9452,0.932,0.9242,0.9093,0.8994,0.8916,0.0,0.0,0.0,0.0,0.0,0.0,0.0,0.0,0.0,0.0,0.0,0.0,0.0,0.0,0.0,0.0,0.0,0.0,0.0,0.0,0.0,0.0,0.0,0.0,0.0,0.0,0.0,0.0,0.0,0.0,0.0,0.0,0.0,0.0,0.0,0.0,0.0,0.0,0.0,0.0,0.0,0.0,0.0,0.0,0.0,0.0,0.0,0.0,0.0,0.0,0.0,0.0,0.0,0.0,0.0,0.4529,0.4519,0.4539,0.4592,0.4931,0.522,0.5064,0.5501,0.5956,0.5874,0.5681,0.561,0.5945,0.604,0.6125,0.6329,0.6634,0.0,0.7658,0.8075,0.8425,0.8723,0.8893,0.9072,0.93,0.93,0.9262,0.9228,0.9225,0.9225,0.9225,0.9286,0.9327,0.9327,0.9361,0.9381,0.9381,0.9381,0.9456,0.9608,0.9574,0.9646,0.9822,0.9822,0.9822,0.9819,0.9785,0.9771,0.9771,0.9734,0.9717,0.971,0.9602,0.9557,0.953,0.9259,0.913,0.9089,0.8981,0.8916,0.8869,0.0,0.0,0.0,0.0,0.0,0.0,0.0,0.0,0.0,0.0,0.0,0.0,0.0,0.0,0.0,0.0,0.0,0.0,0.0,0.0,0.0,0.0,0.0,0.0,0.0,0.0,0.0,0.0,0.0,0.0,0.0,0.0,0.0,0.0,0.0,0.0,0.0,0.0,0.0,0.0,0.0,0.0,0.0,0.0,0.0,0.0,0.0,0.0,0.0,0.0,0.0,0.0,0.0,0.0,0.4646,0.456,0.4519,0.4555,0.4969,0.5016,0.5009,0.5267,0.5576,0.585,0.5983,0.5996,0.6105,0.6546,0.6749,0.681,0.6692,0.7027,0.7522,0.8123,0.836,0.8574,0.8879,0.0,0.9147,0.9167,0.9052,0.8913,0.8771,0.8757,0.8757,0.8757,0.9011,0.9167,0.9167,0.9303,0.9381,0.9381,0.9381,0.9456,0.9608,0.9469,0.954,0.9822,0.9822,0.9822,0.9815,0.9686,0.9625,0.9615,0.9473,0.9412,0.9412,0.9401,0.9398,0.9381,0.9215,0.9069,0.8954,0.8944,0.8849,0.8723,0.0,0.0,0.0,0.0,0.0,0.0,0.0,0.0,0.0,0.0,0.0,0.0,0.0,0.0,0.0,0.0,0.0,0.0,0.0,-0.1738,-0.1964,-0.0056,0.0,0.0,0.0,0.0,0.0,0.0,0.0,0.0,0.0,0.0,0.0,0.0,0.0,0.0,0.0,0.0,0.0,0.0,0.0,0.0,0.0,0.0,0.0,0.0,0.0,0.0,0.0,0.0,0.4563,0.4594,0.4536,0.456,0.4594,0.4536,0.4519,0.4556,0.467,0.4766,0.4882,0.5021,0.5319,0.5636,0.5922,0.6173,0.6458,0.7007,0.7163,0.7241,0.737,0.738,0.757,0.817,0.8391,0.8587,0.8896,0.8984,0.9018,0.9018,0.8889,0.8737,0.8584,0.8655,0.871,0.871,0.8903,0.9018,0.9018,0.9076,0.9106,0.9106,0.9106,0.9178,0.9323,0.9269,0.9344,0.9547,0.9547,0.9547,0.9547,0.9493,0.9466,0.9462,0.9405,0.9381,0.9374,0.9279,0.9239,0.9225,0.9076,0.9042,0.9062,0.8971,0.8957,0.8971,0.0,0.0,0.0,0.0,0.0,0.0,0.0,0.0,0.0,0.0,0.0,0.0,0.0,0.0,0.0,0.0,0.0,0.0,-0.0716,-0.2619,-0.3086,-0.1511,-0.0949,-0.0677,-0.0694,-0.0695,-0.0476,0.0,0.0,0.0,0.0,0.0,0.0,0.0,0.0,0.0,0.0,0.0,0.0,0.0,0.0,0.0,0.0,0.0,0.0,0.0,0.0,0.0,0.0,0.0,0.4473,0.4522,0.4519,0.4519,0.4519,0.4519,0.4519,0.4522,0.4522,0.4617,0.4677,0.4203,0.474,0.5447,0.5743,0.6245,0.68,0.7448,0.7621,0.7702,0.7764,0.7627,0.775,0.0,0.8418,0.857,0.8828,0.8866,0.8849,0.8801,0.8662,0.853,0.8425,0.8509,0.857,0.857,0.871,0.8815,0.8862,0.8866,0.8889,0.8937,0.894,0.9008,0.915,0.911,0.9161,0.931,0.9262,0.9317,0.9449,0.9354,0.9337,0.9374,0.9283,0.9266,0.93,0.9198,0.9154,0.9147,0.91,0.911,0.9147,0.9096,0.911,0.9137,0.0,0.0,0.0,0.0,0.0,0.0,0.0,0.0,0.0,0.0,0.0,0.0,0.0,0.0,0.0,0.0,0.0,0.0,-0.234,-0.2247,-0.2905,-0.4438,-0.3019,-0.2232,-0.2232,-0.2232,-0.1465,0.0,0.0,0.0,0.0,0.0,0.0,0.0,0.0,0.0,0.0,0.0,0.0,0.0,0.0,0.0,0.0,0.0,0.0,0.0,0.0,0.0,0.0,0.0,0.448,0.4477,0.4522,0.4519,0.4519,0.4519,0.4525,0.448,0.448,0.4649,0.4354,0.264,0.3816,0.543,0.5362,0.6139,0.7143,0.7889,0.8163,0.8123,0.7792,0.7852,0.8136,0.8431,0.8479,0.8533,0.8686,0.8706,0.8652,0.8499,0.8353,0.8269,0.8269,0.8272,0.8272,0.8272,0.8404,0.855,0.8699,0.871,0.8777,0.893,0.8933,0.9005,0.9147,0.9008,0.9008,0.9147,0.9008,0.9171,0.9595,0.9289,0.9235,0.9361,0.9066,0.9018,0.915,0.915,0.915,0.9164,0.9317,0.9286,0.9171,0.932,0.9283,0.9154,0.0,0.0,0.0,0.0,0.0,0.0,0.0,0.0,0.0,0.0,0.0,0.0,0.0,0.0,0.0,0.0,0.0,0.0,-0.385,-0.3793,-0.403,-0.4497,-0.4089,-0.3805,-0.3811,-0.3811,-0.2583,0.0,0.0,0.0,0.0,0.0,0.0,0.0,0.0,0.0,0.0,0.0,0.0,0.0,0.0,0.0,0.0,0.0,0.0,0.0,0.0,0.0,0.0,0.0,0.0,0.0,0.4477,0.4541,0.4602,0.4549,0.4541,0.4606,0.4553,0.3779,0.3171,0.3866,0.4688,0.5079,0.3775,0.5305,0.7257,0.7885,0.7975,0.7905,0.789,0.7836,0.0,0.8286,0.8333,0.8384,0.853,0.8465,0.8384,0.834,0.8201,0.8109,0.8109,0.8208,0.8272,0.8272,0.8404,0.8503,0.8547,0.855,0.857,0.8615,0.8618,0.8638,0.8679,0.8747,0.8801,0.8842,0.8906,0.9008,0.9133,0.9042,0.9028,0.9066,0.8977,0.8964,0.9001,0.9001,0.9001,0.9008,0.9052,0.9103,0.9147,0.9089,0.9106,0.9137,0.0,0.0,0.0,0.0,0.0,0.0,0.0,0.0,0.0,0.0,-0.2294,-0.308,0.0,0.0,0.0,0.0,0.0,0.0,0.0,-0.4453,-0.4477,-0.4484,-0.4477,-0.4477,-0.4484,-0.4484,-0.3613,-0.1782,-0.1183,-0.0564,0.0,0.0,0.0,0.0,0.0,0.0,0.0,0.0,0.0,0.0,0.0,0.0,0.0,0.0,0.0,0.0,0.0,0.0,0.0,0.0,0.0,0.0,0.4144,0.4545,0.4652,0.4675,0.4661,0.4599,0.4507,0.3795,0.3416,0.4708,0.5225,0.4953,0.3258,0.5187,0.7478,0.7935,0.8002,0.8041,0.7978,0.7949,0.0,0.8231,0.8272,0.8299,0.8387,0.8326,0.8248,0.8184,0.8096,0.8038,0.8038,0.8126,0.8177,0.8177,0.8258,0.8333,0.8394,0.8397,0.8425,0.8479,0.8482,0.8482,0.8482,0.8574,0.8652,0.8713,0.8804,0.8879,0.894,0.894,0.8967,0.9025,0.9025,0.9025,0.9028,0.9089,0.9079,0.9028,0.9089,0.9137,0.9164,0.9137,0.9144,0.9157,0.0,0.0,0.0,0.0,0.0,0.0,0.0,0.0,0.0,0.0,-0.2645,-0.2368,0.0,0.0,0.0,0.0,0.0,0.0,0.0,-0.4382,-0.4519,-0.4519,-0.4519,-0.4519,-0.4519,-0.4519,-0.4522,-0.4477,-0.307,-0.1729,-0.0391,-0.0112,0.0,0.0,0.0,0.0,0.0,0.0,0.0,0.0,0.0,0.0,0.0,0.0,0.0,0.0,0.0,0.0,0.0,0.0,0.0,0.0,0.3249,0.4163,0.434,0.456,0.4514,0.4356,0.4287,0.4408,0.4628,0.5212,0.5138,0.4535,0.3165,0.4959,0.7147,0.7899,0.8194,0.8231,0.8016,0.7979,0.8116,0.8248,0.8258,0.8255,0.8269,0.8258,0.8197,0.8055,0.8038,0.8038,0.8038,0.8028,0.8018,0.8018,0.8018,0.8082,0.8221,0.8241,0.8309,0.8438,0.8442,0.8442,0.8442,0.8455,0.8533,0.8669,0.8682,0.8764,0.8899,0.8927,0.9011,0.9133,0.9133,0.9133,0.9147,0.9286,0.9262,0.9154,0.9293,0.9276,0.9184,0.9089,0.8935,0.8824,0.0,0.0,0.0,0.0,0.0,0.0,0.0,0.0,0.0,0.0,0.0,0.0,0.0,0.0,0.0,0.0,0.0,0.0,0.0,-0.4382,-0.4519,-0.4519,-0.4519,-0.4519,-0.4519,-0.4519,-0.4519,-0.4522,-0.419,-0.386,-0.3474,-0.1117,0.0,0.0,0.0,0.0,0.0,0.0,0.0,0.0,0.0,0.0,0.0,0.0,0.0,0.0,0.0,0.0,0.0,0.0,0.0,0.0,0.0781,0.1762,0.2715,0.2757,0.2904,0.3007,0.2759,0.3551,0.4532,0.4674,0.2934,0.1083,0.0773,0.1178,0.2875,0.7079,0.7985,0.8046,0.8028,0.8039,0.8096,0.8245,0.817,0.8133,0.8252,0.8167,0.8075,0.8041,0.8038,0.8038,0.8038,0.7929,0.7862,0.7862,0.7862,0.7875,0.7909,0.8024,0.8102,0.8133,0.8136,0.8136,0.8136,0.8255,0.8333,0.8367,0.8479,0.855,0.8587,0.8828,0.8954,0.8984,0.8984,0.8994,0.9015,0.9049,0.894,0.893,0.8963,0.8957,0.8706,0.6442,0.5525,0.5848,0.0,0.0,0.0,0.0,0.0,0.0,0.0,0.0,0.0,0.0,0.0,0.0,0.0,0.0,0.0,0.0,0.0,0.0,0.0,0.0,-0.4519,-0.4519,-0.4519,-0.4519,-0.4519,-0.4519,-0.4519,-0.4519,-0.4525,-0.4477,-0.4487,-0.3008,-0.1486,0.0,0.0,0.0,0.0,0.0,0.0,0.0,0.0,0.0,0.0,0.0,0.0,0.0,0.0,0.0,0.0,0.0,0.0,0.0,0.0,0.0,0.1143,0.1124,0.1245,0.1372,0.1179,0.1704,0.2367,0.2345,0.1158,0.0,0.0,0.0,0.0779,0.3606,0.6253,0.8006,0.7975,0.8016,0.8079,0.8147,0.8092,0.8069,0.8147,0.8092,0.8038,0.8038,0.8038,0.8038,0.8038,0.7899,0.7811,0.7811,0.7811,0.778,0.7712,0.7919,0.8007,0.7933,0.8001,0.8038,0.8038,0.8119,0.8197,0.8272,0.8347,0.8418,0.8486,0.8648,0.8726,0.8737,0.8737,0.8862,0.8774,0.7325,0.6811,0.6754,0.6808,0.7607,0.8682,0.7152,0.4809,0.2512,0.0,0.0,0.0,0.0,0.0,0.0,0.0,0.0,0.0,0.0,0.0,0.0,0.0,0.0,0.0,0.0,0.0,0.0,0.0,0.0,0.0,-0.4519,-0.4519,-0.4519,-0.4519,-0.4519,-0.4519,-0.4519,-0.4519,-0.4549,-0.4558,-0.4721,-0.3404,-0.0821,-0.0235,0.0,0.0,0.0,0.0,0.0,0.0,0.0,0.0,0.0,0.0,0.0,0.0,0.0,0.0,0.0,0.0,0.0,0.0,0.0,0.0,0.0,0.0,0.0,0.0,0.0,0.0,0.0,0.0,0.0,0.0,0.0,0.0,0.0,0.3557,0.6936,0.7865,0.7972,0.7965,0.8041,0.8038,0.8038,0.8038,0.8038,0.8028,0.8004,0.8001,0.7991,0.7967,0.7824,0.7736,0.7736,0.7736,0.7685,0.7567,0.7818,0.7916,0.7814,0.7933,0.8014,0.8038,0.8038,0.8102,0.8231,0.8235,0.8299,0.8411,0.8411,0.8452,0.8625,0.8085,0.8319,0.8666,0.628,0.4609,0.3684,0.3737,0.5266,0.732,0.7324,0.4262,0.0,0.0,0.0,0.0,0.0,0.0,0.0,0.0,0.0,0.0,0.0,-0.4009,0.0,0.0,0.0,0.0,0.0,0.0,0.0,-0.4519,0.0,0.0,-0.4519,-0.4519,-0.4519,-0.4519,-0.4519,-0.4519,-0.4519,-0.4519,-0.4599,-0.4857,-0.4817,-0.4588,-0.4054,-0.1231,0.0,0.0,0.0,0.0,0.0,0.0,0.0,0.0,0.0,0.0,0.0,0.0,0.0,0.0,0.0,0.0,0.0,0.0,0.0,0.0,0.0,0.0,0.0,0.0,0.0,0.0,0.0,0.0,0.0,0.0,0.0,0.0,0.0,0.0582,0.2464,0.7135,0.7972,0.7965,0.8041,0.8038,0.8038,0.8038,0.8038,0.7991,0.7858,0.7841,0.7794,0.7672,0.7519,0.7431,0.7431,0.7431,0.7421,0.7404,0.7563,0.7706,0.7807,0.7831,0.7906,0.8038,0.8038,0.8052,0.8069,0.7989,0.8009,0.8029,0.8039,0.8279,0.8516,0.6054,0.65,0.891,0.8471,0.5239,0.0642,0.064,0.0854,0.1177,0.1174,0.064,0.0,0.0,0.0,0.0,0.0,0.0,0.0,0.0,0.0,0.0,0.0,0.0,-0.4267,0.0,0.0,0.0,-0.4368,-0.4426,-0.4519,-0.4519,-0.4519,-0.4519,-0.4519,-0.4519,-0.4519,-0.4519,-0.4519,-0.4519,-0.4519,-0.4519,-0.4619,-0.4918,-0.4938,-0.504,-0.5074,-0.3448,-0.1713,0.0,0.0,0.0,0.0,0.0,0.0,0.0,0.0,0.0,0.0,0.0,0.0,0.0,0.0,0.0,0.0,0.0,0.0,0.0,0.0,0.0,0.0,0.0,0.0,0.0,0.0,0.0,0.0,0.0,0.0,0.0,0.0,0.0,0.1129,0.4846,0.6854,0.7912,0.7824,0.7862,0.7882,0.7804,0.7794,0.777,0.7699,0.7692,0.7668,0.7604,0.7461,0.737,0.737,0.737,0.7333,0.7248,0.7468,0.759,0.7563,0.7726,0.7804,0.7794,0.7957,0.8045,0.7959,0.7969,0.7256,0.5834,0.7281,0.8079,0.8193,0.6938,0.5485,0.3935,0.3935,0.2394,0.0,0.0,0.0,0.0,0.0,0.0,0.0,0.0,0.0,0.0,0.0,0.0,0.0,0.0,0.0,0.0,0.0,0.0,0.0,0.0,0.0,0.0,0.0,-0.4519,-0.4519,-0.4519,-0.4519,-0.4519,-0.4519,-0.4519,-0.4519,-0.4519,-0.4519,-0.4519,-0.4519,-0.4519,-0.4636,-0.4972,-0.5043,-0.5215,-0.5501,-0.5243,-0.3677,-0.1187,-0.0353,0.0,0.0,0.0,0.0,0.0,0.0,0.0,0.0,0.0,0.0,0.0,0.0,0.0,0.0,0.0,0.0,0.0,0.0,0.0,0.0,0.0,0.0,0.0,0.0,0.0,0.0,0.0,0.0,0.0,0.0,0.0,0.0535,0.2381,0.5477,0.7788,0.7645,0.7689,0.7723,0.7614,0.76,0.7587,0.7546,0.7543,0.7526,0.7485,0.738,0.7312,0.7312,0.7312,0.7261,0.7146,0.7356,0.7448,0.7373,0.7584,0.7668,0.76,0.7821,0.794,0.796,0.8007,0.6913,0.5099,0.7077,0.8032,0.7928,0.6589,0.3739,0.0,0.0,0.0,0.0,0.0,0.0,0.0,0.0,0.0,0.0,0.0,0.0,0.0,0.0,0.0,0.0,0.0,0.0,0.0,0.0,0.0,0.0,-0.4519,-0.4519,-0.4519,-0.4519,-0.4519,-0.4519,-0.4519,-0.4519,-0.4519,-0.4519,-0.4519,0.0,-0.4519,-0.4519,-0.4519,-0.4519,-0.4519,-0.4687,-0.5114,-0.4989,-0.5237,-0.5786,-0.5863,-0.5401,-0.438,-0.1271,0.0,0.0,0.0,0.0,0.0,0.0,0.0,0.0,0.0,0.0,0.0,0.0,0.0,0.0,0.0,0.0,0.0,0.0,0.0,0.0,0.0,0.0,0.0,0.0,0.0,0.0,0.0,0.0,0.0,0.0,0.0,0.0,0.0169,0.398,0.7272,0.7624,0.7614,0.7607,0.76,0.76,0.7546,0.74,0.7383,0.7326,0.718,0.7156,0.7153,0.7153,0.7153,0.7149,0.7139,0.7156,0.7227,0.7366,0.7387,0.7461,0.7597,0.7722,0.7736,0.7739,0.7925,0.7909,0.7815,0.7979,0.7955,0.7746,0.2629,0.0303,0.0,0.0,0.0,0.0,0.0,0.0,0.0,0.0,0.0,0.0,0.0,0.0,0.0,0.0,0.0,0.0,0.0,0.0,0.0,0.0,0.0,0.0,0.0,-0.4519,-0.4519,-0.4519,-0.4519,-0.4519,-0.4519,-0.4519,-0.4519,-0.4519,-0.4519,-0.4519,-0.4519,-0.4519,-0.4519,-0.4519,-0.4519,-0.4596,-0.485,-0.4897,-0.4979,-0.5091,-0.5209,-0.5297,-0.5294,-0.3728,-0.1894,-0.0057,-0.101,-0.2015,-0.2695,-0.0727,0.0,0.0,0.0,0.0,0.0,0.0,0.0,0.0,0.0,0.0,0.0,0.0,0.0,0.0,0.0,0.0,0.0,0.0,0.0,0.0,0.0,0.0,0.0,0.0,0.0,0.0,0.0,0.1399,0.359,0.6643,0.7204,0.7255,0.7051,0.7109,0.7149,0.7092,0.7166,0.72,0.7146,0.7058,0.7004,0.7004,0.6912,0.6858,0.6858,0.6858,0.6885,0.6939,0.7034,0.721,0.7472,0.7389,0.755,0.7861,0.7931,0.6233,0.2848,0.287,0.2899,0.2731,0.0808,0.0,0.0,0.0,0.0,0.0,0.0,-0.212,-0.5157,-0.5157,-0.4034,-0.2614,0.0,0.0,0.0,0.0,0.0,0.0,0.0,0.0,0.0,-0.4519,0.0,0.0,0.0,0.0,-0.4519,-0.4519,-0.4519,-0.4519,-0.4519,-0.4519,-0.4519,-0.4519,-0.4519,-0.4519,-0.4519,-0.4519,-0.4519,-0.4519,-0.4519,-0.4541,-0.4694,-0.4741,-0.4765,-0.4769,-0.4765,-0.4973,-0.5363,-0.5038,-0.3618,-0.1644,-0.2017,-0.3102,-0.4305,-0.2249,0.0,0.0,0.0,0.0,0.0,0.0,0.0,0.0,0.0,0.0,0.0,0.0,0.0,0.0,0.0,0.0,0.0,0.0,0.0,0.0,0.0,0.0,0.0,0.0,0.0,0.0,0.0,0.0,0.102,0.3987,0.5908,0.687,0.6736,0.6709,0.677,0.6854,0.6936,0.6993,0.6993,0.6909,0.6851,0.6851,0.6759,0.6702,0.6702,0.6702,0.6702,0.6705,0.6814,0.6641,0.6155,0.6812,0.7275,0.7726,0.6051,0.3425,0.0,0.0,-0.0881,-0.238,-0.2594,-0.271,-0.2726,-0.2726,-0.2119,-0.131,-0.131,-0.3528,-0.6776,-0.7701,-0.6871,-0.5331,0.0,0.0,0.0,0.0,0.0,0.0,0.0,0.0,-0.4519,-0.4519,0.0,0.0,0.0,0.0,0.0,-0.4519,-0.4519,-0.4519,-0.4519,-0.4519,-0.4519,-0.4519,-0.4519,-0.4519,-0.4519,-0.4519,-0.4519,-0.4519,-0.4519,-0.4594,-0.468,-0.4587,-0.4619,-0.4894,-0.4596,-0.4545,-0.4694,-0.4977,-0.4959,-0.4629,0.0,-0.314,-0.451,0.0,0.0,0.0,-0.3392,-0.4489,0.0,-0.1142,0.0,0.0,0.0,0.0,0.0,0.0,0.0,0.0,0.0,0.0,0.0,0.0,0.0,0.0,0.0,0.0,0.0,0.0,0.0,0.0,0.0,0.0,0.0,0.0,0.3622,0.6469,0.6526,0.6526,0.6612,0.6688,0.6692,0.6695,0.6702,0.6698,0.6695,0.6695,0.6688,0.6688,0.6688,0.6688,0.6692,0.6705,0.6649,0.5692,0.3718,0.5832,0.6893,0.6857,0.2196,0.0,-0.0,-0.0189,-0.2765,-0.7108,-0.7738,-0.798,-0.8009,-0.8019,-0.6467,-0.4117,-0.4117,-0.4117,-0.442,-0.7065,-0.7989,-0.7989,0.0,0.0,0.0,0.0,0.0,-0.4519,-0.4519,-0.4519,-0.4519,0.0,0.0,0.0,-0.4519,-0.4519,-0.4519,-0.4519,-0.4519,-0.4519,-0.4519,-0.4519,-0.4519,-0.4519,-0.4519,-0.4519,-0.4519,-0.4519,-0.4519,-0.4519,-0.4519,-0.4539,-0.458,-0.4536,-0.4563,-0.4585,-0.4556,-0.4539,-0.4584,-0.4632,0.0,-0.4538,-0.4033,-0.4104,0.0,0.0,0.0,0.0,0.0,-0.355,-0.4376,0.0,-0.183,0.0,0.0,0.0,0.0,0.0,0.0,0.0,0.0,0.0,0.0,0.0,0.0,0.0,0.0,0.0,0.0,0.0,0.0,0.0,0.0,0.0,0.0,0.0,0.1036,0.2396,0.3873,0.5396,0.6362,0.6383,0.6568,0.6671,0.6692,0.66,0.6536,0.0,0.6441,0.6383,0.6383,0.639,0.5747,0.4143,0.563,0.6128,0.5573,0.3204,0.1976,0.1931,0.0618,0.0,-0.0093,-0.354,-0.5855,-0.7108,-0.753,-0.7637,-0.7578,-0.7905,-0.7582,-0.6859,-0.6859,-0.6856,-0.6954,-0.7772,-0.7969,-0.7952,0.0,0.0,0.0,0.0,0.0,-0.4519,-0.4519,-0.4519,-0.4519,0.0,0.0,0.0,-0.4519,-0.4519,-0.4519,-0.4519,-0.4519,-0.4519,-0.4519,-0.4519,-0.4519,-0.4519,-0.4519,-0.4519,-0.4519,-0.4519,-0.4519,-0.4519,-0.4519,-0.4519,-0.4519,-0.4519,-0.4519,-0.4519,-0.4519,-0.4519,-0.4519,0.0,0.0,0.0,-0.4522,0.0,0.0,-0.382,-0.3606,0.0,0.0,0.0,-0.448,-0.4515,-0.2513,0.0,0.0,0.0,0.0,0.0,0.0,0.0,0.0,0.0,0.0,0.0,0.0,0.0,0.0,0.0,0.0,0.0,0.0,0.0,0.0,0.0,0.0,0.0,0.0,0.0421,0.1639,0.2896,0.4061,0.5147,0.5924,0.6321,0.6318,0.6244,0.622,0.6281,0.6217,0.6203,0.6271,0.6291,0.574,0.4472,0.3905,0.3712,0.3668,0.1237,0.0,0.0,0.0,-0.1062,-0.3015,-0.5871,-0.7119,-0.7105,-0.7488,-0.761,-0.7533,-0.7774,-0.7875,-0.7875,-0.7875,-0.7908,-0.7959,-0.7959,-0.7952,-0.8038,0.0,0.0,-0.4494,-0.448,-0.4525,-0.4519,-0.4519,-0.4519,-0.4519,0.0,-0.4519,-0.4525,-0.4539,-0.4529,-0.4525,-0.4543,-0.4529,-0.4519,-0.4519,-0.4519,-0.4519,-0.4519,-0.4519,-0.4519,-0.4519,-0.4519,-0.4519,-0.4519,-0.4519,-0.4519,-0.4519,-0.4519,-0.4519,-0.4519,-0.4519,0.0,-0.4519,0.0,0.0,-0.4519,-0.4519,-0.4492,0.0,0.0,-0.4518,-0.4524,-0.4515,-0.4518,-0.4527,-0.4474,-0.2613,0.0,0.0,0.0,0.0,0.0,0.0,0.0,0.0,0.0,0.0,0.0,0.0,0.0,0.0,0.0,0.0,0.0,0.0,0.0,0.0,0.0,0.0,0.0,0.0,0.0,0.0,0.0,0.0903,0.3418,0.5015,0.583,0.5776,0.5779,0.584,0.5996,0.5806,0.5881,0.6264,0.6308,0.6087,0.5608,0.1963,0.0,0.0,0.0,-0.0249,-0.078,-0.078,-0.2897,-0.6764,-0.6949,-0.7115,-0.7101,-0.7472,-0.7577,-0.756,-0.7702,-0.778,-0.7811,-0.7811,-0.7892,-0.8018,-0.8031,-0.8038,-0.8038,0.0,-0.365,-0.449,-0.4525,-0.4519,-0.4519,-0.4519,-0.4519,-0.4519,-0.4519,-0.4519,-0.4567,-0.4633,-0.4591,-0.4567,-0.4636,-0.4587,-0.4519,-0.4519,-0.4519,-0.4519,-0.4519,-0.4519,-0.4519,-0.4519,-0.4519,-0.4519,-0.4519,-0.4519,-0.4519,-0.4519,-0.4519,-0.4519,-0.4519,-0.4519,-0.4519,-0.4519,0.0,0.0,-0.4519,-0.4519,0.0,-0.4511,-0.4485,-0.4495,-0.4498,-0.4495,-0.4498,-0.4488,-0.4473,-0.3309,-0.1579,0.0,0.0,0.0,0.0,0.0,0.0,0.0,0.0,0.0,0.0,0.0,0.0,0.0,0.0,0.0,0.0,0.0,0.0,0.0,0.0,0.0,0.0,0.0,0.0,0.0,0.0,0.0639,0.2357,0.4085,0.5246,0.561,0.563,0.5768,0.5999,0.4551,0.4473,0.6215,0.6338,0.4729,0.1335,0.0393,0.0,0.0,0.0,-0.1943,-0.5695,-0.5695,-0.5193,-0.4383,-0.6275,-0.7091,-0.7094,-0.7346,-0.735,-0.7241,-0.7394,-0.7597,-0.7811,-0.7811,-0.7828,-0.7872,-0.7994,-0.8038,-0.8038,-0.1904,-0.346,-0.449,-0.4522,-0.4519,-0.4519,-0.4519,-0.4519,-0.4546,-0.4565,-0.4643,-0.4691,-0.4691,-0.4691,-0.4691,-0.4691,-0.4619,-0.4545,-0.4522,-0.4519,-0.4519,-0.4519,-0.4519,-0.4519,-0.4519,-0.4519,-0.4519,-0.4519,-0.4519,-0.4519,-0.4519,-0.4519,-0.4519,-0.4519,-0.4519,-0.4519,-0.4519,0.0,-0.4519,-0.4519,-0.4519,0.0,-0.4519,-0.4519,-0.4519,-0.4519,-0.4519,-0.4519,-0.4477,-0.4519,-0.3462,0.0,0.0,0.0,0.0,0.0,0.0,0.0,0.0,0.0,0.0,0.0,0.0,0.0,0.0,0.0,0.0,0.0,0.0,0.0,0.0,0.0,0.0,0.0,0.0,0.0,0.0,0.0,0.0305,0.1001,0.321,0.4855,0.5185,0.5262,0.5471,0.5711,0.5061,0.4242,0.32,0.3125,0.2161,0.0077,0.0,0.0,0.0,0.0,-0.2239,-0.6668,-0.6996,-0.6439,-0.5282,-0.6508,-0.7078,-0.7078,-0.7309,-0.7684,-0.8139,-0.8227,-0.8635,-0.9254,-0.8695,-0.8615,-0.8868,-0.9526,-0.9816,-0.9899,-0.1931,-0.3439,-0.449,-0.4522,-0.4519,-0.4519,-0.4519,-0.4519,-0.4573,-0.467,-0.4823,-0.4894,-0.4826,-0.4904,-0.4945,-0.4908,-0.4799,-0.4694,-0.4599,-0.4594,-0.4549,-0.4519,-0.4519,-0.4519,-0.4519,-0.4519,-0.4519,-0.4519,-0.4519,-0.4519,-0.4519,-0.4519,-0.4519,-0.4519,-0.4519,-0.4519,-0.4519,0.0,0.0,-0.4519,0.0,-0.4519,-0.4519,-0.4519,-0.4519,-0.4519,-0.4519,-0.4519,-0.4484,-0.4515,-0.3664,-0.2345,-0.0559,0.0,0.0,0.0,0.0,0.0,0.0,0.0,0.0,0.0,0.0,0.0,0.0,0.0,0.0,0.0,0.0,0.0,0.0,0.0,0.0,0.0,0.0,0.0,0.0,0.0,0.0,0.0,0.2649,0.4537,0.4702,0.4706,0.4825,0.5352,0.5224,0.3579,0.0215,0.0,0.0,0.0,0.0,-0.031,-0.1006,-0.1167,-0.2921,-0.6341,-0.6737,-0.6972,-0.6857,-0.6984,-0.7044,-0.7146,-0.7541,-0.8219,-0.9101,-0.928,-0.9901,-1.0711,-0.9768,-0.9727,-1.0233,-1.1109,-1.1647,-1.1945,-0.1896,-0.3436,-0.449,-0.4522,-0.4519,-0.4519,-0.4519,-0.4519,-0.4573,-0.467,-0.4823,-0.5013,-0.526,-0.5179,-0.526,-0.5644,-0.5196,-0.4938,-0.5047,0.0,-0.4606,-0.4522,-0.4519,-0.4519,-0.4519,-0.4519,-0.4519,-0.4519,-0.4519,-0.4519,-0.4519,-0.4519,-0.4519,-0.4519,-0.4519,-0.4519,0.0,0.0,-0.4519,0.0,-0.4519,-0.4519,0.0,-0.4519,-0.4519,-0.4519,-0.4519,-0.4519,-0.4525,0.0,-0.4396,-0.3758,0.0,0.0,0.0,0.0,0.0,0.0,0.0,0.0,0.0,0.0,0.0,0.0,0.0,0.0,0.0,0.0,0.0,0.0,0.0,0.0,0.0,0.0,0.0,0.0,0.0,0.0,0.0,0.0,0.265,0.4515,0.4529,0.3583,0.3668,0.5303,0.2515,0.053,0.0,0.0,0.0,0.0,0.0,-0.1544,-0.4724,-0.5292,-0.5797,-0.6312,-0.6548,-0.6761,-0.6929,-0.6949,-0.7024,-0.7139,-0.8212,-0.8836,-0.9007,-1.0043,-1.0477,-1.0584,-1.0603,-1.0829,-1.1154,-1.1432,-1.1647,-1.1945,-0.1906,-0.3444,-0.449,-0.4522,-0.4519,-0.4519,-0.4519,-0.4817,-0.4945,-0.4836,-0.5257,-0.561,0.0,0.0,0.0,0.0,0.0,-0.5345,0.0,0.0,-0.4796,-0.4728,-0.4643,-0.4596,-0.4596,-0.4563,-0.4519,-0.4519,-0.4519,-0.4519,-0.4519,-0.4519,-0.4519,-0.4519,-0.4519,0.0,-0.4519,0.0,-0.4519,0.0,0.0,0.0,0.0,-0.4519,-0.4519,-0.4519,-0.4519,-0.4519,-0.4519,0.0,-0.3916,0.0,0.0,0.0,0.0,0.0,0.0,0.0,0.0,0.0,0.0,0.0,0.0,0.0,0.0,0.0,0.0,0.0,0.0,0.0,0.0,0.0,0.0,0.0,0.0,0.0,0.0,0.0,0.0,0.0,0.0,0.0,0.4394,0.3209,0.2352,0.2277,0.0874,0.0,0.0,0.0,0.0,0.0,0.0,-0.1749,-0.5349,-0.6023,-0.627,-0.6146,-0.6472,-0.6965,-0.7562,-0.7846,-0.8312,-0.8897,-0.9611,-1.0265,-1.0869,-1.1381,-1.1992,-1.2613,-1.2727,-1.258,-1.2489,-1.3232,-1.3818,-1.4178,-0.1397,-0.3189,-0.449,-0.4525,-0.4519,-0.4532,-0.4573,-0.4958,-0.5145,-0.5053,0.0,0.0,-0.6135,-0.6251,0.0,0.0,-0.6108,-0.5789,0.0,0.0,-0.5003,0.0,0.0,0.0,0.0,-0.4541,-0.4519,-0.4519,-0.4519,-0.4519,-0.4519,-0.4519,-0.4519,-0.4519,-0.4519,-0.4519,-0.4519,0.0,-0.4519,-0.4519,-0.4519,-0.4519,-0.4519,-0.4519,-0.4519,-0.4519,-0.4519,-0.4519,-0.4519,-0.4522,-0.3738,0.0,-0.2785,0.0,0.0,0.0,0.0,0.0,0.0,0.0,0.0,0.0,0.0,0.0,0.0,0.0,0.0,0.0,0.0,0.0,0.0,0.0,0.0,0.0,0.0,0.0,0.0,0.0,0.0,0.0,0.0,0.0,0.0,0.3467,0.2047,0.012,0.0,0.0,0.0,0.0,-0.0459,-0.1465,-0.1454,-0.2764,-0.537,-0.5928,-0.6162,-0.5983,-0.6599,-0.7315,-0.8053,-0.8651,-0.9424,-1.0208,-1.0704,-1.1492,-1.2328,-1.2674,-1.3294,-1.4088,-1.4088,-1.3909,-1.3767,-1.4687,-1.5331,-1.5832,-0.0056,-0.2458,-0.4494,-0.448,-0.4525,-0.4567,-0.466,0.0,0.0,0.0,0.0,0.0,0.0,0.0,0.0,0.0,0.0,-0.624,-0.6227,0.0,-0.522,0.0,0.0,-0.4691,0.0,0.0,-0.4519,-0.4519,-0.4519,-0.4519,-0.4519,-0.4519,-0.4519,-0.4519,-0.4519,-0.4519,-0.4519,-0.4519,-0.4519,-0.4519,-0.4519,-0.4519,-0.4519,0.0,-0.4519,-0.4519,-0.4519,0.0,0.0,-0.4473,-0.4477,0.0,0.0,0.0,0.0,0.0,0.0,0.0,0.0,0.0,0.0,0.0,0.0,0.0,0.0,0.0,0.0,0.0,0.0,0.0,0.0,0.0,0.0,0.0,0.0,0.0,0.0,0.0,0.0,0.0,0.0,0.0,0.0,0.444,0.321,0.0225,0.0,0.0,0.0,0.0,-0.1582,-0.5132,-0.522,-0.5281,-0.5393,-0.5828,-0.5971,-0.5813,-0.7163,-0.788,-0.8045,-0.9001,-0.9712,-1.0282,-1.1372,-1.2015,-1.2413,-1.3555,-1.4088,-1.4088,-1.4088,-1.4449,-1.4963,-1.4963,-1.5331,-1.5832,-0.1289,-0.2294,-0.3297,0.0,0.0,0.0,0.0,-0.5172,0.0,0.0,0.0,0.0,0.0,-0.7275,-0.7299,0.0,0.0,-0.6715,-0.642,-0.6027,0.0,0.0,0.0,-0.5192,0.0,0.0,0.0,-0.4613,-0.4567,-0.4519,-0.4519,-0.4519,-0.4519,-0.4519,-0.4519,-0.4519,0.0,0.0,0.0,0.0,0.0,-0.458,-0.4602,0.0,-0.4519,-0.4519,-0.4519,-0.4519,0.0,-0.4522,-0.4473,-0.4421,-0.3904,-0.4086,-0.4324,-0.3297,-0.1562,0.0,0.0,0.0,0.0,0.0,0.0,0.0,0.0,0.0,0.0,0.0,0.0,0.0,0.0,0.0,0.0,0.0,0.0,0.0,0.0,0.0,0.0,0.0,0.0,0.0,0.0,0.3343,0.4098,0.3037,0.1138,0.0,0.0,0.0,-0.1487,-0.4709,-0.5161,-0.5342,-0.5226,-0.56,-0.5792,-0.5803,-0.7032,-0.8063,-0.887,-1.0097,-1.112,-1.1933,-1.2523,-1.3325,-1.4302,-1.4739,-1.5435,-1.6206,-1.6206,-1.6484,-1.6799,-1.6023,-1.607,-1.6706,-0.1909,-0.2183,0.0,0.0,0.0,0.0,0.0,0.0,0.0,0.0,-0.6783,0.0,-0.7682,0.0,-0.7695,0.0,-0.7478,-0.7112,-0.6664,-0.6403,0.0,-0.5684,-0.5616,0.0,0.0,0.0,0.0,0.0,-0.4619,-0.4545,-0.4545,-0.4543,-0.4519,-0.4519,-0.4519,-0.4519,-0.4519,-0.4519,-0.4519,0.0,0.0,-0.4577,0.0,0.0,-0.4553,-0.4591,0.0,-0.4519,-0.4519,-0.4519,-0.4522,-0.4473,-0.4519,-0.4473,-0.4484,-0.448,-0.3125,-0.1505,-0.0949,-0.0391,0.0,0.0,0.0,0.0,0.0,0.0,0.0,0.0,0.0,0.0,0.0,0.0,0.0,0.0,0.0,0.0,0.0,0.0,0.0,0.0,0.0,0.0,0.0,0.1754,0.2878,0.2925,0.1118,0.0,0.0,0.0,-0.1105,-0.3597,-0.4664,-0.5188,-0.5078,-0.5447,-0.5741,-0.5803,-0.7329,-0.8481,-0.9377,-1.0901,-1.2031,-1.2835,-1.334,-1.4195,-1.5298,-1.5682,-1.6365,-1.7342,-1.7342,-1.7483,-1.7719,-1.6954,-1.7116,-1.7768,-0.1915,0.0,0.0,0.0,-0.4752,0.0,0.0,0.0,-0.6162,0.0,-0.6898,-0.7292,-0.76,-0.7746,-0.7882,-0.8028,-0.7777,-0.7424,-0.698,-0.6807,0.0,0.0,-0.5694,-0.5545,-0.5442,0.0,0.0,0.0,0.0,-0.4691,-0.4687,-0.4591,-0.4519,-0.4519,-0.4519,0.0,-0.4519,-0.4519,-0.4519,-0.4519,-0.4519,-0.4522,-0.4529,-0.4522,-0.4558,-0.467,-0.4573,-0.4519,-0.4519,-0.4519,-0.4519,-0.4519,-0.4519,-0.4519,-0.4519,-0.4477,-0.448,-0.4193,-0.2734,-0.1283,-0.0223,-0.0223,-0.0168,0.0,0.0,0.0,0.0,0.0,0.0,0.0,0.0,0.0,0.0,0.0,0.0,0.0,0.0,0.0,0.0,0.0,0.0,0.0,0.0,0.0,0.0,0.0,0.0,0.0,0.0,-0.0168,-0.0851,-0.2161,-0.3945,-0.4944,-0.5118,-0.5426,-0.5654,-0.5871,-0.8047,-0.9216,-0.9448,-1.1403,-1.2533,-1.2871,-1.3773,-1.4667,-1.5507,-1.6355,-1.7058,-1.7496,-1.7496,-1.7713,-1.8021,-1.7895,-1.8324,-1.9029,-0.2216,-0.3628,-0.4671,0.0,-0.503,-0.5199,0.0,0.0,0.0,0.0,-0.7431,-0.7756,-0.8065,-0.8028,-0.7997,-0.8035,-0.7865,0.0,0.0,0.0,0.0,-0.6169,-0.6108,-0.5911,-0.5538,-0.5345,0.0,-0.5077,0.0,-0.4691,-0.4687,-0.4591,-0.4519,-0.4519,-0.4519,-0.4519,-0.4519,-0.4519,-0.4519,-0.4519,-0.4519,-0.4587,-0.4619,0.0,-0.4558,-0.467,-0.4573,-0.4519,-0.4519,-0.4519,-0.4519,-0.4519,-0.4519,-0.4519,-0.4519,-0.4522,-0.4473,-0.4421,-0.4036,-0.3641,-0.3363,-0.3368,-0.2464,-0.1619,0.0,0.0,0.0,0.0,0.0,0.0,0.0,0.0,0.0,0.0,0.0,0.0,0.0,0.0,0.0,0.0,0.0,0.0,0.0,0.0,0.0,0.0,0.0,0.0,0.0,-0.2132,-0.2983,-0.2203,-0.4073,-0.5013,-0.4972,-0.527,-0.5953,-0.6928,-0.825,-0.9414,-1.049,-1.1694,-1.2707,-1.3506,-1.3726,-1.5133,-1.724,-1.7468,-1.8488,-1.9756,-1.9756,-2.0264,-2.0791,-1.9815,-1.9922,-2.0697,-0.2707,0.0,0.0,-0.5528,0.0,0.0,-0.5983,0.0,0.0,-0.7309,-0.7685,0.0,-0.8058,-0.8113,-0.8113,-0.8045,-0.7899,0.0,-0.739,0.0,0.0,-0.638,-0.6295,-0.6078,-0.5691,-0.5471,0.0,-0.5233,0.0,-0.485,-0.4789,-0.4704,-0.4589,-0.4522,-0.4587,-0.458,-0.4519,-0.4519,-0.4519,-0.4519,-0.4519,-0.457,0.0,-0.4553,-0.457,-0.4579,-0.4549,-0.4519,-0.4519,-0.4519,-0.4519,-0.4519,-0.4519,-0.4519,-0.4519,-0.4519,-0.4522,-0.4473,-0.448,-0.4196,-0.3978,-0.4383,-0.3869,-0.3188,-0.3188,-0.2573,-0.1566,0.0,0.0,0.0,0.0,0.0,0.0,0.0,0.0,0.0,0.0,0.0,0.0,0.0,0.0,0.0,0.0,0.0,0.0,0.0,0.0,-0.0586,-0.1902,-0.3599,-0.4104,-0.3239,-0.4531,-0.5123,-0.4918,-0.5661,-0.6454,-0.7354,-0.8689,-0.9856,-1.0858,-1.2278,-1.3164,-1.3745,-1.4593,-1.599,-1.7596,-1.8044,-1.9049,-2.037,-2.1008,-2.1811,-2.2563,-2.2017,-2.2139,-2.2569,-0.2695,0.0,0.0,0.0,0.0,0.0,0.0,-0.6753,0.0,-0.7394,0.0,-0.8011,-0.7858,-0.8079,-0.8184,-0.8052,0.0,-0.7695,-0.7417,-0.7363,-0.7092,-0.6525,-0.6329,-0.6095,-0.581,-0.5511,-0.5428,0.0,0.0,-0.5067,-0.4945,-0.4928,-0.4765,-0.4553,-0.4629,0.0,0.0,-0.4546,-0.4546,-0.4546,-0.4546,-0.4536,-0.4519,-0.4519,-0.4519,-0.4519,-0.4519,-0.4519,-0.4519,-0.4519,-0.4519,-0.4519,-0.4519,-0.4519,-0.4519,-0.4519,-0.4519,-0.4519,-0.4519,-0.3846,-0.34,-0.4307,-0.4487,-0.449,-0.449,-0.4501,-0.3708,-0.0894,-0.0112,0.0,0.0,0.0,0.0,0.0,0.0,0.0,0.0,0.0,0.0,0.0,0.0,0.0,0.0,0.0,0.0,0.0,0.0,-0.1317,-0.433,-0.4511,-0.4501,-0.448,-0.5022,-0.5266,-0.516,-0.6338,-0.7151,-0.7744,-0.934,-1.0491,-1.1181,-1.291,-1.381,-1.4163,-1.586,-1.6872,-1.7477,-1.827,-1.9213,-2.0252,-2.1634,-2.2776,-2.3728,-2.4157,-2.4389,-2.4419,0.0,0.0,0.0,0.0,0.0,-0.7088,-0.7166,-0.7353,-0.7543,-0.7712,-0.8024,-0.817,-0.8018,-0.8048,-0.8069,-0.8041,-0.7899,0.0,0.0,0.0,0.0,-0.6675,-0.6281,-0.5986,-0.5803,-0.5511,-0.5428,0.0,0.0,-0.5118,-0.5091,-0.4972,-0.4823,-0.4653,-0.4677,0.0,-0.465,-0.465,0.0,-0.465,-0.465,-0.4575,-0.4519,-0.4519,-0.4519,-0.4519,-0.4519,-0.4519,-0.4519,-0.4519,-0.4519,-0.4519,-0.4519,-0.4519,-0.4519,-0.4519,-0.4519,-0.4519,-0.4473,-0.4356,-0.4294,-0.4477,-0.4473,-0.4525,-0.4525,-0.4477,-0.3974,-0.2176,-0.0837,0.0,0.0,0.0,0.0,0.0,0.0,0.0,0.0,0.0,0.0,0.0,0.0,0.0,0.0,0.0,0.0,0.0,0.0,-0.1329,-0.434,-0.4504,-0.4494,-0.448,-0.4792,-0.5557,0.0,-0.6719,-0.7836,-1.0056,-1.0061,-1.1096,-1.2848,-1.3475,-1.4593,-1.614,-1.6419,-1.7302,-1.835,-1.8562,-1.9625,-2.1261,-2.2665,-2.3818,-2.4719,-2.4813,-2.5361,-2.5978,0.0,0.0,0.0,0.0,0.0,0.0,0.0,-0.7848,0.0,-0.7824,-0.794,-0.8004,-0.7929,-0.7991,-0.8007,-0.7929,-0.7787,-0.7638,-0.7492,-0.72,-0.6932,-0.6709,-0.6346,-0.604,-0.5806,-0.5589,-0.544,-0.5428,0.0,-0.5209,-0.5131,-0.5145,-0.5026,-0.4809,-0.4809,-0.4809,0.0,0.0,0.0,-0.4809,-0.4809,-0.4765,-0.4701,-0.4701,-0.465,-0.4579,-0.4579,-0.4584,-0.4519,-0.4519,-0.4519,-0.4519,-0.4519,-0.4519,-0.4519,-0.4519,-0.4519,-0.4519,-0.4525,-0.4522,-0.4519,-0.4525,-0.4522,-0.4519,-0.4519,-0.4525,-0.4307,-0.3519,-0.2174,-0.1116,-0.1118,-0.0503,0.0,0.0,0.0,0.0,0.0,0.0,0.0,0.0,0.0,0.0,0.0,0.0,0.0,0.0,-0.1448,-0.2642,-0.3249,-0.4092,-0.4484,-0.4525,0.0,0.0,-0.6617,0.0,-0.8829,-1.0158,-1.0831,-1.1948,-1.3337,-1.4383,-1.5462,-1.6636,-1.7139,-1.7949,-1.9066,-2.0,-2.1209,-2.2624,-2.381,-2.4921,-2.5804,-2.5804,-2.6094,-2.6389,0.0,-0.1817,0.0,0.0,-0.7804,0.0,-0.8024,-0.817,-0.8184,-0.794,-0.7879,-0.7862,-0.7862,-0.7967,-0.7977,-0.7824,-0.7682,-0.7536,-0.7383,-0.7065,-0.6827,-0.6705,-0.6386,-0.6081,-0.5806,-0.5661,-0.5515,0.0,0.0,0.0,-0.5182,-0.5304,-0.522,-0.4962,0.0,0.0,0.0,0.0,-0.4965,-0.4965,-0.4965,-0.4945,-0.4918,-0.4918,-0.4823,-0.4691,-0.4691,-0.4592,-0.4519,-0.4519,-0.4519,-0.4519,-0.4519,-0.4519,-0.4519,-0.4519,-0.4519,-0.4519,-0.4519,-0.4519,-0.4519,-0.4519,-0.4519,-0.4519,-0.4519,-0.4525,-0.4477,-0.448,-0.3522,-0.2681,-0.2681,-0.173,0.0,0.0,0.0,0.0,0.0,0.0,0.0,0.0,0.0,0.0,-0.1178,-0.0647,-0.0442,-0.0485,-0.2967,-0.3989,-0.2732,-0.3858,-0.4473,-0.4519,0.0,-0.6476,-0.6646,0.0,-0.9747,-1.0336,-1.1708,-1.2838,-1.3837,-1.5342,-1.6464,-1.7179,-1.7978,-1.8787,-1.9692,-2.1464,-2.2703,-2.3597,-2.4677,-2.5763,-2.6782,-2.6782,-2.6837,-2.704,0.0,0.0,0.0,0.0,0.0,0.0,-0.8058,-0.817,-0.8258,-0.8231,-0.8106,-0.8018,-0.8018,-0.8031,-0.7977,-0.7824,-0.7682,-0.7536,-0.7383,-0.6963,-0.6715,-0.6702,-0.6285,-0.5973,-0.5803,-0.5661,-0.5515,0.0,0.0,-0.5422,0.0,-0.5422,-0.527,0.0,0.0,0.0,0.0,-0.5111,-0.5111,-0.5111,-0.5111,-0.5033,-0.4918,-0.4918,-0.4823,-0.4691,-0.4691,-0.4592,-0.4519,-0.4519,-0.4519,-0.4519,-0.4519,-0.4519,-0.4519,-0.4519,-0.4519,-0.4519,-0.4519,-0.4519,-0.4519,-0.4519,-0.4519,-0.4519,-0.4519,-0.4519,-0.4522,-0.4477,-0.4373,-0.4268,-0.4268,-0.4154,-0.3641,0.0,0.0,0.0,0.0,0.0,-0.1012,-0.3744,0.0,0.0,-0.4092,-0.2789,-0.2006,-0.1998,-0.3577,-0.4432,-0.4307,-0.4421,-0.4473,-0.4519,-0.5635,-0.6837,-0.8153,-0.8941,-1.0392,-1.24,-1.2729,-1.3677,-1.5337,-1.6179,-1.7415,-1.9034,-1.9166,-1.9683,-2.056,-2.2034,-2.3007,-2.3628,-2.5024,-2.6365,-2.7604,-2.7604,-2.8117,-2.8748,0.0,0.0,0.0,0.0,0.0,0.0,0.0,-0.8231,-0.8238,-0.8143,-0.8079,-0.8038,-0.8038,-0.8038,-0.7943,-0.7706,-0.7634,-0.7495,-0.7248,-0.6898,-0.6702,-0.6702,-0.6359,-0.6095,-0.5942,-0.5884,-0.5739,0.0,0.0,0.0,0.0,0.0,0.0,0.0,0.0,-0.5216,-0.527,-0.527,-0.527,-0.527,-0.527,-0.5237,-0.5186,-0.5186,-0.5087,-0.4945,-0.4857,-0.4728,-0.4585,-0.4549,-0.4519,-0.4519,-0.4519,-0.4519,-0.4519,-0.4519,-0.4519,-0.4519,-0.4519,-0.4519,-0.4519,-0.4519,-0.4519,-0.4519,-0.4519,-0.4519,-0.4519,-0.4522,-0.4473,-0.4477,-0.4477,-0.448,-0.4314,-0.3688,0.0,0.0,0.0,0.0,0.0,-0.2961,0.0,-0.4515,-0.4518,-0.3944,-0.3607,0.0,0.0,-0.449,-0.448,-0.4908,-0.5117,-0.5109,0.0,-0.8147,-0.924,-1.0265,-1.1529,-1.2885,-1.3725,-1.4585,-1.5533,-1.7069,-1.8613,-2.0139,-2.0655,-2.1037,-2.1498,-2.3256,-2.4377,-2.5192,-2.6374,-2.7525,-2.8492,-2.8492,-2.8684,-2.9066,0.0,0.0,-0.3956,0.0,-0.8147,-0.8024,-0.8238,-0.8231,-0.8163,-0.8055,-0.8038,-0.8038,-0.8038,-0.8038,-0.7923,-0.7628,-0.76,-0.7468,-0.716,-0.6865,-0.6702,-0.6702,-0.6417,0.0,-0.6034,-0.603,-0.5905,-0.565,-0.565,0.0,0.0,0.0,0.0,0.0,-0.5447,-0.543,-0.5426,-0.5449,-0.5428,-0.5428,-0.5428,-0.5428,-0.5428,-0.5428,-0.524,-0.5053,-0.4955,-0.4792,-0.4606,-0.4556,-0.4519,-0.4519,-0.4519,-0.4519,-0.4519,-0.4519,-0.4519,-0.4519,-0.4519,-0.4519,-0.4519,-0.4519,-0.4519,-0.4519,-0.4519,-0.4519,-0.4519,-0.4519,-0.4519,-0.4519,-0.4519,-0.4525,-0.4473,-0.4473,0.0,0.0,0.0,-0.358,0.0,-0.2901,-0.3858,-0.448,-0.4487,-0.448,0.0,0.0,0.0,-0.482,-0.4871,-0.525,-0.5597,0.0,0.0,0.0,-0.9772,-1.1119,-1.2375,-1.3595,-1.4604,-1.5441,-1.6113,-1.8202,-1.981,-2.1037,-2.1877,-2.2261,-2.2383,-2.3979,-2.5133,-2.5897,-2.6907,-2.7985,-2.9114,-2.9114,-2.952,-3.0151,0.0,-0.0,-0.1766,-0.7118,-0.8186,-0.8279,-0.8272,-0.814,-0.8041,-0.8038,-0.8038,-0.8038,-0.8038,-0.8038,-0.7923,-0.7628,-0.76,-0.7468,-0.716,-0.6865,-0.6702,0.0,0.0,-0.6186,-0.6034,-0.603,-0.5956,-0.58,0.0,0.0,-0.5796,0.0,-0.5796,-0.5789,-0.565,-0.5586,-0.5579,-0.5426,-0.5428,-0.5428,-0.5428,-0.5428,-0.5428,-0.5428,-0.5179,-0.4921,-0.4918,-0.4724,-0.4519,-0.4519,-0.4519,-0.4519,-0.4519,-0.4519,-0.4519,-0.4519,-0.4519,-0.4519,-0.4519,-0.4519,-0.4519,-0.4519,-0.4519,-0.4519,-0.4519,-0.4519,-0.4519,-0.4519,-0.4519,-0.4519,-0.4519,-0.4519,-0.4519,-0.4519,0.0,0.0,0.0,-0.448,0.0,-0.4477,-0.448,-0.4473,-0.4519,-0.4519,0.0,0.0,0.0,0.0,0.0,0.0,0.0,-0.6588,-0.788,0.0,-0.9772,-1.1119,-1.2865,-1.487,-1.5323,-1.6132,-1.7448,-1.9598,-2.1037,-2.1939,-2.2763,-2.3078,-2.3138,-2.3956,-2.4648,-2.5163,-2.5932,-2.7479,-2.9288,-2.9288,-3.0696,-3.2532,0.0,0.0,-0.1118,-0.4702,-0.6833,-0.8133,-0.8116,-0.8072,-0.8038,-0.8038,-0.8038,-0.8038,-0.8038,-0.8038,-0.7923,0.0,-0.76,-0.7428,0.0,-0.681,-0.6654,-0.6549,-0.6363,-0.6237,-0.6186,-0.6186,-0.6112,-0.5959,0.0,0.0,0.0,-0.58,-0.6154,-0.6781,-0.6,-0.6,-0.6595,-0.641,-0.5943,-0.5425,-0.6075,-0.6268,-0.6203,-0.562,-0.5687,-0.601,-0.5171,-0.4857,-0.4741,-0.4587,-0.4519,-0.4519,-0.4519,-0.4519,-0.4519,-0.4519,-0.4519,-0.4519,-0.4519,-0.4519,-0.4519,-0.4519,-0.4519,-0.4519,-0.4519,-0.4519,-0.4519,-0.4519,-0.4519,-0.4519,-0.4519,-0.4519,-0.4519,-0.4519,-0.4519,0.0,-0.4522,0.0,-0.4522,-0.4522,-0.4522,-0.4522,-0.4519,-0.4519,0.0,0.0,0.0,0.0,0.0,0.0,0.0,0.0,-0.9164,0.0,-1.1335,-1.2739,-1.4212,-1.5689,-1.6119,-1.7446,-1.9598,-2.0905,-2.1939,-2.2763,-2.3005,-2.3424,-2.3982,-2.4596,-2.5612,-2.6807,-2.74,-2.8951,-3.0849,-3.0849,-3.1897,-3.3224,0.0,0.0,-0.0805,-0.3515,-0.6242,-0.7969,-0.8041,-0.8038,-0.8038,-0.8038,-0.8038,-0.8018,-0.796,-0.7953,0.0,-0.7621,-0.7546,-0.737,-0.7031,-0.6814,-0.6658,-0.6563,-0.6366,-0.6338,-0.6338,-0.6338,0.0,-0.6115,-0.6115,-0.6067,-0.5976,-0.5976,-0.6338,-0.6907,-0.604,-0.6014,-0.6618,-0.6305,-0.6075,-0.5947,-0.6461,-0.6719,-0.6654,-0.6075,-0.5971,-0.6012,-0.5248,-0.4928,-0.4806,-0.4613,-0.4567,-0.4519,-0.4519,-0.4519,-0.4519,-0.4519,-0.4519,-0.4519,-0.4519,-0.4519,-0.4519,-0.4519,-0.4519,-0.4519,-0.4519,-0.4519,-0.4519,-0.4519,-0.4519,-0.4519,-0.4519,-0.4519,-0.4519,-0.4519,-0.4519,-0.4519,-0.4519,0.0,-0.4519,0.0,0.0,0.0,0.0,-0.4897,-0.5215,0.0,0.0,0.0,0.0,0.0,-0.8136,-0.8717,-1.0176,-1.147,-1.2755,-1.3714,-1.4916,-1.6318,-1.7223,-1.8871,-2.1112,-2.1616,-2.2322,-2.3138,-2.3424,-2.3826,-2.4376,-2.5243,-2.6246,-2.7184,-2.8047,-2.9343,-3.0856,-3.1045,-3.2024,-3.3096,0.0,0.0,-0.0807,0.0,-0.6247,0.0,-0.8045,-0.8038,-0.8038,-0.8038,-0.8031,-0.797,-0.7828,-0.7794,-0.7726,-0.7597,0.0,0.0,-0.7136,-0.6858,-0.6695,-0.6685,-0.6413,-0.6338,-0.6338,-0.6338,-0.6338,-0.6338,-0.6338,-0.6338,-0.6338,-0.6338,-0.6338,-0.6402,-0.6022,-0.581,-0.5926,-0.5698,-0.602,-0.6719,-0.685,-0.685,-0.685,-0.6719,-0.61,-0.5269,-0.5195,-0.5016,-0.4834,-0.481,-0.4706,-0.4588,-0.4532,-0.4525,-0.4519,-0.4519,-0.4519,-0.4519,-0.4519,-0.4519,-0.4519,-0.4519,-0.4519,-0.4519,-0.4519,-0.4519,-0.4519,-0.4519,-0.4519,-0.457,-0.4519,-0.4519,-0.457,-0.457,-0.4515,-0.4515,-0.4625,-0.4625,-0.457,0.0,0.0,0.0,-0.5542,-0.5597,-0.5878,0.0,0.0,0.0,0.0,0.0,-0.903,-1.047,-1.086,-1.2012,-1.3844,-1.4178,-1.5153,-1.6841,-1.8565,-2.0268,-2.1877,-2.1951,-2.2445,-2.3258,-2.3943,-2.435,-2.4567,-2.596,-2.6549,-2.6759,-2.8012,-2.8978,-2.9715,-3.0259,-3.1329,-3.2467,0.0,0.0,-0.0807,-0.3516,-0.6247,-0.7979,-0.8045,-0.8038,-0.8038,-0.8038,-0.7936,-0.7851,-0.7814,-0.7611,-0.7461,-0.7428,-0.7394,-0.7261,-0.6997,-0.6803,-0.6647,-0.6532,-0.6356,-0.6338,-0.6338,-0.6338,-0.6338,-0.6338,-0.6338,-0.6338,-0.6338,-0.6338,-0.6718,-0.7395,-0.6428,-0.6343,-0.6986,-0.7382,-0.7189,-0.685,-0.8156,-0.8678,-0.8549,-0.7177,-0.6954,-0.7219,-0.6371,-0.6083,-0.5969,-0.5748,-0.5682,-0.5531,-0.4862,-0.4558,-0.4519,-0.4519,-0.4519,-0.4519,-0.4519,-0.4519,-0.4519,-0.4519,-0.4519,-0.4519,-0.4519,-0.4519,-0.4519,-0.4519,-0.4893,-0.5109,-0.457,-0.4893,-0.5273,-0.5273,-0.4842,-0.4901,-0.5932,-0.5601,-0.5492,0.0,-0.61,-0.615,-0.6312,-0.6367,-0.6763,0.0,0.0,-0.8789,-0.9663,-1.0215,-1.053,-1.0485,-1.2217,-1.3491,-1.4245,-1.5198,-1.6513,-1.8142,-1.9598,-2.0846,-2.1939,-2.2567,-2.3233,-2.4002,-2.4234,-2.4951,-2.6014,-2.6336,-2.7108,-2.8061,-2.8367,-2.95,-3.0994,-3.1127,-3.2017,-3.3093,0.0,0.0,-0.0807,-0.3516,-0.6247,-0.7979,-0.8045,-0.8038,-0.8014,-0.7943,-0.7862,-0.776,-0.7624,-0.7468,-0.7343,-0.7272,-0.7265,-0.7197,-0.7037,-0.682,-0.6664,-0.658,-0.6373,-0.6338,-0.6338,-0.6338,-0.6338,-0.6338,-0.6338,-0.6338,-0.6338,-0.6795,-0.7249,-0.7774,-0.699,-0.6883,-0.7341,-0.7495,-0.7497,-0.7437,-0.8748,-0.9274,-0.9204,-0.8221,-0.7962,-0.7947,-0.7314,-0.7084,-0.6968,-0.6801,-0.6724,-0.659,-0.6132,-0.5657,-0.5277,-0.5197,-0.4845,-0.4519,-0.4519,-0.4519,-0.4519,-0.4519,-0.4519,-0.4519,-0.4519,-0.4732,-0.4948,-0.4948,-0.5492,-0.5873,-0.555,-0.5769,-0.5982,-0.5982,-0.5714,-0.5719,-0.648,-0.6258,-0.6145,-0.6534,-0.6588,-0.675,-0.7074,-0.7231,-0.7682,-0.8608,-0.8934,0.0,-1.0539,-1.1414,-1.1856,-1.1693,-1.3247,-1.444,-1.5157,-1.6564,-1.8102,-1.9789,-2.0734,-2.1616,-2.2445,-2.2884,-2.3543,-2.435,-2.4681,-2.5453,-2.651,-2.6878,-2.758,-2.8511,-2.8779,-2.972,-3.0912,-3.1199,-3.1758,-3.2364,0.0,0.0,-0.0706,-0.3013,-0.5942,-0.7979,-0.8048,-0.8041,-0.7991,-0.7862,-0.7807,-0.7685,-0.7434,-0.7363,-0.7285,-0.7149,-0.7139,-0.7139,-0.7139,-0.6885,-0.6725,-0.6702,-0.6437,-0.6359,-0.6338,-0.6338,-0.6338,-0.6338,-0.6412,-0.649,-0.6567,-0.7557,-0.7995,-0.7956,-0.7786,-0.7586,-0.7438,-0.7344,-0.7631,-0.8291,-0.9134,-0.9466,-0.9466,-0.9338,-0.8812,-0.8221,-0.8221,-0.809,-0.7913,-0.7876,-0.7807,-0.7708,-0.7589,-0.7026,-0.6373,-0.6119,-0.5437,-0.4741,-0.4529,-0.4519,-0.4519,-0.4519,-0.457,-0.4625,-0.4625,-0.5167,-0.566,-0.5745,-0.6277,-0.6761,-0.6688,-0.6722,-0.6761,-0.6851,-0.6717,-0.6707,-0.696,0.0,-0.6804,-0.6912,-0.6944,-0.7236,-0.789,-0.8238,-0.8702,-0.9316,-0.9714,-1.0307,-1.1096,-1.2233,-1.3024,-1.336,-1.4179,-1.5254,-1.6495,-1.8093,-1.9702,-2.1332,-2.1725,-2.2322,-2.3078,-2.3245,-2.3708,-2.4509,-2.5231,-2.6,-2.6721,-2.7444,-2.8091,-2.8701,-2.9316,-2.9892,-3.0518,-3.1015,-3.123,-3.1351,0.0,0.0,-0.0101,-0.0503,-0.4732,-0.7985,-0.7969,-0.7952,-0.8031,-0.8007,-0.7787,-0.7614,-0.757,-0.7333,-0.7166,-0.7143,-0.7139,-0.7139,-0.7139,-0.6987,-0.6834,-0.6705,-0.6532,-0.6383,-0.6342,-0.6338,-0.6338,-0.6338,-0.7176,-0.7553,-0.7557,-0.8618,-0.889,-0.8626,-0.8592,-0.8364,-0.8074,-0.8778,-0.9096,-0.9204,-1.0047,-1.0428,-1.0301,-0.9594,-0.9204,-0.9075,-0.9075,-0.9046,-0.9041,-0.8883,-0.8778,-0.8627,-0.7875,-0.7507,-0.7151,-0.6507,-0.6163,-0.5718,-0.4752,-0.4519,-0.4519,-0.4519,-0.4948,-0.5324,-0.5324,-0.5928,-0.6529,-0.6768,-0.7214,-0.741,-0.7058,-0.7318,-0.7632,-0.79,-0.7203,-0.709,-0.8576,0.0,-0.7777,-0.8374,-0.8632,-0.8835,-0.8945,-0.9269,-0.9596,-0.996,-1.0656,-1.1381,-1.2157,-1.3312,-1.4118,-1.4521,-1.539,-1.6574,-1.8196,-1.9617,-2.0796,-2.182,-2.1842,-2.2322,-2.3138,-2.3826,-2.4509,-2.5287,-2.6014,-2.6774,-2.7458,-2.8091,-2.8732,-2.9316,-2.9935,-3.0518,-3.1055,-3.1151,-3.1411,-3.1733,0.0,0.0,-0.0504,-0.1909,-0.4221,-0.6342,-0.7753,-0.7977,-0.7889,-0.7814,-0.7611,-0.7444,-0.736,-0.7224,-0.7139,-0.7139,-0.7139,-0.7139,-0.7139,-0.6932,-0.6773,-0.6705,-0.6481,-0.6329,-0.6264,-0.6338,-0.6567,-0.7099,-0.7553,-0.7956,-0.8365,-0.9406,-0.9717,-0.9406,-0.9406,-0.9222,-0.9041,-0.9371,-0.9431,-0.9402,-1.0238,-1.0624,-1.0561,-1.0174,-0.9977,-0.9977,-0.9977,-0.9977,-0.9958,-0.9888,-0.9843,-0.9781,-0.9393,-0.8873,-0.8409,-0.7949,-0.6661,-0.5302,-0.4838,-0.465,-0.4695,-0.5088,-0.5547,-0.5905,-0.6087,-0.6783,-0.7428,-0.7406,-0.7859,-0.8246,-0.8045,-0.8189,-0.841,-0.8688,-0.8221,0.0,-0.9088,-0.879,-0.8651,-0.8984,-0.9299,-0.9479,-0.9479,-0.9746,-1.0146,-1.0682,-1.1262,-1.2085,-1.3296,-1.3877,-1.4653,-1.5685,-1.6605,-1.7985,-1.989,-2.0848,-2.1741,-2.258,-2.258,-2.2992,-2.3767,-2.4118,-2.4894,-2.6014,-2.6336,-2.7122,-2.8091,-2.8367,-2.9058,-2.9892,-3.0208,-3.0828,-3.1507,-3.1507,-3.1806,-3.2196,0.0,0.0,-0.1009,-0.4327,-0.4929,-0.5629,-0.7643,-0.7913,-0.7773,-0.7662,-0.7489,-0.7326,-0.7207,-0.7163,-0.7139,-0.7139,-0.7139,-0.7139,-0.7139,-0.6865,-0.6702,-0.6702,-0.6417,-0.6338,-0.6338,-0.6567,-0.7022,-0.7783,-0.8232,-0.8745,-0.9312,-1.0344,-1.0616,-1.0227,-1.0227,-1.0121,-0.9898,-0.982,-0.9705,-0.9658,-1.0301,-1.0624,-1.0624,-1.0624,-1.0624,-1.0624,-1.0624,-1.0624,-1.0624,-1.0624,-1.0624,-1.0611,-1.0481,-1.0053,-0.9539,-0.9074,-0.7265,-0.5395,-0.5491,-0.5422,-0.5494,-0.6067,-0.647,-0.6783,-0.692,-0.7743,-0.841,-0.8209,-0.8568,-0.8951,-0.9085,-0.9058,-0.9105,-0.9342,0.0,-0.9112,-0.9342,-0.9491,-0.9611,-0.9611,-1.0051,-1.0356,-1.0356,-1.0632,-1.1052,-1.163,-1.211,-1.2984,-1.4364,-1.461,-1.5468,-1.714,-1.8089,-1.9347,-2.0997,-2.1788,-2.2506,-2.3078,-2.3305,-2.3708,-2.4292,-2.4681,-2.5453,-2.651,-2.6811,-2.7565,-2.8511,-2.8779,-2.9451,-3.0293,-3.0435,-3.105,-3.1789,-3.1789,-3.2161,-3.2713,0.0,0.0,-0.1615,-0.6788,-0.7695,-0.7779,-0.7972,-0.7923,-0.7807,-0.7797,-0.7546,-0.7366,-0.7356,-0.7224,-0.7139,-0.7139,-0.7139,-0.7139,-0.7139,-0.6865,-0.6702,-0.6702,-0.6417,-0.6338,-0.6338,-0.7176,-0.7706,-0.7783,-0.9658,-1.0622,-1.0679,-1.1668,-1.182,-1.1286,-1.1286,-1.0982,-1.0524,-1.0524,-1.0511,-1.0498,-1.0561,-1.0624,-1.0624,-1.0624,-1.0624,-1.0624,-1.0624,-1.0624,-1.0624,-1.0624,-1.0624,-1.0577,-1.0234,-1.0334,-1.0305,-0.9124,-0.8209,-0.7466,-0.735,-0.7289,-0.7339,-0.7339,-0.7881,-0.8358,-0.8146,-0.8602,-0.92,-0.9508,-0.9342,-0.9316,-0.992,-0.98,-0.9713,-1.0007,0.0,0.0,-1.0013,-1.0436,-1.0755,-1.0755,-1.1749,-1.2381,-1.2381,-1.2642,-1.2785,-1.2846,-1.3588,-1.4355,-1.5197,-1.5938,-1.724,-1.9285,-1.9954,-2.0487,-2.0997,-2.2346,-2.3065,-2.3138,-2.3826,-2.4234,-2.435,-2.5728,-2.6404,-2.6563,-2.7815,-2.8415,-2.8606,-2.9717,-3.0208,-3.0351,-3.0918,-3.1393,-3.1789,-3.1789,-3.2366,-3.3136,0.0,-0.2726,-0.5052,-0.5445,-0.6859,-0.7942,-0.7929,-0.778,-0.7645,-0.755,-0.7356,-0.7227,-0.7227,-0.7177,-0.7139,-0.7139,-0.7058,-0.7048,-0.7136,-0.6865,-0.662,-0.6434,-0.6322,-0.6338,-0.6338,-0.6641,-0.7176,-0.7783,-0.9216,-1.0112,-1.0548,-1.1404,-1.1543,-1.1149,-1.0969,-1.0768,-1.0624,-1.0624,-1.0624,-1.0624,-1.0624,-1.0624,-1.0624,-1.0624,-1.0624,-1.0624,-1.0624,-1.0624,-1.0624,-1.0624,-1.0624,-1.0604,-1.0428,-1.053,-1.0534,-1.0032,-0.9744,-0.9468,-0.9432,-0.8533,-0.774,-0.8166,-0.8535,-0.8771,-0.9054,-0.9341,-0.9546,-0.9659,-0.9593,-0.9744,-1.048,-1.048,-1.0509,-1.0818,0.0,-1.1437,-1.0914,-1.1704,-1.2212,-1.2002,-1.2462,-1.2862,-1.2862,-1.2926,-1.3191,-1.3734,-1.4473,-1.5216,-1.5985,-1.7577,-1.8756,-1.9579,-2.0885,-2.1666,-2.1805,-2.267,-2.3078,-2.3138,-2.3943,-2.4509,-2.5007,-2.6068,-2.6967,-2.7765,-2.8271,-2.8919,-2.9629,-3.0123,-3.0518,-3.0918,-3.1393,-3.1842,-3.2264,-3.2565,-3.3057,-3.3578,0.0,-0.4345,-0.74,-0.5536,-0.6751,-0.7915,-0.7838,-0.7692,-0.7546,-0.739,-0.7238,-0.7139,-0.7139,-0.7139,-0.7139,-0.7139,-0.701,-0.697,-0.7068,-0.6793,-0.6539,-0.6335,-0.6285,-0.6338,-0.6338,-0.6644,-0.7099,-0.7783,-0.8841,-0.959,-1.0087,-1.0762,-1.0917,-1.0635,-1.0692,-1.0712,-1.0624,-1.0624,-1.0624,-1.0624,-1.0624,-1.0624,-1.0624,-1.0624,-1.0624,-1.0624,-1.0624,-1.0624,-1.0624,-1.0624,-1.0624,-1.0611,-1.0448,-1.0421,-1.0441,-1.0598,-1.0624,-1.0624,-1.0624,-0.9637,-0.8731,-0.9234,-0.9358,-0.942,-0.9761,-1.0048,-1.0217,-1.0217,-1.0443,-1.0821,-1.1434,-1.1651,-1.1791,-1.1964,-1.2614,-1.2802,-1.2124,-1.291,-1.3399,-1.3143,-1.351,-1.3726,-1.3726,-1.3726,-1.4019,-1.4754,-1.5371,-1.6208,-1.742,-1.8881,-1.9995,-2.0773,-2.1819,-2.2711,-2.3288,-2.3398,-2.3484,-2.3484,-2.4509,-2.5231,-2.5783,-2.6496,-2.7479,-2.8511,-2.8685,-2.9361,-3.0293,-3.0518,-3.1076,-3.1807,-3.2096,-3.2564,-3.3119,-3.3453,-3.3684,-3.3807,-0.0101,-0.4345,-0.8016,-0.7992,-0.7979,-0.7912,-0.7834,-0.7689,-0.7543,-0.739,-0.7238,-0.7139,-0.7139,-0.7139,-0.7139,-0.7139,-0.701,-0.6926,-0.6922,-0.6641,-0.6471,-0.6471,-0.6335,-0.6338,-0.6338,-0.7249,-0.7783,-0.7783,-0.8765,-0.9296,-0.9291,-1.0014,-1.0195,-0.9933,-1.0635,-1.0828,-1.0624,-1.0624,-1.0624,-1.0624,-1.0624,-1.0624,-1.0624,-1.0624,-1.0624,-1.0624,-1.0624,-1.0624,-1.0624,-1.0624,-1.0624,-1.0571,-1.0214,-1.012,-1.018,-1.0537,-1.0624,-1.0624,-1.0624,-1.0624,-1.0624,-1.0624,-1.0624,-1.0544,-1.0187,-1.0756,-1.1331,-1.1331,-1.1996,-1.2705,-1.2943,-1.336,-1.36,-1.36,-1.36,-1.3609,-1.36,-1.397,-1.4213,-1.4213,-1.4932,-1.541,-1.541,-1.542,-1.5596,-1.6086,-1.6348,-1.742,-1.9499,-1.9744,-2.0936,-2.3329,-2.2882,-2.3528,-2.5384,-2.4681,-2.4292,-2.435,-2.5783,-2.651,-2.651,-2.7255,-2.7959,-2.8559,-2.915,-2.9761,-3.0335,-3.0958,-3.1948,-3.3078,-3.3097,-3.3617,-3.4406,-3.4406,-3.4157,-3.3807,-0.5567,-0.6877,-0.7952,-0.7838,-0.7805,-0.7801,-0.7543,-0.7465,-0.7383,-0.7227,-0.717,-0.7139,-0.7139,-0.7139,-0.7139,-0.7139,-0.6912,-0.6681,-0.6474,-0.6468,-0.6427,-0.6329,-0.6285,-0.6338,-0.6338,-0.6567,-0.6718,-0.6718,-0.7783,-0.8237,-0.8228,-0.8829,-0.939,-0.9927,-0.9844,-1.0123,-1.0624,-1.0624,-1.0624,-1.0624,-1.0624,-1.0624,-1.0624,-1.0624,-1.0624,-1.0624,-1.0624,-1.0624,-1.0624,-1.0624,-1.0624,-1.0611,-1.0454,-1.0428,-1.0566,-1.126,-1.1469,-1.1593,-1.2151,-1.2274,-1.2151,-1.1593,-1.1294,-1.1284,-1.1966,-1.217,-1.2244,-1.2426,-1.2723,-1.3065,-1.3708,-1.4224,-1.44,-1.4057,-1.5286,-1.5845,-1.4693,-1.5327,-1.5842,-1.5597,-1.5478,-1.541,-1.541,-1.5693,-1.6029,-1.6366,-1.7822,-1.9344,-2.0859,-2.1847,-2.269,-2.3369,-2.4176,-2.4806,-2.5398,-2.5175,-2.5063,-2.5063,-2.6068,-2.651,-2.6563,-2.7715,-2.8543,-2.918,-2.9761,-3.0377,-3.0935,-3.1112,-3.1585,-3.2208,-3.2564,-3.3037,-3.3605,-3.3887,-3.3909,-3.3815,-0.8012,-0.7992,-0.7925,-0.7771,-0.7727,-0.7712,-0.7417,-0.737,-0.7316,-0.716,-0.7139,-0.7139,-0.7139,-0.7092,-0.7058,-0.7058,-0.6783,-0.6512,-0.6278,-0.6342,-0.6349,-0.6342,-0.6338,-0.6338,-0.6338,-0.6338,-0.6338,-0.6338,-0.6801,-0.7067,-0.7135,-0.7637,-0.8216,-0.8748,-0.9117,-0.9594,-1.011,-1.0434,-1.0624,-1.0624,-1.0624,-1.0624,-1.0624,-1.0624,-1.0624,-1.0624,-1.0624,-1.0624,-1.0624,-1.0989,-1.1296,-1.1538,-1.1538,-1.1538,-1.1663,-1.2143,-1.2266,-1.2389,-1.2887,-1.3009,-1.2948,-1.281,-1.2345,-1.213,-1.2838,-1.3135,-1.3322,-1.37,-1.4013,-1.4432,-1.5093,-1.5396,-1.5598,-1.5504,-1.6392,-1.6741,-1.5764,-1.6086,-1.6299,-1.5859,-1.5566,-1.541,-1.541,-1.6148,-1.7012,-1.7942,-1.9378,-2.0628,-2.1738,-2.2613,-2.3415,-2.416,-2.5078,-2.576,-2.6269,-2.6269,-2.6108,-2.5837,-2.6602,-2.6945,-2.6982,-2.8027,-2.8826,-2.9451,-3.0038,-3.0764,-3.1466,-3.1449,-3.1996,-3.2858,-3.3143,-3.3512,-3.3938,-3.4183,-3.4082,-3.3842,-0.7995,-0.7979,-0.7918,-0.7754,-0.7707,-0.7692,-0.7397,-0.735,-0.7299,-0.7156,-0.7139,-0.7136,-0.7122,-0.7007,-0.6922,-0.6909,-0.6641,-0.6413,-0.6349,-0.6338,-0.6338,-0.6338,-0.6338,-0.6338,-0.6338,-0.6338,-0.6338,-0.6338,-0.6122,-0.6044,-0.6023,-0.6573,-0.6886,-0.7065,-0.8527,-0.9268,-0.9466,-1.0238,-1.0624,-1.0624,-1.0624,-1.0624,-1.0624,-1.0624,-1.0624,-1.0624,-1.0681,-1.0701,-1.0905,-1.1692,-1.2436,-1.305,-1.3017,-1.3033,-1.305,-1.3078,-1.313,-1.313,-1.3183,-1.3183,-1.3373,-1.4198,-1.3838,-1.3302,-1.3302,-1.3865,-1.4541,-1.4976,-1.5614,-1.625,-1.665,-1.6758,-1.6914,-1.7266,-1.7051,-1.6826,-1.6797,-1.6436,-1.6035,-1.5635,-1.5557,-1.5537,-1.5537,-1.6739,-1.8372,-2.0403,-2.089,-2.1463,-2.2326,-2.2711,-2.3649,-2.537,-2.5726,-2.6446,-2.756,-2.766,-2.7306,-2.6616,-2.7306,-2.7625,-2.771,-2.8319,-2.8919,-2.9496,-3.0123,-3.0948,-3.1894,-3.1842,-3.2772,-3.4266,-3.4266,-3.4527,-3.488,-3.488,-3.4431,-3.3842,-0.7979,-0.7962,-0.7963,-0.7699,-0.7648,-0.7543,-0.7238,-0.719,-0.7177,-0.7143,-0.7139,-0.7099,-0.6987,-0.6946,-0.6881,-0.6759,-0.658,-0.6413,-0.6349,-0.6338,-0.6338,-0.6338,-0.6338,-0.6338,-0.6338,-0.6338,-0.6338,-0.6338,-0.6227,-0.6149,-0.6027,-0.6053,-0.6732,-0.7947,-0.8194,-0.9064,-1.0301,-1.0491,-1.0624,-1.0624,-1.0624,-1.0624,-1.0624,-1.0624,-1.0624,-1.0681,-1.1288,-1.1762,-1.2111,-1.2917,-1.3359,-1.3434,-1.3091,-1.3199,-1.3551,-1.3873,-1.3965,-1.4085,-1.4688,-1.4874,-1.5008,-1.553,-1.5546,-1.5425,-1.5425,-1.5813,-1.6215,-1.6311,-1.6457,-1.6621,-1.6655,-1.7012,-1.7158,-1.6914,-1.7353,-1.7617,-1.7285,-1.7158,-1.7061,-1.6963,-1.665,-1.6445,-1.6445,-1.7825,-1.9493,-2.14,-2.1871,-2.225,-2.2865,-2.412,-2.4957,-2.5398,-2.6562,-2.7324,-2.7625,-2.8091,-2.7993,-2.7357,-2.7509,-2.786,-2.8334,-2.8904,-2.954,-3.0123,-3.074,-3.1317,-3.1842,-3.1825,-3.2472,-3.3467,-3.3467,-3.372,-3.4064,-3.4064,-3.3954,-3.3868,-0.7963,-0.7997,-0.7923,-0.7553,-0.755,-0.7495,-0.7187,-0.7139,-0.7139,-0.7139,-0.7139,-0.7085,-0.6946,-0.6865,-0.6729,-0.6512,-0.6417,-0.6339,-0.6345,-0.6338,-0.6338,-0.6338,-0.6338,-0.6338,-0.6338,-0.6338,-0.6338,-0.6338,-0.6115,-0.6,-0.5915,-0.6106,-0.6695,-0.7531,-0.8278,-0.9134,-0.9977,-1.0428,-1.0624,-1.0624,-1.0624,-1.0624,-1.0624,-1.1052,-1.1163,-1.1288,-1.2081,-1.2921,-1.3672,-1.4104,-1.4488,-1.4763,-1.4556,-1.4441,-1.4475,-1.4693,-1.4746,-1.4911,-1.5545,-1.5723,-1.583,-1.6269,-1.6543,-1.6641,-1.6426,-1.6562,-1.6787,-1.7002,-1.7041,-1.7229,-1.7805,-1.7615,-1.7494,-1.791,-1.7803,-1.7637,-1.7412,-1.7383,-1.7305,-1.71,-1.7236,-1.7709,-1.8776,-1.9591,-2.0758,-2.2384,-2.2968,-2.3399,-2.3636,-2.5119,-2.5906,-2.5906,-2.7019,-2.7625,-2.7625,-2.8189,-2.8319,-2.8042,-2.8319,-2.8638,-2.8966,-2.954,-2.9978,-3.0335,-3.0935,-3.1562,-3.2127,-3.2127,-3.2663,-3.3494,-3.3494,-3.3606,-3.3807,-3.3807,-3.3979,-3.426,-0.7879,-0.7929,-0.7875,-0.7478,-0.7495,-0.7465,-0.7183,-0.7139,-0.7132,-0.7105,-0.7102,-0.7041,-0.6868,-0.6715,-0.6525,-0.6281,-0.6338,-0.6338,-0.6338,-0.6338,-0.6338,-0.6338,-0.6237,-0.622,-0.622,-0.622,-0.622,-0.622,-0.611,-0.6025,-0.5969,-0.6646,-0.7012,-0.7177,-0.8683,-0.9402,-0.9594,-1.0301,-1.0681,-1.0807,-1.0807,-1.0863,-1.1052,-1.1779,-1.202,-1.2151,-1.3014,-1.4145,-1.5237,-1.5311,-1.5775,-1.6321,-1.6174,-1.6028,-1.594,-1.5791,-1.5918,-1.6165,-1.6538,-1.6648,-1.6749,-1.7149,-1.754,-1.774,-1.745,-1.7252,-1.7234,-1.7665,-1.7865,-1.8293,-1.9302,-1.8678,-1.8238,-1.918,-1.8415,-1.7678,-1.749,-1.7612,-1.7605,-1.7175,-1.7926,-1.9232,-2.1116,-2.1344,-2.1837,-2.304,-2.3826,-2.4292,-2.4292,-2.5823,-2.664,-2.664,-2.7479,-2.7894,-2.7894,-2.8496,-2.8826,-2.8826,-2.9406,-2.9673,-2.9585,-3.0081,-3.0351,-3.0477,-3.0975,-3.1694,-3.2484,-3.2484,-3.3027,-3.3807,-3.3807,-3.3807,-3.3807,-3.3868,-3.4213,-3.4713,-0.8014,-0.7919,-0.7784,-0.76,-0.7478,-0.7343,-0.7166,-0.7139,-0.7095,-0.6973,-0.6956,-0.6851,-0.6566,-0.6407,-0.6305,-0.6264,-0.6338,-0.6338,-0.6338,-0.6338,-0.6338,-0.6338,-0.6132,-0.6061,-0.6061,-0.6061,-0.6061,-0.6061,-0.6744,-0.7001,-0.6769,-0.7604,-0.8348,-0.8947,-0.9204,-0.9722,-1.0428,-1.0561,-1.0982,-1.1648,-1.1648,-1.202,-1.2704,-1.2826,-1.2826,-1.2989,-1.4233,-1.5436,-1.651,-1.6951,-1.7132,-1.707,-1.637,-1.7072,-1.8041,-1.7357,-1.7884,-1.8766,-1.8822,-1.8844,-1.8966,-1.9382,-1.9486,-1.9629,-1.9993,-1.9501,-1.8944,-1.9007,-1.9662,-2.0191,-2.0386,-2.0278,-1.9998,-1.942,-1.9191,-1.8762,-1.7988,-1.8572,-1.8996,-1.8934,-1.9695,-2.0676,-2.1696,-2.1832,-2.2176,-2.3005,-2.3826,-2.4292,-2.4292,-2.6169,-2.7274,-2.7274,-2.8529,-2.918,-2.918,-2.9761,-3.0081,-3.0064,-3.0658,-3.0699,-3.0166,-3.0251,-3.0559,-3.1095,-3.1151,-3.1694,-3.2484,-3.2484,-3.3027,-3.3807,-3.3807,-3.3807,-3.3815,-3.4068,-3.4379,-3.4734,-0.7699,-0.7682,-0.7617,-0.7383,-0.736,-0.7319,-0.7163,-0.7139,-0.7088,-0.6949,-0.6929,-0.6814,-0.6505,-0.6346,-0.6338,-0.6338,-0.6338,-0.6338,-0.6338,-0.6338,-0.6338,-0.6338,-0.6196,-0.6118,-0.603,-0.6466,-0.6668,-0.6481,-0.6929,-0.7341,-0.7618,-0.844,-0.8984,-0.9338,-0.9786,-1.0238,-1.0624,-1.0624,-1.1045,-1.1834,-1.1834,-1.2266,-1.307,-1.3485,-1.3805,-1.4224,-1.5455,-1.6689,-1.7721,-1.75,-1.7995,-1.8659,-1.776,-1.8154,-1.8934,-1.8566,-1.8837,-1.9369,-1.9569,-1.9648,-1.9772,-2.0205,-2.0254,-2.0322,-2.0546,-2.0655,-2.059,-2.0139,-2.0333,-2.0719,-2.1239,-2.091,-2.0655,-2.0719,-2.0333,-1.9879,-1.9497,-1.9759,-2.0204,-2.0719,-2.1101,-2.1678,-2.2506,-2.2567,-2.2702,-2.3078,-2.4221,-2.4894,-2.4894,-2.6544,-2.7685,-2.8015,-2.8575,-2.9042,-2.9406,-2.9995,-3.0293,-3.0293,-3.0918,-3.1055,-3.0781,-3.0781,-3.0958,-3.123,-3.1449,-3.1914,-3.2517,-3.2777,-3.3255,-3.3807,-3.3807,-3.3876,-3.4043,-3.4171,-3.451,-3.4944]}]]